<?xml version="1.0" encoding="UTF-8" standalone="no" ?>
<gpx xmlns="http://www.topografix.com/GPX/1/1" xmlns:xsi="http://www.w3.org/2001/XMLSchema-instance" xsi:schemaLocation="http://www.topografix.com/GPX/1/1 http://www.topografix.com/GPX/1/1/gpx.xsd" version="1.1" creator="VisuGPX - https://www.visugpx.com">
  <metadata>
    <name>Cyclo - Contrefort du Vercors.</name>
    <desc><![CDATA[Chouette rando vélo sur les contreforts du Vercors.]]></desc>
  </metadata>
  <trk>
    <name><![CDATA[22-AOU-17 18:52:09]]></name>
    <trkseg>
      <trkpt lat="44.91336" lon="5.10904">
        <ele>405.33</ele>
        <time>2017-08-22T13:08:30Z</time>
      </trkpt>
      <trkpt lat="44.91338" lon="5.10902">
        <ele>407.74</ele>
        <time>2017-08-22T13:08:39Z</time>
      </trkpt>
      <trkpt lat="44.91351" lon="5.109">
        <ele>409.18</ele>
        <time>2017-08-22T13:08:47Z</time>
      </trkpt>
      <trkpt lat="44.91379" lon="5.10877">
        <ele>407.26</ele>
        <time>2017-08-22T13:08:56Z</time>
      </trkpt>
      <trkpt lat="44.91383" lon="5.10875">
        <ele>407.26</ele>
        <time>2017-08-22T13:08:57Z</time>
      </trkpt>
      <trkpt lat="44.91386" lon="5.10874">
        <ele>407.26</ele>
        <time>2017-08-22T13:08:58Z</time>
      </trkpt>
      <trkpt lat="44.91394" lon="5.10868">
        <ele>407.26</ele>
        <time>2017-08-22T13:09:01Z</time>
      </trkpt>
      <trkpt lat="44.91396" lon="5.10864">
        <ele>407.26</ele>
        <time>2017-08-22T13:09:02Z</time>
      </trkpt>
      <trkpt lat="44.91397" lon="5.10857">
        <ele>406.77</ele>
        <time>2017-08-22T13:09:03Z</time>
      </trkpt>
      <trkpt lat="44.91398" lon="5.108">
        <ele>403.89</ele>
        <time>2017-08-22T13:09:09Z</time>
      </trkpt>
      <trkpt lat="44.91399" lon="5.10778">
        <ele>400.53</ele>
        <time>2017-08-22T13:09:11Z</time>
      </trkpt>
      <trkpt lat="44.91408" lon="5.10634">
        <ele>401.97</ele>
        <time>2017-08-22T13:09:25Z</time>
      </trkpt>
      <trkpt lat="44.9141" lon="5.10591">
        <ele>403.89</ele>
        <time>2017-08-22T13:09:34Z</time>
      </trkpt>
      <trkpt lat="44.91408" lon="5.1059">
        <ele>403.41</ele>
        <time>2017-08-22T13:09:49Z</time>
      </trkpt>
      <trkpt lat="44.91408" lon="5.10588">
        <ele>403.41</ele>
        <time>2017-08-22T13:10:05Z</time>
      </trkpt>
      <trkpt lat="44.91408" lon="5.10586">
        <ele>403.41</ele>
        <time>2017-08-22T13:10:06Z</time>
      </trkpt>
      <trkpt lat="44.91408" lon="5.10584">
        <ele>403.41</ele>
        <time>2017-08-22T13:10:07Z</time>
      </trkpt>
      <trkpt lat="44.91408" lon="5.10581">
        <ele>403.41</ele>
        <time>2017-08-22T13:10:08Z</time>
      </trkpt>
      <trkpt lat="44.91408" lon="5.10577">
        <ele>403.41</ele>
        <time>2017-08-22T13:10:09Z</time>
      </trkpt>
      <trkpt lat="44.91408" lon="5.10574">
        <ele>402.93</ele>
        <time>2017-08-22T13:10:10Z</time>
      </trkpt>
      <trkpt lat="44.91408" lon="5.10569">
        <ele>402.93</ele>
        <time>2017-08-22T13:10:11Z</time>
      </trkpt>
      <trkpt lat="44.91408" lon="5.10565">
        <ele>402.93</ele>
        <time>2017-08-22T13:10:12Z</time>
      </trkpt>
      <trkpt lat="44.91408" lon="5.10559">
        <ele>402.93</ele>
        <time>2017-08-22T13:10:13Z</time>
      </trkpt>
      <trkpt lat="44.91408" lon="5.10554">
        <ele>402.45</ele>
        <time>2017-08-22T13:10:14Z</time>
      </trkpt>
      <trkpt lat="44.914" lon="5.10475">
        <ele>399.08</ele>
        <time>2017-08-22T13:10:25Z</time>
      </trkpt>
      <trkpt lat="44.91394" lon="5.10419">
        <ele>397.16</ele>
        <time>2017-08-22T13:10:31Z</time>
      </trkpt>
      <trkpt lat="44.91394" lon="5.10409">
        <ele>396.68</ele>
        <time>2017-08-22T13:10:32Z</time>
      </trkpt>
      <trkpt lat="44.91395" lon="5.10399">
        <ele>395.72</ele>
        <time>2017-08-22T13:10:33Z</time>
      </trkpt>
      <trkpt lat="44.91399" lon="5.10391">
        <ele>394.76</ele>
        <time>2017-08-22T13:10:34Z</time>
      </trkpt>
      <trkpt lat="44.91405" lon="5.10385">
        <ele>394.76</ele>
        <time>2017-08-22T13:10:35Z</time>
      </trkpt>
      <trkpt lat="44.91412" lon="5.10381">
        <ele>394.28</ele>
        <time>2017-08-22T13:10:36Z</time>
      </trkpt>
      <trkpt lat="44.9142" lon="5.10379">
        <ele>393.32</ele>
        <time>2017-08-22T13:10:37Z</time>
      </trkpt>
      <trkpt lat="44.91428" lon="5.10377">
        <ele>392.84</ele>
        <time>2017-08-22T13:10:38Z</time>
      </trkpt>
      <trkpt lat="44.91436" lon="5.10376">
        <ele>392.84</ele>
        <time>2017-08-22T13:10:39Z</time>
      </trkpt>
      <trkpt lat="44.91481" lon="5.10371">
        <ele>389.47</ele>
        <time>2017-08-22T13:10:44Z</time>
      </trkpt>
      <trkpt lat="44.915" lon="5.10371">
        <ele>388.51</ele>
        <time>2017-08-22T13:10:46Z</time>
      </trkpt>
      <trkpt lat="44.9151" lon="5.10372">
        <ele>388.03</ele>
        <time>2017-08-22T13:10:47Z</time>
      </trkpt>
      <trkpt lat="44.91519" lon="5.10373">
        <ele>387.55</ele>
        <time>2017-08-22T13:10:48Z</time>
      </trkpt>
      <trkpt lat="44.91536" lon="5.10378">
        <ele>387.07</ele>
        <time>2017-08-22T13:10:50Z</time>
      </trkpt>
      <trkpt lat="44.91544" lon="5.10383">
        <ele>385.63</ele>
        <time>2017-08-22T13:10:51Z</time>
      </trkpt>
      <trkpt lat="44.91608" lon="5.10427">
        <ele>385.63</ele>
        <time>2017-08-22T13:11:02Z</time>
      </trkpt>
      <trkpt lat="44.91609" lon="5.10428">
        <ele>386.11</ele>
        <time>2017-08-22T13:11:19Z</time>
      </trkpt>
      <trkpt lat="44.91609" lon="5.10428">
        <ele>386.11</ele>
        <time>2017-08-22T13:11:35Z</time>
      </trkpt>
      <trkpt lat="44.91611" lon="5.10428">
        <ele>386.11</ele>
        <time>2017-08-22T13:11:36Z</time>
      </trkpt>
      <trkpt lat="44.91612" lon="5.10428">
        <ele>386.11</ele>
        <time>2017-08-22T13:11:37Z</time>
      </trkpt>
      <trkpt lat="44.91616" lon="5.10428">
        <ele>386.11</ele>
        <time>2017-08-22T13:11:39Z</time>
      </trkpt>
      <trkpt lat="44.91618" lon="5.10431">
        <ele>386.11</ele>
        <time>2017-08-22T13:11:40Z</time>
      </trkpt>
      <trkpt lat="44.91621" lon="5.10435">
        <ele>386.59</ele>
        <time>2017-08-22T13:11:42Z</time>
      </trkpt>
      <trkpt lat="44.91623" lon="5.10434">
        <ele>386.59</ele>
        <time>2017-08-22T13:11:43Z</time>
      </trkpt>
      <trkpt lat="44.91623" lon="5.10431">
        <ele>386.59</ele>
        <time>2017-08-22T13:11:44Z</time>
      </trkpt>
      <trkpt lat="44.91622" lon="5.10428">
        <ele>386.59</ele>
        <time>2017-08-22T13:11:45Z</time>
      </trkpt>
      <trkpt lat="44.9162" lon="5.10427">
        <ele>386.11</ele>
        <time>2017-08-22T13:11:46Z</time>
      </trkpt>
      <trkpt lat="44.91618" lon="5.10429">
        <ele>386.11</ele>
        <time>2017-08-22T13:11:47Z</time>
      </trkpt>
      <trkpt lat="44.91619" lon="5.10433">
        <ele>386.11</ele>
        <time>2017-08-22T13:11:48Z</time>
      </trkpt>
      <trkpt lat="44.91621" lon="5.10435">
        <ele>386.59</ele>
        <time>2017-08-22T13:11:49Z</time>
      </trkpt>
      <trkpt lat="44.91622" lon="5.10438">
        <ele>386.59</ele>
        <time>2017-08-22T13:11:50Z</time>
      </trkpt>
      <trkpt lat="44.91623" lon="5.10441">
        <ele>386.59</ele>
        <time>2017-08-22T13:11:51Z</time>
      </trkpt>
      <trkpt lat="44.91624" lon="5.10444">
        <ele>387.07</ele>
        <time>2017-08-22T13:11:52Z</time>
      </trkpt>
      <trkpt lat="44.91625" lon="5.10446">
        <ele>387.07</ele>
        <time>2017-08-22T13:11:53Z</time>
      </trkpt>
      <trkpt lat="44.91627" lon="5.10447">
        <ele>387.07</ele>
        <time>2017-08-22T13:11:54Z</time>
      </trkpt>
      <trkpt lat="44.91629" lon="5.10447">
        <ele>387.07</ele>
        <time>2017-08-22T13:11:55Z</time>
      </trkpt>
      <trkpt lat="44.91631" lon="5.10448">
        <ele>387.55</ele>
        <time>2017-08-22T13:11:56Z</time>
      </trkpt>
      <trkpt lat="44.91651" lon="5.10466">
        <ele>388.99</ele>
        <time>2017-08-22T13:12:07Z</time>
      </trkpt>
      <trkpt lat="44.91654" lon="5.10469">
        <ele>388.99</ele>
        <time>2017-08-22T13:12:16Z</time>
      </trkpt>
      <trkpt lat="44.91656" lon="5.10469">
        <ele>388.99</ele>
        <time>2017-08-22T13:12:39Z</time>
      </trkpt>
      <trkpt lat="44.91658" lon="5.10469">
        <ele>388.51</ele>
        <time>2017-08-22T13:12:40Z</time>
      </trkpt>
      <trkpt lat="44.9166" lon="5.1047">
        <ele>388.99</ele>
        <time>2017-08-22T13:12:41Z</time>
      </trkpt>
      <trkpt lat="44.91663" lon="5.10472">
        <ele>388.51</ele>
        <time>2017-08-22T13:12:42Z</time>
      </trkpt>
      <trkpt lat="44.91665" lon="5.10474">
        <ele>388.99</ele>
        <time>2017-08-22T13:12:43Z</time>
      </trkpt>
      <trkpt lat="44.91667" lon="5.10476">
        <ele>388.99</ele>
        <time>2017-08-22T13:12:44Z</time>
      </trkpt>
      <trkpt lat="44.91669" lon="5.10477">
        <ele>389.47</ele>
        <time>2017-08-22T13:12:45Z</time>
      </trkpt>
      <trkpt lat="44.9168" lon="5.10487">
        <ele>389.95</ele>
        <time>2017-08-22T13:12:57Z</time>
      </trkpt>
      <trkpt lat="44.9168" lon="5.10487">
        <ele>389.95</ele>
        <time>2017-08-22T13:13:04Z</time>
      </trkpt>
      <trkpt lat="44.91681" lon="5.10488">
        <ele>389.95</ele>
        <time>2017-08-22T13:13:05Z</time>
      </trkpt>
      <trkpt lat="44.91683" lon="5.10489">
        <ele>389.95</ele>
        <time>2017-08-22T13:13:06Z</time>
      </trkpt>
      <trkpt lat="44.91715" lon="5.10514">
        <ele>391.39</ele>
        <time>2017-08-22T13:13:21Z</time>
      </trkpt>
      <trkpt lat="44.91757" lon="5.10528">
        <ele>394.28</ele>
        <time>2017-08-22T13:13:38Z</time>
      </trkpt>
      <trkpt lat="44.91796" lon="5.10514">
        <ele>397.16</ele>
        <time>2017-08-22T13:13:53Z</time>
      </trkpt>
      <trkpt lat="44.9184" lon="5.10512">
        <ele>399.57</ele>
        <time>2017-08-22T13:14:09Z</time>
      </trkpt>
      <trkpt lat="44.91868" lon="5.10525">
        <ele>400.53</ele>
        <time>2017-08-22T13:14:23Z</time>
      </trkpt>
      <trkpt lat="44.91868" lon="5.10525">
        <ele>400.05</ele>
        <time>2017-08-22T13:14:27Z</time>
      </trkpt>
      <trkpt lat="44.9188" lon="5.10532">
        <ele>401.01</ele>
        <time>2017-08-22T13:16:12Z</time>
      </trkpt>
      <trkpt lat="44.91934" lon="5.1057">
        <ele>402.93</ele>
        <time>2017-08-22T13:16:33Z</time>
      </trkpt>
      <trkpt lat="44.9198" lon="5.10623">
        <ele>404.85</ele>
        <time>2017-08-22T13:16:51Z</time>
      </trkpt>
      <trkpt lat="44.92009" lon="5.10679">
        <ele>408.22</ele>
        <time>2017-08-22T13:17:07Z</time>
      </trkpt>
      <trkpt lat="44.92053" lon="5.10733">
        <ele>410.62</ele>
        <time>2017-08-22T13:17:25Z</time>
      </trkpt>
      <trkpt lat="44.92102" lon="5.10772">
        <ele>410.14</ele>
        <time>2017-08-22T13:17:39Z</time>
      </trkpt>
      <trkpt lat="44.92165" lon="5.1081">
        <ele>409.66</ele>
        <time>2017-08-22T13:17:53Z</time>
      </trkpt>
      <trkpt lat="44.92169" lon="5.10816">
        <ele>409.66</ele>
        <time>2017-08-22T13:17:54Z</time>
      </trkpt>
      <trkpt lat="44.92173" lon="5.10822">
        <ele>409.18</ele>
        <time>2017-08-22T13:17:55Z</time>
      </trkpt>
      <trkpt lat="44.92176" lon="5.10829">
        <ele>408.7</ele>
        <time>2017-08-22T13:17:56Z</time>
      </trkpt>
      <trkpt lat="44.92179" lon="5.10838">
        <ele>408.7</ele>
        <time>2017-08-22T13:17:57Z</time>
      </trkpt>
      <trkpt lat="44.92181" lon="5.10847">
        <ele>408.22</ele>
        <time>2017-08-22T13:17:58Z</time>
      </trkpt>
      <trkpt lat="44.92185" lon="5.10864">
        <ele>408.22</ele>
        <time>2017-08-22T13:18:00Z</time>
      </trkpt>
      <trkpt lat="44.92188" lon="5.10871">
        <ele>408.22</ele>
        <time>2017-08-22T13:18:01Z</time>
      </trkpt>
      <trkpt lat="44.92193" lon="5.10878">
        <ele>407.74</ele>
        <time>2017-08-22T13:18:02Z</time>
      </trkpt>
      <trkpt lat="44.92198" lon="5.10884">
        <ele>407.74</ele>
        <time>2017-08-22T13:18:03Z</time>
      </trkpt>
      <trkpt lat="44.92204" lon="5.10888">
        <ele>407.26</ele>
        <time>2017-08-22T13:18:04Z</time>
      </trkpt>
      <trkpt lat="44.92211" lon="5.10891">
        <ele>406.77</ele>
        <time>2017-08-22T13:18:05Z</time>
      </trkpt>
      <trkpt lat="44.92217" lon="5.10892">
        <ele>406.77</ele>
        <time>2017-08-22T13:18:06Z</time>
      </trkpt>
      <trkpt lat="44.92224" lon="5.10893">
        <ele>406.77</ele>
        <time>2017-08-22T13:18:07Z</time>
      </trkpt>
      <trkpt lat="44.9223" lon="5.10893">
        <ele>406.77</ele>
        <time>2017-08-22T13:18:08Z</time>
      </trkpt>
      <trkpt lat="44.92236" lon="5.1089">
        <ele>406.29</ele>
        <time>2017-08-22T13:18:09Z</time>
      </trkpt>
      <trkpt lat="44.92241" lon="5.10886">
        <ele>406.77</ele>
        <time>2017-08-22T13:18:10Z</time>
      </trkpt>
      <trkpt lat="44.92246" lon="5.10881">
        <ele>407.26</ele>
        <time>2017-08-22T13:18:11Z</time>
      </trkpt>
      <trkpt lat="44.92251" lon="5.10875">
        <ele>407.74</ele>
        <time>2017-08-22T13:18:12Z</time>
      </trkpt>
      <trkpt lat="44.92264" lon="5.10863">
        <ele>407.74</ele>
        <time>2017-08-22T13:18:15Z</time>
      </trkpt>
      <trkpt lat="44.92269" lon="5.1086">
        <ele>408.22</ele>
        <time>2017-08-22T13:18:16Z</time>
      </trkpt>
      <trkpt lat="44.92273" lon="5.10857">
        <ele>408.22</ele>
        <time>2017-08-22T13:18:17Z</time>
      </trkpt>
      <trkpt lat="44.9231" lon="5.10846">
        <ele>411.1</ele>
        <time>2017-08-22T13:18:28Z</time>
      </trkpt>
      <trkpt lat="44.92351" lon="5.10828">
        <ele>414.47</ele>
        <time>2017-08-22T13:18:43Z</time>
      </trkpt>
      <trkpt lat="44.92406" lon="5.10794">
        <ele>414.47</ele>
        <time>2017-08-22T13:18:58Z</time>
      </trkpt>
      <trkpt lat="44.92411" lon="5.10793">
        <ele>414.47</ele>
        <time>2017-08-22T13:18:59Z</time>
      </trkpt>
      <trkpt lat="44.92456" lon="5.10796">
        <ele>414.47</ele>
        <time>2017-08-22T13:19:07Z</time>
      </trkpt>
      <trkpt lat="44.92532" lon="5.10834">
        <ele>411.58</ele>
        <time>2017-08-22T13:19:20Z</time>
      </trkpt>
      <trkpt lat="44.92548" lon="5.10843">
        <ele>410.62</ele>
        <time>2017-08-22T13:19:22Z</time>
      </trkpt>
      <trkpt lat="44.92571" lon="5.1086">
        <ele>409.18</ele>
        <time>2017-08-22T13:19:25Z</time>
      </trkpt>
      <trkpt lat="44.92632" lon="5.10909">
        <ele>405.81</ele>
        <time>2017-08-22T13:19:33Z</time>
      </trkpt>
      <trkpt lat="44.92669" lon="5.10947">
        <ele>402.93</ele>
        <time>2017-08-22T13:19:38Z</time>
      </trkpt>
      <trkpt lat="44.92675" lon="5.10956">
        <ele>402.45</ele>
        <time>2017-08-22T13:19:39Z</time>
      </trkpt>
      <trkpt lat="44.92681" lon="5.10967">
        <ele>401.97</ele>
        <time>2017-08-22T13:19:40Z</time>
      </trkpt>
      <trkpt lat="44.9274" lon="5.1107">
        <ele>400.05</ele>
        <time>2017-08-22T13:19:51Z</time>
      </trkpt>
      <trkpt lat="44.92783" lon="5.1112">
        <ele>398.12</ele>
        <time>2017-08-22T13:19:58Z</time>
      </trkpt>
      <trkpt lat="44.9281" lon="5.11152">
        <ele>394.76</ele>
        <time>2017-08-22T13:20:02Z</time>
      </trkpt>
      <trkpt lat="44.92817" lon="5.1116">
        <ele>395.24</ele>
        <time>2017-08-22T13:20:03Z</time>
      </trkpt>
      <trkpt lat="44.92856" lon="5.11198">
        <ele>391.87</ele>
        <time>2017-08-22T13:20:08Z</time>
      </trkpt>
      <trkpt lat="44.929" lon="5.11231">
        <ele>392.84</ele>
        <time>2017-08-22T13:20:14Z</time>
      </trkpt>
      <trkpt lat="44.92907" lon="5.11234">
        <ele>392.84</ele>
        <time>2017-08-22T13:20:15Z</time>
      </trkpt>
      <trkpt lat="44.92914" lon="5.11236">
        <ele>392.36</ele>
        <time>2017-08-22T13:20:16Z</time>
      </trkpt>
      <trkpt lat="44.92922" lon="5.11236">
        <ele>391.87</ele>
        <time>2017-08-22T13:20:17Z</time>
      </trkpt>
      <trkpt lat="44.9293" lon="5.11236">
        <ele>391.39</ele>
        <time>2017-08-22T13:20:18Z</time>
      </trkpt>
      <trkpt lat="44.92946" lon="5.11236">
        <ele>391.39</ele>
        <time>2017-08-22T13:20:20Z</time>
      </trkpt>
      <trkpt lat="44.92953" lon="5.11238">
        <ele>390.91</ele>
        <time>2017-08-22T13:20:21Z</time>
      </trkpt>
      <trkpt lat="44.92961" lon="5.11241">
        <ele>389.95</ele>
        <time>2017-08-22T13:20:22Z</time>
      </trkpt>
      <trkpt lat="44.92968" lon="5.11245">
        <ele>389.47</ele>
        <time>2017-08-22T13:20:23Z</time>
      </trkpt>
      <trkpt lat="44.92975" lon="5.11252">
        <ele>389.47</ele>
        <time>2017-08-22T13:20:24Z</time>
      </trkpt>
      <trkpt lat="44.92982" lon="5.1126">
        <ele>388.99</ele>
        <time>2017-08-22T13:20:25Z</time>
      </trkpt>
      <trkpt lat="44.92988" lon="5.11268">
        <ele>388.51</ele>
        <time>2017-08-22T13:20:26Z</time>
      </trkpt>
      <trkpt lat="44.93001" lon="5.11285">
        <ele>387.07</ele>
        <time>2017-08-22T13:20:28Z</time>
      </trkpt>
      <trkpt lat="44.93009" lon="5.11291">
        <ele>386.59</ele>
        <time>2017-08-22T13:20:29Z</time>
      </trkpt>
      <trkpt lat="44.93017" lon="5.11296">
        <ele>386.59</ele>
        <time>2017-08-22T13:20:30Z</time>
      </trkpt>
      <trkpt lat="44.9306" lon="5.11326">
        <ele>382.74</ele>
        <time>2017-08-22T13:20:35Z</time>
      </trkpt>
      <trkpt lat="44.93092" lon="5.11363">
        <ele>380.82</ele>
        <time>2017-08-22T13:20:39Z</time>
      </trkpt>
      <trkpt lat="44.93101" lon="5.11366">
        <ele>380.82</ele>
        <time>2017-08-22T13:20:40Z</time>
      </trkpt>
      <trkpt lat="44.9311" lon="5.11366">
        <ele>380.34</ele>
        <time>2017-08-22T13:20:41Z</time>
      </trkpt>
      <trkpt lat="44.93117" lon="5.11361">
        <ele>380.34</ele>
        <time>2017-08-22T13:20:42Z</time>
      </trkpt>
      <trkpt lat="44.93124" lon="5.11354">
        <ele>380.82</ele>
        <time>2017-08-22T13:20:43Z</time>
      </trkpt>
      <trkpt lat="44.9313" lon="5.11346">
        <ele>380.82</ele>
        <time>2017-08-22T13:20:44Z</time>
      </trkpt>
      <trkpt lat="44.93136" lon="5.11339">
        <ele>381.3</ele>
        <time>2017-08-22T13:20:45Z</time>
      </trkpt>
      <trkpt lat="44.93141" lon="5.11335">
        <ele>381.3</ele>
        <time>2017-08-22T13:20:46Z</time>
      </trkpt>
      <trkpt lat="44.93147" lon="5.11332">
        <ele>381.78</ele>
        <time>2017-08-22T13:20:47Z</time>
      </trkpt>
      <trkpt lat="44.93153" lon="5.11329">
        <ele>381.78</ele>
        <time>2017-08-22T13:20:48Z</time>
      </trkpt>
      <trkpt lat="44.93159" lon="5.11328">
        <ele>382.26</ele>
        <time>2017-08-22T13:20:49Z</time>
      </trkpt>
      <trkpt lat="44.93165" lon="5.11327">
        <ele>382.74</ele>
        <time>2017-08-22T13:20:50Z</time>
      </trkpt>
      <trkpt lat="44.9317" lon="5.11326">
        <ele>382.74</ele>
        <time>2017-08-22T13:20:51Z</time>
      </trkpt>
      <trkpt lat="44.93246" lon="5.11317">
        <ele>382.26</ele>
        <time>2017-08-22T13:21:05Z</time>
      </trkpt>
      <trkpt lat="44.93294" lon="5.11316">
        <ele>379.86</ele>
        <time>2017-08-22T13:21:12Z</time>
      </trkpt>
      <trkpt lat="44.93301" lon="5.11314">
        <ele>379.38</ele>
        <time>2017-08-22T13:21:13Z</time>
      </trkpt>
      <trkpt lat="44.93316" lon="5.1131">
        <ele>378.9</ele>
        <time>2017-08-22T13:21:15Z</time>
      </trkpt>
      <trkpt lat="44.93323" lon="5.11309">
        <ele>378.42</ele>
        <time>2017-08-22T13:21:16Z</time>
      </trkpt>
      <trkpt lat="44.93331" lon="5.1131">
        <ele>377.94</ele>
        <time>2017-08-22T13:21:17Z</time>
      </trkpt>
      <trkpt lat="44.9334" lon="5.11312">
        <ele>377.94</ele>
        <time>2017-08-22T13:21:18Z</time>
      </trkpt>
      <trkpt lat="44.93347" lon="5.11316">
        <ele>377.45</ele>
        <time>2017-08-22T13:21:19Z</time>
      </trkpt>
      <trkpt lat="44.93354" lon="5.11322">
        <ele>377.45</ele>
        <time>2017-08-22T13:21:20Z</time>
      </trkpt>
      <trkpt lat="44.93361" lon="5.11327">
        <ele>377.94</ele>
        <time>2017-08-22T13:21:21Z</time>
      </trkpt>
      <trkpt lat="44.93409" lon="5.11372">
        <ele>380.82</ele>
        <time>2017-08-22T13:21:30Z</time>
      </trkpt>
      <trkpt lat="44.93463" lon="5.11415">
        <ele>382.74</ele>
        <time>2017-08-22T13:21:44Z</time>
      </trkpt>
      <trkpt lat="44.93515" lon="5.11446">
        <ele>386.11</ele>
        <time>2017-08-22T13:22:00Z</time>
      </trkpt>
      <trkpt lat="44.93524" lon="5.11449">
        <ele>387.07</ele>
        <time>2017-08-22T13:22:03Z</time>
      </trkpt>
      <trkpt lat="44.93559" lon="5.11459">
        <ele>388.99</ele>
        <time>2017-08-22T13:22:14Z</time>
      </trkpt>
      <trkpt lat="44.9361" lon="5.11493">
        <ele>385.63</ele>
        <time>2017-08-22T13:22:26Z</time>
      </trkpt>
      <trkpt lat="44.93615" lon="5.11499">
        <ele>385.63</ele>
        <time>2017-08-22T13:22:27Z</time>
      </trkpt>
      <trkpt lat="44.9365" lon="5.11546">
        <ele>382.26</ele>
        <time>2017-08-22T13:22:33Z</time>
      </trkpt>
      <trkpt lat="44.93657" lon="5.11553">
        <ele>381.3</ele>
        <time>2017-08-22T13:22:34Z</time>
      </trkpt>
      <trkpt lat="44.93665" lon="5.1156">
        <ele>380.82</ele>
        <time>2017-08-22T13:22:35Z</time>
      </trkpt>
      <trkpt lat="44.93673" lon="5.11564">
        <ele>379.86</ele>
        <time>2017-08-22T13:22:36Z</time>
      </trkpt>
      <trkpt lat="44.93759" lon="5.11613">
        <ele>378.9</ele>
        <time>2017-08-22T13:22:47Z</time>
      </trkpt>
      <trkpt lat="44.93766" lon="5.11615">
        <ele>378.9</ele>
        <time>2017-08-22T13:22:48Z</time>
      </trkpt>
      <trkpt lat="44.93772" lon="5.11617">
        <ele>379.86</ele>
        <time>2017-08-22T13:22:49Z</time>
      </trkpt>
      <trkpt lat="44.93792" lon="5.11619">
        <ele>381.78</ele>
        <time>2017-08-22T13:22:53Z</time>
      </trkpt>
      <trkpt lat="44.93814" lon="5.11623">
        <ele>384.18</ele>
        <time>2017-08-22T13:22:59Z</time>
      </trkpt>
      <trkpt lat="44.93839" lon="5.11631">
        <ele>386.11</ele>
        <time>2017-08-22T13:23:07Z</time>
      </trkpt>
      <trkpt lat="44.93867" lon="5.1164">
        <ele>388.99</ele>
        <time>2017-08-22T13:23:17Z</time>
      </trkpt>
      <trkpt lat="44.93911" lon="5.11668">
        <ele>389.95</ele>
        <time>2017-08-22T13:23:30Z</time>
      </trkpt>
      <trkpt lat="44.93928" lon="5.11679">
        <ele>390.43</ele>
        <time>2017-08-22T13:23:35Z</time>
      </trkpt>
      <trkpt lat="44.93997" lon="5.1173">
        <ele>388.51</ele>
        <time>2017-08-22T13:23:52Z</time>
      </trkpt>
      <trkpt lat="44.94012" lon="5.11742">
        <ele>388.51</ele>
        <time>2017-08-22T13:23:55Z</time>
      </trkpt>
      <trkpt lat="44.94015" lon="5.11748">
        <ele>388.03</ele>
        <time>2017-08-22T13:23:56Z</time>
      </trkpt>
      <trkpt lat="44.94018" lon="5.11756">
        <ele>388.03</ele>
        <time>2017-08-22T13:23:57Z</time>
      </trkpt>
      <trkpt lat="44.94027" lon="5.1178">
        <ele>387.55</ele>
        <time>2017-08-22T13:24:00Z</time>
      </trkpt>
      <trkpt lat="44.94031" lon="5.11788">
        <ele>387.07</ele>
        <time>2017-08-22T13:24:01Z</time>
      </trkpt>
      <trkpt lat="44.94036" lon="5.11795">
        <ele>386.11</ele>
        <time>2017-08-22T13:24:02Z</time>
      </trkpt>
      <trkpt lat="44.94042" lon="5.11802">
        <ele>385.63</ele>
        <time>2017-08-22T13:24:03Z</time>
      </trkpt>
      <trkpt lat="44.94048" lon="5.11807">
        <ele>385.15</ele>
        <time>2017-08-22T13:24:04Z</time>
      </trkpt>
      <trkpt lat="44.94055" lon="5.11811">
        <ele>384.66</ele>
        <time>2017-08-22T13:24:05Z</time>
      </trkpt>
      <trkpt lat="44.94063" lon="5.11815">
        <ele>384.18</ele>
        <time>2017-08-22T13:24:06Z</time>
      </trkpt>
      <trkpt lat="44.94145" lon="5.11846">
        <ele>383.7</ele>
        <time>2017-08-22T13:24:18Z</time>
      </trkpt>
      <trkpt lat="44.94235" lon="5.11889">
        <ele>382.74</ele>
        <time>2017-08-22T13:24:33Z</time>
      </trkpt>
      <trkpt lat="44.94302" lon="5.11913">
        <ele>381.78</ele>
        <time>2017-08-22T13:24:44Z</time>
      </trkpt>
      <trkpt lat="44.94309" lon="5.11913">
        <ele>381.3</ele>
        <time>2017-08-22T13:24:45Z</time>
      </trkpt>
      <trkpt lat="44.94337" lon="5.11911">
        <ele>380.34</ele>
        <time>2017-08-22T13:24:49Z</time>
      </trkpt>
      <trkpt lat="44.94382" lon="5.11902">
        <ele>376.97</ele>
        <time>2017-08-22T13:24:55Z</time>
      </trkpt>
      <trkpt lat="44.9439" lon="5.11901">
        <ele>376.97</ele>
        <time>2017-08-22T13:24:56Z</time>
      </trkpt>
      <trkpt lat="44.94407" lon="5.11901">
        <ele>375.53</ele>
        <time>2017-08-22T13:24:58Z</time>
      </trkpt>
      <trkpt lat="44.94459" lon="5.11909">
        <ele>376.01</ele>
        <time>2017-08-22T13:25:05Z</time>
      </trkpt>
      <trkpt lat="44.94466" lon="5.11913">
        <ele>376.01</ele>
        <time>2017-08-22T13:25:06Z</time>
      </trkpt>
      <trkpt lat="44.94473" lon="5.11918">
        <ele>376.01</ele>
        <time>2017-08-22T13:25:07Z</time>
      </trkpt>
      <trkpt lat="44.94541" lon="5.11965">
        <ele>378.42</ele>
        <time>2017-08-22T13:25:18Z</time>
      </trkpt>
      <trkpt lat="44.9457" lon="5.11971">
        <ele>379.86</ele>
        <time>2017-08-22T13:25:26Z</time>
      </trkpt>
      <trkpt lat="44.94578" lon="5.11974">
        <ele>379.86</ele>
        <time>2017-08-22T13:25:28Z</time>
      </trkpt>
      <trkpt lat="44.94589" lon="5.11976">
        <ele>379.86</ele>
        <time>2017-08-22T13:25:31Z</time>
      </trkpt>
      <trkpt lat="44.94658" lon="5.12007">
        <ele>380.34</ele>
        <time>2017-08-22T13:25:46Z</time>
      </trkpt>
      <trkpt lat="44.9473" lon="5.12035">
        <ele>382.74</ele>
        <time>2017-08-22T13:26:03Z</time>
      </trkpt>
      <trkpt lat="44.94806" lon="5.12067">
        <ele>381.3</ele>
        <time>2017-08-22T13:26:19Z</time>
      </trkpt>
      <trkpt lat="44.94876" lon="5.12104">
        <ele>380.82</ele>
        <time>2017-08-22T13:26:31Z</time>
      </trkpt>
      <trkpt lat="44.94936" lon="5.12169">
        <ele>382.26</ele>
        <time>2017-08-22T13:26:44Z</time>
      </trkpt>
      <trkpt lat="44.94993" lon="5.12247">
        <ele>385.15</ele>
        <time>2017-08-22T13:27:00Z</time>
      </trkpt>
      <trkpt lat="44.95047" lon="5.12308">
        <ele>388.51</ele>
        <time>2017-08-22T13:27:16Z</time>
      </trkpt>
      <trkpt lat="44.95074" lon="5.12341">
        <ele>389.47</ele>
        <time>2017-08-22T13:27:24Z</time>
      </trkpt>
      <trkpt lat="44.95132" lon="5.124">
        <ele>390.91</ele>
        <time>2017-08-22T13:27:40Z</time>
      </trkpt>
      <trkpt lat="44.9515" lon="5.12416">
        <ele>391.39</ele>
        <time>2017-08-22T13:27:45Z</time>
      </trkpt>
      <trkpt lat="44.95204" lon="5.12444">
        <ele>393.32</ele>
        <time>2017-08-22T13:27:59Z</time>
      </trkpt>
      <trkpt lat="44.95276" lon="5.12474">
        <ele>394.28</ele>
        <time>2017-08-22T13:28:17Z</time>
      </trkpt>
      <trkpt lat="44.95307" lon="5.12497">
        <ele>395.24</ele>
        <time>2017-08-22T13:28:26Z</time>
      </trkpt>
      <trkpt lat="44.95309" lon="5.12502">
        <ele>395.24</ele>
        <time>2017-08-22T13:28:27Z</time>
      </trkpt>
      <trkpt lat="44.95311" lon="5.12507">
        <ele>395.24</ele>
        <time>2017-08-22T13:28:28Z</time>
      </trkpt>
      <trkpt lat="44.95311" lon="5.12513">
        <ele>395.24</ele>
        <time>2017-08-22T13:28:29Z</time>
      </trkpt>
      <trkpt lat="44.9531" lon="5.12519">
        <ele>394.76</ele>
        <time>2017-08-22T13:28:30Z</time>
      </trkpt>
      <trkpt lat="44.95309" lon="5.12524">
        <ele>395.24</ele>
        <time>2017-08-22T13:28:31Z</time>
      </trkpt>
      <trkpt lat="44.95307" lon="5.12529">
        <ele>395.24</ele>
        <time>2017-08-22T13:28:32Z</time>
      </trkpt>
      <trkpt lat="44.95305" lon="5.12533">
        <ele>395.72</ele>
        <time>2017-08-22T13:28:33Z</time>
      </trkpt>
      <trkpt lat="44.95303" lon="5.12537">
        <ele>395.72</ele>
        <time>2017-08-22T13:28:34Z</time>
      </trkpt>
      <trkpt lat="44.95279" lon="5.12601">
        <ele>397.64</ele>
        <time>2017-08-22T13:28:48Z</time>
      </trkpt>
      <trkpt lat="44.95273" lon="5.12641">
        <ele>399.08</ele>
        <time>2017-08-22T13:28:56Z</time>
      </trkpt>
      <trkpt lat="44.95274" lon="5.12646">
        <ele>399.08</ele>
        <time>2017-08-22T13:28:57Z</time>
      </trkpt>
      <trkpt lat="44.95276" lon="5.12651">
        <ele>399.08</ele>
        <time>2017-08-22T13:28:58Z</time>
      </trkpt>
      <trkpt lat="44.95278" lon="5.12656">
        <ele>399.57</ele>
        <time>2017-08-22T13:28:59Z</time>
      </trkpt>
      <trkpt lat="44.95281" lon="5.12659">
        <ele>399.57</ele>
        <time>2017-08-22T13:29:00Z</time>
      </trkpt>
      <trkpt lat="44.95284" lon="5.12662">
        <ele>399.57</ele>
        <time>2017-08-22T13:29:01Z</time>
      </trkpt>
      <trkpt lat="44.95288" lon="5.12665">
        <ele>399.57</ele>
        <time>2017-08-22T13:29:02Z</time>
      </trkpt>
      <trkpt lat="44.95338" lon="5.12712">
        <ele>401.49</ele>
        <time>2017-08-22T13:29:18Z</time>
      </trkpt>
      <trkpt lat="44.95358" lon="5.12762">
        <ele>401.49</ele>
        <time>2017-08-22T13:29:30Z</time>
      </trkpt>
      <trkpt lat="44.95361" lon="5.12812">
        <ele>403.41</ele>
        <time>2017-08-22T13:29:42Z</time>
      </trkpt>
      <trkpt lat="44.95359" lon="5.12866">
        <ele>405.33</ele>
        <time>2017-08-22T13:29:55Z</time>
      </trkpt>
      <trkpt lat="44.95363" lon="5.12917">
        <ele>406.29</ele>
        <time>2017-08-22T13:30:07Z</time>
      </trkpt>
      <trkpt lat="44.95342" lon="5.12976">
        <ele>406.77</ele>
        <time>2017-08-22T13:30:21Z</time>
      </trkpt>
      <trkpt lat="44.95329" lon="5.13041">
        <ele>406.77</ele>
        <time>2017-08-22T13:30:35Z</time>
      </trkpt>
      <trkpt lat="44.95336" lon="5.13089">
        <ele>409.18</ele>
        <time>2017-08-22T13:30:49Z</time>
      </trkpt>
      <trkpt lat="44.95349" lon="5.13134">
        <ele>411.58</ele>
        <time>2017-08-22T13:31:01Z</time>
      </trkpt>
      <trkpt lat="44.95361" lon="5.13176">
        <ele>413.5</ele>
        <time>2017-08-22T13:31:12Z</time>
      </trkpt>
      <trkpt lat="44.95365" lon="5.13238">
        <ele>414.95</ele>
        <time>2017-08-22T13:31:27Z</time>
      </trkpt>
      <trkpt lat="44.95366" lon="5.13305">
        <ele>416.87</ele>
        <time>2017-08-22T13:31:42Z</time>
      </trkpt>
      <trkpt lat="44.95372" lon="5.13372">
        <ele>419.27</ele>
        <time>2017-08-22T13:31:58Z</time>
      </trkpt>
      <trkpt lat="44.95371" lon="5.1344">
        <ele>421.68</ele>
        <time>2017-08-22T13:32:14Z</time>
      </trkpt>
      <trkpt lat="44.9536" lon="5.13512">
        <ele>423.6</ele>
        <time>2017-08-22T13:32:32Z</time>
      </trkpt>
      <trkpt lat="44.95356" lon="5.13581">
        <ele>426.48</ele>
        <time>2017-08-22T13:32:49Z</time>
      </trkpt>
      <trkpt lat="44.95352" lon="5.13646">
        <ele>428.89</ele>
        <time>2017-08-22T13:33:04Z</time>
      </trkpt>
      <trkpt lat="44.9535" lon="5.13718">
        <ele>430.81</ele>
        <time>2017-08-22T13:33:20Z</time>
      </trkpt>
      <trkpt lat="44.95351" lon="5.13796">
        <ele>432.73</ele>
        <time>2017-08-22T13:33:37Z</time>
      </trkpt>
      <trkpt lat="44.95355" lon="5.13861">
        <ele>434.65</ele>
        <time>2017-08-22T13:33:52Z</time>
      </trkpt>
      <trkpt lat="44.95355" lon="5.13896">
        <ele>435.61</ele>
        <time>2017-08-22T13:34:01Z</time>
      </trkpt>
      <trkpt lat="44.95353" lon="5.13899">
        <ele>435.61</ele>
        <time>2017-08-22T13:34:02Z</time>
      </trkpt>
      <trkpt lat="44.95352" lon="5.13901">
        <ele>435.61</ele>
        <time>2017-08-22T13:34:03Z</time>
      </trkpt>
      <trkpt lat="44.95352" lon="5.13903">
        <ele>436.1</ele>
        <time>2017-08-22T13:34:04Z</time>
      </trkpt>
      <trkpt lat="44.95353" lon="5.13905">
        <ele>436.1</ele>
        <time>2017-08-22T13:34:05Z</time>
      </trkpt>
      <trkpt lat="44.95354" lon="5.13907">
        <ele>436.1</ele>
        <time>2017-08-22T13:34:06Z</time>
      </trkpt>
      <trkpt lat="44.95356" lon="5.13907">
        <ele>436.1</ele>
        <time>2017-08-22T13:34:07Z</time>
      </trkpt>
      <trkpt lat="44.95357" lon="5.13905">
        <ele>436.1</ele>
        <time>2017-08-22T13:34:08Z</time>
      </trkpt>
      <trkpt lat="44.95358" lon="5.13902">
        <ele>435.61</ele>
        <time>2017-08-22T13:34:09Z</time>
      </trkpt>
      <trkpt lat="44.95358" lon="5.139">
        <ele>435.61</ele>
        <time>2017-08-22T13:34:10Z</time>
      </trkpt>
      <trkpt lat="44.95358" lon="5.13898">
        <ele>435.61</ele>
        <time>2017-08-22T13:34:11Z</time>
      </trkpt>
      <trkpt lat="44.95357" lon="5.13893">
        <ele>435.61</ele>
        <time>2017-08-22T13:34:14Z</time>
      </trkpt>
      <trkpt lat="44.95356" lon="5.13892">
        <ele>435.61</ele>
        <time>2017-08-22T13:34:15Z</time>
      </trkpt>
      <trkpt lat="44.95355" lon="5.13894">
        <ele>435.61</ele>
        <time>2017-08-22T13:34:16Z</time>
      </trkpt>
      <trkpt lat="44.95355" lon="5.13897">
        <ele>436.1</ele>
        <time>2017-08-22T13:34:17Z</time>
      </trkpt>
      <trkpt lat="44.95355" lon="5.13901">
        <ele>436.1</ele>
        <time>2017-08-22T13:34:18Z</time>
      </trkpt>
      <trkpt lat="44.95355" lon="5.13904">
        <ele>436.1</ele>
        <time>2017-08-22T13:34:19Z</time>
      </trkpt>
      <trkpt lat="44.95355" lon="5.13909">
        <ele>436.1</ele>
        <time>2017-08-22T13:34:20Z</time>
      </trkpt>
      <trkpt lat="44.95355" lon="5.13913">
        <ele>436.1</ele>
        <time>2017-08-22T13:34:21Z</time>
      </trkpt>
      <trkpt lat="44.95353" lon="5.13985">
        <ele>437.06</ele>
        <time>2017-08-22T13:34:36Z</time>
      </trkpt>
      <trkpt lat="44.95347" lon="5.14037">
        <ele>438.5</ele>
        <time>2017-08-22T13:34:47Z</time>
      </trkpt>
      <trkpt lat="44.95339" lon="5.14105">
        <ele>438.98</ele>
        <time>2017-08-22T13:35:02Z</time>
      </trkpt>
      <trkpt lat="44.95332" lon="5.14186">
        <ele>439.46</ele>
        <time>2017-08-22T13:35:18Z</time>
      </trkpt>
      <trkpt lat="44.95303" lon="5.14251">
        <ele>440.42</ele>
        <time>2017-08-22T13:35:33Z</time>
      </trkpt>
      <trkpt lat="44.95267" lon="5.14307">
        <ele>440.9</ele>
        <time>2017-08-22T13:35:48Z</time>
      </trkpt>
      <trkpt lat="44.95253" lon="5.14366">
        <ele>441.86</ele>
        <time>2017-08-22T13:36:01Z</time>
      </trkpt>
      <trkpt lat="44.95259" lon="5.14387">
        <ele>441.38</ele>
        <time>2017-08-22T13:36:05Z</time>
      </trkpt>
      <trkpt lat="44.95258" lon="5.14393">
        <ele>441.38</ele>
        <time>2017-08-22T13:36:06Z</time>
      </trkpt>
      <trkpt lat="44.95256" lon="5.14398">
        <ele>440.9</ele>
        <time>2017-08-22T13:36:07Z</time>
      </trkpt>
      <trkpt lat="44.95254" lon="5.14404">
        <ele>440.9</ele>
        <time>2017-08-22T13:36:08Z</time>
      </trkpt>
      <trkpt lat="44.9525" lon="5.14408">
        <ele>440.9</ele>
        <time>2017-08-22T13:36:09Z</time>
      </trkpt>
      <trkpt lat="44.95247" lon="5.14412">
        <ele>441.38</ele>
        <time>2017-08-22T13:36:10Z</time>
      </trkpt>
      <trkpt lat="44.95243" lon="5.14414">
        <ele>440.9</ele>
        <time>2017-08-22T13:36:11Z</time>
      </trkpt>
      <trkpt lat="44.95238" lon="5.14416">
        <ele>440.9</ele>
        <time>2017-08-22T13:36:12Z</time>
      </trkpt>
      <trkpt lat="44.95233" lon="5.14416">
        <ele>440.9</ele>
        <time>2017-08-22T13:36:13Z</time>
      </trkpt>
      <trkpt lat="44.95229" lon="5.14416">
        <ele>440.9</ele>
        <time>2017-08-22T13:36:14Z</time>
      </trkpt>
      <trkpt lat="44.95225" lon="5.14416">
        <ele>440.9</ele>
        <time>2017-08-22T13:36:15Z</time>
      </trkpt>
      <trkpt lat="44.9522" lon="5.14417">
        <ele>441.38</ele>
        <time>2017-08-22T13:36:16Z</time>
      </trkpt>
      <trkpt lat="44.95216" lon="5.14419">
        <ele>440.9</ele>
        <time>2017-08-22T13:36:17Z</time>
      </trkpt>
      <trkpt lat="44.95211" lon="5.14421">
        <ele>441.38</ele>
        <time>2017-08-22T13:36:18Z</time>
      </trkpt>
      <trkpt lat="44.95207" lon="5.14424">
        <ele>440.9</ele>
        <time>2017-08-22T13:36:19Z</time>
      </trkpt>
      <trkpt lat="44.95204" lon="5.14428">
        <ele>440.9</ele>
        <time>2017-08-22T13:36:20Z</time>
      </trkpt>
      <trkpt lat="44.95201" lon="5.14433">
        <ele>440.42</ele>
        <time>2017-08-22T13:36:21Z</time>
      </trkpt>
      <trkpt lat="44.95197" lon="5.14437">
        <ele>440.42</ele>
        <time>2017-08-22T13:36:22Z</time>
      </trkpt>
      <trkpt lat="44.95194" lon="5.14441">
        <ele>440.42</ele>
        <time>2017-08-22T13:36:23Z</time>
      </trkpt>
      <trkpt lat="44.95185" lon="5.14454">
        <ele>440.42</ele>
        <time>2017-08-22T13:36:26Z</time>
      </trkpt>
      <trkpt lat="44.95179" lon="5.14463">
        <ele>440.9</ele>
        <time>2017-08-22T13:36:28Z</time>
      </trkpt>
      <trkpt lat="44.95176" lon="5.14467">
        <ele>440.9</ele>
        <time>2017-08-22T13:36:29Z</time>
      </trkpt>
      <trkpt lat="44.95145" lon="5.14522">
        <ele>441.86</ele>
        <time>2017-08-22T13:36:42Z</time>
      </trkpt>
      <trkpt lat="44.95118" lon="5.14562">
        <ele>444.75</ele>
        <time>2017-08-22T13:36:55Z</time>
      </trkpt>
      <trkpt lat="44.95088" lon="5.14583">
        <ele>447.15</ele>
        <time>2017-08-22T13:37:09Z</time>
      </trkpt>
      <trkpt lat="44.9506" lon="5.14597">
        <ele>450.03</ele>
        <time>2017-08-22T13:37:23Z</time>
      </trkpt>
      <trkpt lat="44.95029" lon="5.14612">
        <ele>452.44</ele>
        <time>2017-08-22T13:37:38Z</time>
      </trkpt>
      <trkpt lat="44.95" lon="5.14628">
        <ele>454.84</ele>
        <time>2017-08-22T13:37:53Z</time>
      </trkpt>
      <trkpt lat="44.9497" lon="5.14653">
        <ele>457.24</ele>
        <time>2017-08-22T13:38:08Z</time>
      </trkpt>
      <trkpt lat="44.9494" lon="5.1468">
        <ele>459.17</ele>
        <time>2017-08-22T13:38:23Z</time>
      </trkpt>
      <trkpt lat="44.94907" lon="5.14709">
        <ele>461.57</ele>
        <time>2017-08-22T13:38:39Z</time>
      </trkpt>
      <trkpt lat="44.94865" lon="5.14723">
        <ele>463.01</ele>
        <time>2017-08-22T13:38:56Z</time>
      </trkpt>
      <trkpt lat="44.94825" lon="5.14741">
        <ele>465.9</ele>
        <time>2017-08-22T13:39:14Z</time>
      </trkpt>
      <trkpt lat="44.94803" lon="5.14764">
        <ele>467.34</ele>
        <time>2017-08-22T13:39:28Z</time>
      </trkpt>
      <trkpt lat="44.94803" lon="5.14766">
        <ele>467.34</ele>
        <time>2017-08-22T13:39:29Z</time>
      </trkpt>
      <trkpt lat="44.94804" lon="5.14763">
        <ele>467.82</ele>
        <time>2017-08-22T13:39:36Z</time>
      </trkpt>
      <trkpt lat="44.94803" lon="5.14764">
        <ele>467.82</ele>
        <time>2017-08-22T13:39:37Z</time>
      </trkpt>
      <trkpt lat="44.94804" lon="5.14765">
        <ele>467.82</ele>
        <time>2017-08-22T13:39:39Z</time>
      </trkpt>
      <trkpt lat="44.94807" lon="5.14757">
        <ele>467.34</ele>
        <time>2017-08-22T13:39:48Z</time>
      </trkpt>
      <trkpt lat="44.94805" lon="5.14759">
        <ele>467.34</ele>
        <time>2017-08-22T13:39:49Z</time>
      </trkpt>
      <trkpt lat="44.9478" lon="5.14787">
        <ele>469.26</ele>
        <time>2017-08-22T13:40:04Z</time>
      </trkpt>
      <trkpt lat="44.94759" lon="5.14809">
        <ele>470.7</ele>
        <time>2017-08-22T13:40:16Z</time>
      </trkpt>
      <trkpt lat="44.9473" lon="5.14824">
        <ele>472.63</ele>
        <time>2017-08-22T13:40:32Z</time>
      </trkpt>
      <trkpt lat="44.94697" lon="5.14828">
        <ele>475.03</ele>
        <time>2017-08-22T13:40:48Z</time>
      </trkpt>
      <trkpt lat="44.9467" lon="5.1483">
        <ele>476.47</ele>
        <time>2017-08-22T13:41:03Z</time>
      </trkpt>
      <trkpt lat="44.94658" lon="5.14832">
        <ele>477.43</ele>
        <time>2017-08-22T13:41:09Z</time>
      </trkpt>
      <trkpt lat="44.9463" lon="5.14854">
        <ele>479.84</ele>
        <time>2017-08-22T13:41:25Z</time>
      </trkpt>
      <trkpt lat="44.94607" lon="5.14882">
        <ele>482.24</ele>
        <time>2017-08-22T13:41:40Z</time>
      </trkpt>
      <trkpt lat="44.94586" lon="5.14915">
        <ele>483.68</ele>
        <time>2017-08-22T13:41:55Z</time>
      </trkpt>
      <trkpt lat="44.9458" lon="5.14923">
        <ele>484.16</ele>
        <time>2017-08-22T13:41:59Z</time>
      </trkpt>
      <trkpt lat="44.94571" lon="5.14933">
        <ele>484.64</ele>
        <time>2017-08-22T13:42:04Z</time>
      </trkpt>
      <trkpt lat="44.9455" lon="5.14969">
        <ele>486.08</ele>
        <time>2017-08-22T13:42:19Z</time>
      </trkpt>
      <trkpt lat="44.9453" lon="5.15002">
        <ele>487.53</ele>
        <time>2017-08-22T13:42:32Z</time>
      </trkpt>
      <trkpt lat="44.94508" lon="5.15041">
        <ele>489.45</ele>
        <time>2017-08-22T13:42:49Z</time>
      </trkpt>
      <trkpt lat="44.9449" lon="5.15067">
        <ele>490.89</ele>
        <time>2017-08-22T13:43:02Z</time>
      </trkpt>
      <trkpt lat="44.94476" lon="5.15113">
        <ele>492.81</ele>
        <time>2017-08-22T13:43:19Z</time>
      </trkpt>
      <trkpt lat="44.94471" lon="5.15155">
        <ele>493.77</ele>
        <time>2017-08-22T13:43:34Z</time>
      </trkpt>
      <trkpt lat="44.94467" lon="5.1519">
        <ele>495.7</ele>
        <time>2017-08-22T13:43:47Z</time>
      </trkpt>
      <trkpt lat="44.94463" lon="5.15227">
        <ele>497.14</ele>
        <time>2017-08-22T13:44:00Z</time>
      </trkpt>
      <trkpt lat="44.94458" lon="5.15267">
        <ele>498.58</ele>
        <time>2017-08-22T13:44:14Z</time>
      </trkpt>
      <trkpt lat="44.94451" lon="5.15321">
        <ele>501.46</ele>
        <time>2017-08-22T13:44:33Z</time>
      </trkpt>
      <trkpt lat="44.94443" lon="5.15364">
        <ele>502.91</ele>
        <time>2017-08-22T13:44:48Z</time>
      </trkpt>
      <trkpt lat="44.94432" lon="5.15403">
        <ele>504.83</ele>
        <time>2017-08-22T13:45:02Z</time>
      </trkpt>
      <trkpt lat="44.94419" lon="5.15442">
        <ele>506.27</ele>
        <time>2017-08-22T13:45:16Z</time>
      </trkpt>
      <trkpt lat="44.94409" lon="5.1547">
        <ele>507.71</ele>
        <time>2017-08-22T13:45:27Z</time>
      </trkpt>
      <trkpt lat="44.9441" lon="5.1547">
        <ele>507.71</ele>
        <time>2017-08-22T13:45:35Z</time>
      </trkpt>
      <trkpt lat="44.94409" lon="5.15473">
        <ele>508.19</ele>
        <time>2017-08-22T13:45:36Z</time>
      </trkpt>
      <trkpt lat="44.94399" lon="5.15521">
        <ele>510.12</ele>
        <time>2017-08-22T13:45:53Z</time>
      </trkpt>
      <trkpt lat="44.94394" lon="5.15545">
        <ele>511.56</ele>
        <time>2017-08-22T13:46:03Z</time>
      </trkpt>
      <trkpt lat="44.94386" lon="5.15582">
        <ele>513.48</ele>
        <time>2017-08-22T13:46:17Z</time>
      </trkpt>
      <trkpt lat="44.94378" lon="5.15616">
        <ele>514.92</ele>
        <time>2017-08-22T13:46:31Z</time>
      </trkpt>
      <trkpt lat="44.94369" lon="5.15657">
        <ele>517.33</ele>
        <time>2017-08-22T13:46:47Z</time>
      </trkpt>
      <trkpt lat="44.9436" lon="5.15705">
        <ele>520.21</ele>
        <time>2017-08-22T13:47:05Z</time>
      </trkpt>
      <trkpt lat="44.9435" lon="5.15756">
        <ele>523.09</ele>
        <time>2017-08-22T13:47:24Z</time>
      </trkpt>
      <trkpt lat="44.9434" lon="5.158">
        <ele>525.98</ele>
        <time>2017-08-22T13:47:40Z</time>
      </trkpt>
      <trkpt lat="44.9433" lon="5.15846">
        <ele>528.38</ele>
        <time>2017-08-22T13:47:56Z</time>
      </trkpt>
      <trkpt lat="44.94319" lon="5.15891">
        <ele>530.79</ele>
        <time>2017-08-22T13:48:12Z</time>
      </trkpt>
      <trkpt lat="44.94309" lon="5.15936">
        <ele>533.19</ele>
        <time>2017-08-22T13:48:27Z</time>
      </trkpt>
      <trkpt lat="44.94301" lon="5.15972">
        <ele>534.63</ele>
        <time>2017-08-22T13:48:40Z</time>
      </trkpt>
      <trkpt lat="44.94292" lon="5.16017">
        <ele>536.55</ele>
        <time>2017-08-22T13:48:55Z</time>
      </trkpt>
      <trkpt lat="44.94283" lon="5.1606">
        <ele>537.99</ele>
        <time>2017-08-22T13:49:10Z</time>
      </trkpt>
      <trkpt lat="44.94268" lon="5.16102">
        <ele>539.92</ele>
        <time>2017-08-22T13:49:25Z</time>
      </trkpt>
      <trkpt lat="44.94252" lon="5.1615">
        <ele>541.84</ele>
        <time>2017-08-22T13:49:42Z</time>
      </trkpt>
      <trkpt lat="44.94234" lon="5.16196">
        <ele>543.76</ele>
        <time>2017-08-22T13:49:59Z</time>
      </trkpt>
      <trkpt lat="44.94211" lon="5.16224">
        <ele>544.72</ele>
        <time>2017-08-22T13:50:13Z</time>
      </trkpt>
      <trkpt lat="44.94193" lon="5.16219">
        <ele>545.69</ele>
        <time>2017-08-22T13:50:22Z</time>
      </trkpt>
      <trkpt lat="44.94188" lon="5.16192">
        <ele>547.13</ele>
        <time>2017-08-22T13:50:31Z</time>
      </trkpt>
      <trkpt lat="44.94187" lon="5.16149">
        <ele>549.05</ele>
        <time>2017-08-22T13:50:46Z</time>
      </trkpt>
      <trkpt lat="44.94185" lon="5.16118">
        <ele>550.01</ele>
        <time>2017-08-22T13:50:56Z</time>
      </trkpt>
      <trkpt lat="44.94184" lon="5.16102">
        <ele>550.49</ele>
        <time>2017-08-22T13:51:01Z</time>
      </trkpt>
      <trkpt lat="44.94185" lon="5.16054">
        <ele>552.41</ele>
        <time>2017-08-22T13:51:17Z</time>
      </trkpt>
      <trkpt lat="44.94182" lon="5.16014">
        <ele>554.34</ele>
        <time>2017-08-22T13:51:30Z</time>
      </trkpt>
      <trkpt lat="44.94175" lon="5.1598">
        <ele>556.26</ele>
        <time>2017-08-22T13:51:42Z</time>
      </trkpt>
      <trkpt lat="44.94169" lon="5.15953">
        <ele>558.18</ele>
        <time>2017-08-22T13:51:55Z</time>
      </trkpt>
      <trkpt lat="44.94167" lon="5.15945">
        <ele>558.66</ele>
        <time>2017-08-22T13:51:58Z</time>
      </trkpt>
      <trkpt lat="44.94166" lon="5.15939">
        <ele>559.14</ele>
        <time>2017-08-22T13:52:00Z</time>
      </trkpt>
      <trkpt lat="44.94159" lon="5.15914">
        <ele>560.59</ele>
        <time>2017-08-22T13:52:10Z</time>
      </trkpt>
      <trkpt lat="44.94158" lon="5.15873">
        <ele>562.99</ele>
        <time>2017-08-22T13:52:25Z</time>
      </trkpt>
      <trkpt lat="44.94159" lon="5.15852">
        <ele>563.95</ele>
        <time>2017-08-22T13:52:33Z</time>
      </trkpt>
      <trkpt lat="44.94159" lon="5.15854">
        <ele>563.95</ele>
        <time>2017-08-22T13:52:42Z</time>
      </trkpt>
      <trkpt lat="44.9416" lon="5.15853">
        <ele>564.43</ele>
        <time>2017-08-22T13:52:52Z</time>
      </trkpt>
      <trkpt lat="44.9416" lon="5.15853">
        <ele>564.43</ele>
        <time>2017-08-22T13:53:17Z</time>
      </trkpt>
      <trkpt lat="44.9416" lon="5.15854">
        <ele>564.43</ele>
        <time>2017-08-22T13:53:36Z</time>
      </trkpt>
      <trkpt lat="44.94159" lon="5.15853">
        <ele>564.43</ele>
        <time>2017-08-22T13:53:57Z</time>
      </trkpt>
      <trkpt lat="44.94155" lon="5.15813">
        <ele>566.35</ele>
        <time>2017-08-22T13:54:13Z</time>
      </trkpt>
      <trkpt lat="44.94136" lon="5.15782">
        <ele>568.76</ele>
        <time>2017-08-22T13:54:28Z</time>
      </trkpt>
      <trkpt lat="44.9411" lon="5.1576">
        <ele>571.64</ele>
        <time>2017-08-22T13:54:44Z</time>
      </trkpt>
      <trkpt lat="44.94082" lon="5.15735">
        <ele>574.04</ele>
        <time>2017-08-22T13:55:01Z</time>
      </trkpt>
      <trkpt lat="44.9406" lon="5.15713">
        <ele>575.49</ele>
        <time>2017-08-22T13:55:15Z</time>
      </trkpt>
      <trkpt lat="44.94033" lon="5.15686">
        <ele>577.89</ele>
        <time>2017-08-22T13:55:31Z</time>
      </trkpt>
      <trkpt lat="44.94003" lon="5.1566">
        <ele>579.33</ele>
        <time>2017-08-22T13:55:48Z</time>
      </trkpt>
      <trkpt lat="44.93967" lon="5.15626">
        <ele>581.73</ele>
        <time>2017-08-22T13:56:08Z</time>
      </trkpt>
      <trkpt lat="44.93931" lon="5.15594">
        <ele>583.18</ele>
        <time>2017-08-22T13:56:26Z</time>
      </trkpt>
      <trkpt lat="44.93925" lon="5.15593">
        <ele>583.66</ele>
        <time>2017-08-22T13:56:29Z</time>
      </trkpt>
      <trkpt lat="44.93921" lon="5.15616">
        <ele>585.1</ele>
        <time>2017-08-22T13:56:39Z</time>
      </trkpt>
      <trkpt lat="44.93927" lon="5.1562">
        <ele>585.1</ele>
        <time>2017-08-22T13:56:42Z</time>
      </trkpt>
      <trkpt lat="44.93958" lon="5.15645">
        <ele>587.02</ele>
        <time>2017-08-22T13:56:58Z</time>
      </trkpt>
      <trkpt lat="44.93989" lon="5.15683">
        <ele>589.43</ele>
        <time>2017-08-22T13:57:17Z</time>
      </trkpt>
      <trkpt lat="44.94009" lon="5.15719">
        <ele>591.35</ele>
        <time>2017-08-22T13:57:32Z</time>
      </trkpt>
      <trkpt lat="44.9403" lon="5.15762">
        <ele>593.27</ele>
        <time>2017-08-22T13:57:48Z</time>
      </trkpt>
      <trkpt lat="44.94042" lon="5.15793">
        <ele>594.23</ele>
        <time>2017-08-22T13:57:59Z</time>
      </trkpt>
      <trkpt lat="44.94043" lon="5.15804">
        <ele>595.19</ele>
        <time>2017-08-22T13:58:03Z</time>
      </trkpt>
      <trkpt lat="44.94044" lon="5.15812">
        <ele>595.67</ele>
        <time>2017-08-22T13:58:07Z</time>
      </trkpt>
      <trkpt lat="44.94043" lon="5.15816">
        <ele>595.67</ele>
        <time>2017-08-22T13:58:09Z</time>
      </trkpt>
      <trkpt lat="44.94046" lon="5.1583">
        <ele>596.64</ele>
        <time>2017-08-22T13:58:14Z</time>
      </trkpt>
      <trkpt lat="44.94048" lon="5.15843">
        <ele>597.12</ele>
        <time>2017-08-22T13:58:19Z</time>
      </trkpt>
      <trkpt lat="44.94051" lon="5.15889">
        <ele>598.56</ele>
        <time>2017-08-22T13:58:34Z</time>
      </trkpt>
      <trkpt lat="44.94045" lon="5.1589">
        <ele>599.52</ele>
        <time>2017-08-22T13:58:38Z</time>
      </trkpt>
      <trkpt lat="44.94041" lon="5.15856">
        <ele>600.96</ele>
        <time>2017-08-22T13:58:51Z</time>
      </trkpt>
      <trkpt lat="44.94038" lon="5.15845">
        <ele>601.44</ele>
        <time>2017-08-22T13:58:55Z</time>
      </trkpt>
      <trkpt lat="44.94034" lon="5.15824">
        <ele>602.4</ele>
        <time>2017-08-22T13:59:03Z</time>
      </trkpt>
      <trkpt lat="44.94031" lon="5.15815">
        <ele>603.36</ele>
        <time>2017-08-22T13:59:07Z</time>
      </trkpt>
      <trkpt lat="44.94019" lon="5.15781">
        <ele>604.33</ele>
        <time>2017-08-22T13:59:21Z</time>
      </trkpt>
      <trkpt lat="44.94001" lon="5.15751">
        <ele>606.73</ele>
        <time>2017-08-22T13:59:36Z</time>
      </trkpt>
      <trkpt lat="44.93994" lon="5.15744">
        <ele>607.69</ele>
        <time>2017-08-22T13:59:41Z</time>
      </trkpt>
      <trkpt lat="44.93986" lon="5.15736">
        <ele>608.65</ele>
        <time>2017-08-22T13:59:47Z</time>
      </trkpt>
      <trkpt lat="44.93972" lon="5.15727">
        <ele>610.09</ele>
        <time>2017-08-22T13:59:57Z</time>
      </trkpt>
      <trkpt lat="44.9397" lon="5.15726">
        <ele>610.57</ele>
        <time>2017-08-22T13:59:59Z</time>
      </trkpt>
      <trkpt lat="44.93951" lon="5.15718">
        <ele>612.02</ele>
        <time>2017-08-22T14:00:11Z</time>
      </trkpt>
      <trkpt lat="44.93923" lon="5.15704">
        <ele>613.94</ele>
        <time>2017-08-22T14:00:25Z</time>
      </trkpt>
      <trkpt lat="44.93896" lon="5.15695">
        <ele>615.86</ele>
        <time>2017-08-22T14:00:40Z</time>
      </trkpt>
      <trkpt lat="44.93868" lon="5.15688">
        <ele>618.26</ele>
        <time>2017-08-22T14:00:57Z</time>
      </trkpt>
      <trkpt lat="44.9384" lon="5.15684">
        <ele>620.67</ele>
        <time>2017-08-22T14:01:12Z</time>
      </trkpt>
      <trkpt lat="44.93807" lon="5.15684">
        <ele>623.07</ele>
        <time>2017-08-22T14:01:30Z</time>
      </trkpt>
      <trkpt lat="44.93785" lon="5.15684">
        <ele>624.99</ele>
        <time>2017-08-22T14:01:44Z</time>
      </trkpt>
      <trkpt lat="44.93777" lon="5.15685">
        <ele>625.47</ele>
        <time>2017-08-22T14:01:48Z</time>
      </trkpt>
      <trkpt lat="44.93766" lon="5.15683">
        <ele>626.44</ele>
        <time>2017-08-22T14:01:54Z</time>
      </trkpt>
      <trkpt lat="44.93738" lon="5.15694">
        <ele>628.84</ele>
        <time>2017-08-22T14:02:09Z</time>
      </trkpt>
      <trkpt lat="44.93721" lon="5.15725">
        <ele>630.76</ele>
        <time>2017-08-22T14:02:24Z</time>
      </trkpt>
      <trkpt lat="44.93706" lon="5.15759">
        <ele>633.17</ele>
        <time>2017-08-22T14:02:40Z</time>
      </trkpt>
      <trkpt lat="44.9371" lon="5.15773">
        <ele>633.65</ele>
        <time>2017-08-22T14:02:46Z</time>
      </trkpt>
      <trkpt lat="44.9372" lon="5.15771">
        <ele>634.13</ele>
        <time>2017-08-22T14:02:51Z</time>
      </trkpt>
      <trkpt lat="44.93739" lon="5.15735">
        <ele>635.57</ele>
        <time>2017-08-22T14:03:06Z</time>
      </trkpt>
      <trkpt lat="44.93756" lon="5.15725">
        <ele>637.01</ele>
        <time>2017-08-22T14:03:16Z</time>
      </trkpt>
      <trkpt lat="44.93779" lon="5.15726">
        <ele>638.93</ele>
        <time>2017-08-22T14:03:29Z</time>
      </trkpt>
      <trkpt lat="44.93804" lon="5.15732">
        <ele>640.38</ele>
        <time>2017-08-22T14:03:43Z</time>
      </trkpt>
      <trkpt lat="44.93832" lon="5.15739">
        <ele>642.78</ele>
        <time>2017-08-22T14:03:58Z</time>
      </trkpt>
      <trkpt lat="44.9386" lon="5.15749">
        <ele>644.7</ele>
        <time>2017-08-22T14:04:13Z</time>
      </trkpt>
      <trkpt lat="44.93887" lon="5.15763">
        <ele>646.62</ele>
        <time>2017-08-22T14:04:28Z</time>
      </trkpt>
      <trkpt lat="44.93911" lon="5.15781">
        <ele>648.07</ele>
        <time>2017-08-22T14:04:42Z</time>
      </trkpt>
      <trkpt lat="44.93932" lon="5.158">
        <ele>649.99</ele>
        <time>2017-08-22T14:04:56Z</time>
      </trkpt>
      <trkpt lat="44.93939" lon="5.15815">
        <ele>651.43</ele>
        <time>2017-08-22T14:05:03Z</time>
      </trkpt>
      <trkpt lat="44.93942" lon="5.1583">
        <ele>651.91</ele>
        <time>2017-08-22T14:05:09Z</time>
      </trkpt>
      <trkpt lat="44.93938" lon="5.15853">
        <ele>652.87</ele>
        <time>2017-08-22T14:05:18Z</time>
      </trkpt>
      <trkpt lat="44.93939" lon="5.15862">
        <ele>653.35</ele>
        <time>2017-08-22T14:05:22Z</time>
      </trkpt>
      <trkpt lat="44.93938" lon="5.15867">
        <ele>653.35</ele>
        <time>2017-08-22T14:05:24Z</time>
      </trkpt>
      <trkpt lat="44.93937" lon="5.15883">
        <ele>654.8</ele>
        <time>2017-08-22T14:05:32Z</time>
      </trkpt>
      <trkpt lat="44.9394" lon="5.15906">
        <ele>655.76</ele>
        <time>2017-08-22T14:05:40Z</time>
      </trkpt>
      <trkpt lat="44.93943" lon="5.15947">
        <ele>657.2</ele>
        <time>2017-08-22T14:05:54Z</time>
      </trkpt>
      <trkpt lat="44.93943" lon="5.15951">
        <ele>657.2</ele>
        <time>2017-08-22T14:05:56Z</time>
      </trkpt>
      <trkpt lat="44.93942" lon="5.15963">
        <ele>657.68</ele>
        <time>2017-08-22T14:06:01Z</time>
      </trkpt>
      <trkpt lat="44.93947" lon="5.15981">
        <ele>658.64</ele>
        <time>2017-08-22T14:06:09Z</time>
      </trkpt>
      <trkpt lat="44.9395" lon="5.15996">
        <ele>659.6</ele>
        <time>2017-08-22T14:06:15Z</time>
      </trkpt>
      <trkpt lat="44.9395" lon="5.16005">
        <ele>660.08</ele>
        <time>2017-08-22T14:06:19Z</time>
      </trkpt>
      <trkpt lat="44.93951" lon="5.16014">
        <ele>660.56</ele>
        <time>2017-08-22T14:06:23Z</time>
      </trkpt>
      <trkpt lat="44.93951" lon="5.1602">
        <ele>661.04</ele>
        <time>2017-08-22T14:06:26Z</time>
      </trkpt>
      <trkpt lat="44.93953" lon="5.16035">
        <ele>661.52</ele>
        <time>2017-08-22T14:06:32Z</time>
      </trkpt>
      <trkpt lat="44.93957" lon="5.16049">
        <ele>662.49</ele>
        <time>2017-08-22T14:06:37Z</time>
      </trkpt>
      <trkpt lat="44.93959" lon="5.16058">
        <ele>662.49</ele>
        <time>2017-08-22T14:06:40Z</time>
      </trkpt>
      <trkpt lat="44.93958" lon="5.1607">
        <ele>663.45</ele>
        <time>2017-08-22T14:06:45Z</time>
      </trkpt>
      <trkpt lat="44.9396" lon="5.16085">
        <ele>663.93</ele>
        <time>2017-08-22T14:06:50Z</time>
      </trkpt>
      <trkpt lat="44.9396" lon="5.16118">
        <ele>665.37</ele>
        <time>2017-08-22T14:07:03Z</time>
      </trkpt>
      <trkpt lat="44.93964" lon="5.16147">
        <ele>666.81</ele>
        <time>2017-08-22T14:07:14Z</time>
      </trkpt>
      <trkpt lat="44.93971" lon="5.16186">
        <ele>668.73</ele>
        <time>2017-08-22T14:07:29Z</time>
      </trkpt>
      <trkpt lat="44.93971" lon="5.16197">
        <ele>668.73</ele>
        <time>2017-08-22T14:07:33Z</time>
      </trkpt>
      <trkpt lat="44.93963" lon="5.16199">
        <ele>669.7</ele>
        <time>2017-08-22T14:07:38Z</time>
      </trkpt>
      <trkpt lat="44.93952" lon="5.16162">
        <ele>670.66</ele>
        <time>2017-08-22T14:07:52Z</time>
      </trkpt>
      <trkpt lat="44.93947" lon="5.16145">
        <ele>671.62</ele>
        <time>2017-08-22T14:08:00Z</time>
      </trkpt>
      <trkpt lat="44.93944" lon="5.16119">
        <ele>673.06</ele>
        <time>2017-08-22T14:08:14Z</time>
      </trkpt>
      <trkpt lat="44.93941" lon="5.161">
        <ele>674.02</ele>
        <time>2017-08-22T14:08:24Z</time>
      </trkpt>
      <trkpt lat="44.9394" lon="5.16097">
        <ele>674.02</ele>
        <time>2017-08-22T14:08:25Z</time>
      </trkpt>
      <trkpt lat="44.93932" lon="5.16072">
        <ele>674.98</ele>
        <time>2017-08-22T14:08:33Z</time>
      </trkpt>
      <trkpt lat="44.93931" lon="5.16065">
        <ele>675.46</ele>
        <time>2017-08-22T14:08:36Z</time>
      </trkpt>
      <trkpt lat="44.93929" lon="5.16049">
        <ele>675.94</ele>
        <time>2017-08-22T14:08:43Z</time>
      </trkpt>
      <trkpt lat="44.93923" lon="5.16031">
        <ele>676.91</ele>
        <time>2017-08-22T14:08:51Z</time>
      </trkpt>
      <trkpt lat="44.93921" lon="5.16023">
        <ele>676.91</ele>
        <time>2017-08-22T14:08:53Z</time>
      </trkpt>
      <trkpt lat="44.93918" lon="5.16012">
        <ele>677.39</ele>
        <time>2017-08-22T14:08:57Z</time>
      </trkpt>
      <trkpt lat="44.93917" lon="5.16007">
        <ele>677.87</ele>
        <time>2017-08-22T14:08:59Z</time>
      </trkpt>
      <trkpt lat="44.93915" lon="5.15993">
        <ele>677.87</ele>
        <time>2017-08-22T14:09:03Z</time>
      </trkpt>
      <trkpt lat="44.93916" lon="5.15981">
        <ele>678.83</ele>
        <time>2017-08-22T14:09:08Z</time>
      </trkpt>
      <trkpt lat="44.93912" lon="5.15953">
        <ele>679.31</ele>
        <time>2017-08-22T14:09:17Z</time>
      </trkpt>
      <trkpt lat="44.93913" lon="5.15932">
        <ele>679.79</ele>
        <time>2017-08-22T14:09:24Z</time>
      </trkpt>
      <trkpt lat="44.93911" lon="5.15902">
        <ele>681.23</ele>
        <time>2017-08-22T14:09:35Z</time>
      </trkpt>
      <trkpt lat="44.93912" lon="5.15897">
        <ele>681.23</ele>
        <time>2017-08-22T14:09:37Z</time>
      </trkpt>
      <trkpt lat="44.93911" lon="5.15882">
        <ele>681.71</ele>
        <time>2017-08-22T14:09:43Z</time>
      </trkpt>
      <trkpt lat="44.939" lon="5.15852">
        <ele>684.12</ele>
        <time>2017-08-22T14:09:56Z</time>
      </trkpt>
      <trkpt lat="44.93893" lon="5.15849">
        <ele>684.6</ele>
        <time>2017-08-22T14:10:00Z</time>
      </trkpt>
      <trkpt lat="44.93867" lon="5.15849">
        <ele>686.04</ele>
        <time>2017-08-22T14:10:14Z</time>
      </trkpt>
      <trkpt lat="44.93841" lon="5.15858">
        <ele>687.48</ele>
        <time>2017-08-22T14:10:29Z</time>
      </trkpt>
      <trkpt lat="44.93829" lon="5.15863">
        <ele>689.4</ele>
        <time>2017-08-22T14:10:36Z</time>
      </trkpt>
      <trkpt lat="44.93813" lon="5.15892">
        <ele>690.36</ele>
        <time>2017-08-22T14:10:52Z</time>
      </trkpt>
      <trkpt lat="44.93825" lon="5.15898">
        <ele>690.84</ele>
        <time>2017-08-22T14:10:58Z</time>
      </trkpt>
      <trkpt lat="44.93855" lon="5.15877">
        <ele>691.81</ele>
        <time>2017-08-22T14:11:13Z</time>
      </trkpt>
      <trkpt lat="44.93882" lon="5.15887">
        <ele>693.73</ele>
        <time>2017-08-22T14:11:28Z</time>
      </trkpt>
      <trkpt lat="44.93887" lon="5.15934">
        <ele>695.65</ele>
        <time>2017-08-22T14:11:46Z</time>
      </trkpt>
      <trkpt lat="44.93881" lon="5.15966">
        <ele>697.09</ele>
        <time>2017-08-22T14:11:58Z</time>
      </trkpt>
      <trkpt lat="44.93878" lon="5.15989">
        <ele>698.05</ele>
        <time>2017-08-22T14:12:07Z</time>
      </trkpt>
      <trkpt lat="44.93878" lon="5.16004">
        <ele>699.02</ele>
        <time>2017-08-22T14:12:13Z</time>
      </trkpt>
      <trkpt lat="44.9388" lon="5.16027">
        <ele>699.98</ele>
        <time>2017-08-22T14:12:22Z</time>
      </trkpt>
      <trkpt lat="44.93886" lon="5.16065">
        <ele>701.42</ele>
        <time>2017-08-22T14:12:36Z</time>
      </trkpt>
      <trkpt lat="44.93886" lon="5.16084">
        <ele>701.9</ele>
        <time>2017-08-22T14:12:43Z</time>
      </trkpt>
      <trkpt lat="44.93886" lon="5.16097">
        <ele>702.38</ele>
        <time>2017-08-22T14:12:49Z</time>
      </trkpt>
      <trkpt lat="44.93884" lon="5.16111">
        <ele>702.86</ele>
        <time>2017-08-22T14:12:54Z</time>
      </trkpt>
      <trkpt lat="44.93885" lon="5.16139">
        <ele>703.82</ele>
        <time>2017-08-22T14:13:06Z</time>
      </trkpt>
      <trkpt lat="44.93884" lon="5.16143">
        <ele>704.3</ele>
        <time>2017-08-22T14:13:08Z</time>
      </trkpt>
      <trkpt lat="44.93878" lon="5.16177">
        <ele>705.75</ele>
        <time>2017-08-22T14:13:21Z</time>
      </trkpt>
      <trkpt lat="44.93877" lon="5.16183">
        <ele>705.75</ele>
        <time>2017-08-22T14:13:23Z</time>
      </trkpt>
      <trkpt lat="44.93865" lon="5.16217">
        <ele>707.67</ele>
        <time>2017-08-22T14:13:38Z</time>
      </trkpt>
      <trkpt lat="44.93852" lon="5.1625">
        <ele>708.63</ele>
        <time>2017-08-22T14:13:52Z</time>
      </trkpt>
      <trkpt lat="44.93833" lon="5.16286">
        <ele>710.55</ele>
        <time>2017-08-22T14:14:08Z</time>
      </trkpt>
      <trkpt lat="44.93805" lon="5.16298">
        <ele>711.99</ele>
        <time>2017-08-22T14:14:23Z</time>
      </trkpt>
      <trkpt lat="44.93771" lon="5.16294">
        <ele>713.92</ele>
        <time>2017-08-22T14:14:40Z</time>
      </trkpt>
      <trkpt lat="44.93763" lon="5.1629">
        <ele>714.4</ele>
        <time>2017-08-22T14:14:44Z</time>
      </trkpt>
      <trkpt lat="44.93772" lon="5.1628">
        <ele>715.36</ele>
        <time>2017-08-22T14:14:52Z</time>
      </trkpt>
      <trkpt lat="44.93805" lon="5.16289">
        <ele>716.8</ele>
        <time>2017-08-22T14:15:06Z</time>
      </trkpt>
      <trkpt lat="44.93827" lon="5.16268">
        <ele>718.72</ele>
        <time>2017-08-22T14:15:20Z</time>
      </trkpt>
      <trkpt lat="44.93837" lon="5.16235">
        <ele>719.68</ele>
        <time>2017-08-22T14:15:33Z</time>
      </trkpt>
      <trkpt lat="44.9384" lon="5.16221">
        <ele>720.16</ele>
        <time>2017-08-22T14:15:38Z</time>
      </trkpt>
      <trkpt lat="44.93843" lon="5.162">
        <ele>721.13</ele>
        <time>2017-08-22T14:15:46Z</time>
      </trkpt>
      <trkpt lat="44.93846" lon="5.16185">
        <ele>721.13</ele>
        <time>2017-08-22T14:15:52Z</time>
      </trkpt>
      <trkpt lat="44.93846" lon="5.16173">
        <ele>721.61</ele>
        <time>2017-08-22T14:15:56Z</time>
      </trkpt>
      <trkpt lat="44.93844" lon="5.1614">
        <ele>723.05</ele>
        <time>2017-08-22T14:16:07Z</time>
      </trkpt>
      <trkpt lat="44.93843" lon="5.16132">
        <ele>723.05</ele>
        <time>2017-08-22T14:16:10Z</time>
      </trkpt>
      <trkpt lat="44.93841" lon="5.16121">
        <ele>723.53</ele>
        <time>2017-08-22T14:16:14Z</time>
      </trkpt>
      <trkpt lat="44.93838" lon="5.161">
        <ele>724.49</ele>
        <time>2017-08-22T14:16:22Z</time>
      </trkpt>
      <trkpt lat="44.9383" lon="5.16064">
        <ele>725.45</ele>
        <time>2017-08-22T14:16:36Z</time>
      </trkpt>
      <trkpt lat="44.93816" lon="5.16028">
        <ele>727.37</ele>
        <time>2017-08-22T14:16:49Z</time>
      </trkpt>
      <trkpt lat="44.93789" lon="5.1603">
        <ele>728.82</ele>
        <time>2017-08-22T14:17:03Z</time>
      </trkpt>
      <trkpt lat="44.93765" lon="5.16049">
        <ele>730.26</ele>
        <time>2017-08-22T14:17:17Z</time>
      </trkpt>
      <trkpt lat="44.93751" lon="5.16061">
        <ele>731.22</ele>
        <time>2017-08-22T14:17:26Z</time>
      </trkpt>
      <trkpt lat="44.93742" lon="5.1607">
        <ele>731.7</ele>
        <time>2017-08-22T14:17:31Z</time>
      </trkpt>
      <trkpt lat="44.93719" lon="5.16093">
        <ele>733.14</ele>
        <time>2017-08-22T14:17:45Z</time>
      </trkpt>
      <trkpt lat="44.93692" lon="5.16115">
        <ele>734.58</ele>
        <time>2017-08-22T14:18:01Z</time>
      </trkpt>
      <trkpt lat="44.93669" lon="5.16128">
        <ele>736.51</ele>
        <time>2017-08-22T14:18:14Z</time>
      </trkpt>
      <trkpt lat="44.93639" lon="5.16131">
        <ele>737.47</ele>
        <time>2017-08-22T14:18:28Z</time>
      </trkpt>
      <trkpt lat="44.93608" lon="5.16134">
        <ele>739.39</ele>
        <time>2017-08-22T14:18:43Z</time>
      </trkpt>
      <trkpt lat="44.93585" lon="5.1616">
        <ele>740.83</ele>
        <time>2017-08-22T14:18:58Z</time>
      </trkpt>
      <trkpt lat="44.9356" lon="5.16199">
        <ele>743.24</ele>
        <time>2017-08-22T14:19:16Z</time>
      </trkpt>
      <trkpt lat="44.93537" lon="5.16223">
        <ele>744.68</ele>
        <time>2017-08-22T14:19:31Z</time>
      </trkpt>
      <trkpt lat="44.93518" lon="5.16234">
        <ele>745.64</ele>
        <time>2017-08-22T14:19:42Z</time>
      </trkpt>
      <trkpt lat="44.93491" lon="5.16241">
        <ele>747.56</ele>
        <time>2017-08-22T14:19:55Z</time>
      </trkpt>
      <trkpt lat="44.93478" lon="5.16271">
        <ele>749.49</ele>
        <time>2017-08-22T14:20:09Z</time>
      </trkpt>
      <trkpt lat="44.93488" lon="5.16314">
        <ele>750.93</ele>
        <time>2017-08-22T14:20:25Z</time>
      </trkpt>
      <trkpt lat="44.93497" lon="5.16359">
        <ele>753.33</ele>
        <time>2017-08-22T14:20:42Z</time>
      </trkpt>
      <trkpt lat="44.93501" lon="5.16397">
        <ele>754.29</ele>
        <time>2017-08-22T14:20:56Z</time>
      </trkpt>
      <trkpt lat="44.93499" lon="5.16439">
        <ele>756.21</ele>
        <time>2017-08-22T14:21:11Z</time>
      </trkpt>
      <trkpt lat="44.93496" lon="5.16469">
        <ele>757.18</ele>
        <time>2017-08-22T14:21:22Z</time>
      </trkpt>
      <trkpt lat="44.93489" lon="5.1649">
        <ele>758.62</ele>
        <time>2017-08-22T14:21:30Z</time>
      </trkpt>
      <trkpt lat="44.93471" lon="5.16523">
        <ele>760.06</ele>
        <time>2017-08-22T14:21:45Z</time>
      </trkpt>
      <trkpt lat="44.93446" lon="5.1655">
        <ele>761.98</ele>
        <time>2017-08-22T14:22:01Z</time>
      </trkpt>
      <trkpt lat="44.93428" lon="5.16571">
        <ele>763.42</ele>
        <time>2017-08-22T14:22:13Z</time>
      </trkpt>
      <trkpt lat="44.93424" lon="5.16581">
        <ele>763.9</ele>
        <time>2017-08-22T14:22:19Z</time>
      </trkpt>
      <trkpt lat="44.93425" lon="5.16594">
        <ele>764.39</ele>
        <time>2017-08-22T14:22:25Z</time>
      </trkpt>
      <trkpt lat="44.93429" lon="5.16632">
        <ele>766.31</ele>
        <time>2017-08-22T14:22:40Z</time>
      </trkpt>
      <trkpt lat="44.93431" lon="5.1667">
        <ele>767.75</ele>
        <time>2017-08-22T14:22:55Z</time>
      </trkpt>
      <trkpt lat="44.93425" lon="5.16709">
        <ele>769.19</ele>
        <time>2017-08-22T14:23:10Z</time>
      </trkpt>
      <trkpt lat="44.93416" lon="5.16753">
        <ele>771.6</ele>
        <time>2017-08-22T14:23:27Z</time>
      </trkpt>
      <trkpt lat="44.93428" lon="5.16796">
        <ele>773.04</ele>
        <time>2017-08-22T14:23:43Z</time>
      </trkpt>
      <trkpt lat="44.93429" lon="5.16841">
        <ele>774.96</ele>
        <time>2017-08-22T14:24:00Z</time>
      </trkpt>
      <trkpt lat="44.93429" lon="5.16846">
        <ele>775.44</ele>
        <time>2017-08-22T14:24:02Z</time>
      </trkpt>
      <trkpt lat="44.93419" lon="5.16886">
        <ele>776.88</ele>
        <time>2017-08-22T14:24:18Z</time>
      </trkpt>
      <trkpt lat="44.93409" lon="5.16926">
        <ele>779.29</ele>
        <time>2017-08-22T14:24:34Z</time>
      </trkpt>
      <trkpt lat="44.93398" lon="5.16972">
        <ele>781.69</ele>
        <time>2017-08-22T14:24:52Z</time>
      </trkpt>
      <trkpt lat="44.93388" lon="5.17011">
        <ele>783.13</ele>
        <time>2017-08-22T14:25:08Z</time>
      </trkpt>
      <trkpt lat="44.93379" lon="5.17049">
        <ele>785.53</ele>
        <time>2017-08-22T14:25:23Z</time>
      </trkpt>
      <trkpt lat="44.93366" lon="5.17088">
        <ele>787.46</ele>
        <time>2017-08-22T14:25:39Z</time>
      </trkpt>
      <trkpt lat="44.93344" lon="5.17103">
        <ele>788.9</ele>
        <time>2017-08-22T14:25:52Z</time>
      </trkpt>
      <trkpt lat="44.93314" lon="5.1709">
        <ele>790.82</ele>
        <time>2017-08-22T14:26:07Z</time>
      </trkpt>
      <trkpt lat="44.9329" lon="5.17089">
        <ele>792.74</ele>
        <time>2017-08-22T14:26:19Z</time>
      </trkpt>
      <trkpt lat="44.93272" lon="5.17126">
        <ele>795.15</ele>
        <time>2017-08-22T14:26:35Z</time>
      </trkpt>
      <trkpt lat="44.93253" lon="5.17165">
        <ele>798.03</ele>
        <time>2017-08-22T14:26:53Z</time>
      </trkpt>
      <trkpt lat="44.93242" lon="5.17201">
        <ele>800.44</ele>
        <time>2017-08-22T14:27:08Z</time>
      </trkpt>
      <trkpt lat="44.93233" lon="5.17243">
        <ele>802.84</ele>
        <time>2017-08-22T14:27:24Z</time>
      </trkpt>
      <trkpt lat="44.93227" lon="5.17274">
        <ele>804.76</ele>
        <time>2017-08-22T14:27:37Z</time>
      </trkpt>
      <trkpt lat="44.93223" lon="5.17289">
        <ele>805.72</ele>
        <time>2017-08-22T14:27:43Z</time>
      </trkpt>
      <trkpt lat="44.93227" lon="5.1729">
        <ele>805.72</ele>
        <time>2017-08-22T14:27:48Z</time>
      </trkpt>
      <trkpt lat="44.93226" lon="5.17285">
        <ele>805.72</ele>
        <time>2017-08-22T14:27:51Z</time>
      </trkpt>
      <trkpt lat="44.93226" lon="5.1729">
        <ele>806.2</ele>
        <time>2017-08-22T14:27:57Z</time>
      </trkpt>
      <trkpt lat="44.93227" lon="5.17285">
        <ele>805.72</ele>
        <time>2017-08-22T14:28:01Z</time>
      </trkpt>
      <trkpt lat="44.93225" lon="5.17291">
        <ele>806.2</ele>
        <time>2017-08-22T14:28:07Z</time>
      </trkpt>
      <trkpt lat="44.93225" lon="5.17287">
        <ele>806.2</ele>
        <time>2017-08-22T14:28:16Z</time>
      </trkpt>
      <trkpt lat="44.93227" lon="5.17287">
        <ele>806.2</ele>
        <time>2017-08-22T14:28:19Z</time>
      </trkpt>
      <trkpt lat="44.93224" lon="5.17287">
        <ele>805.72</ele>
        <time>2017-08-22T14:28:26Z</time>
      </trkpt>
      <trkpt lat="44.93218" lon="5.17314">
        <ele>807.16</ele>
        <time>2017-08-22T14:28:38Z</time>
      </trkpt>
      <trkpt lat="44.93213" lon="5.17338">
        <ele>808.61</ele>
        <time>2017-08-22T14:28:49Z</time>
      </trkpt>
      <trkpt lat="44.93199" lon="5.17365">
        <ele>810.05</ele>
        <time>2017-08-22T14:29:03Z</time>
      </trkpt>
      <trkpt lat="44.93176" lon="5.17377">
        <ele>811.49</ele>
        <time>2017-08-22T14:29:17Z</time>
      </trkpt>
      <trkpt lat="44.9315" lon="5.17383">
        <ele>813.89</ele>
        <time>2017-08-22T14:29:32Z</time>
      </trkpt>
      <trkpt lat="44.93129" lon="5.17394">
        <ele>815.82</ele>
        <time>2017-08-22T14:29:45Z</time>
      </trkpt>
      <trkpt lat="44.93113" lon="5.17425">
        <ele>817.74</ele>
        <time>2017-08-22T14:30:02Z</time>
      </trkpt>
      <trkpt lat="44.931" lon="5.17462">
        <ele>819.66</ele>
        <time>2017-08-22T14:30:19Z</time>
      </trkpt>
      <trkpt lat="44.93083" lon="5.17493">
        <ele>822.06</ele>
        <time>2017-08-22T14:30:35Z</time>
      </trkpt>
      <trkpt lat="44.93061" lon="5.1752">
        <ele>823.99</ele>
        <time>2017-08-22T14:30:51Z</time>
      </trkpt>
      <trkpt lat="44.93037" lon="5.1755">
        <ele>825.91</ele>
        <time>2017-08-22T14:31:09Z</time>
      </trkpt>
      <trkpt lat="44.93034" lon="5.17554">
        <ele>826.39</ele>
        <time>2017-08-22T14:31:12Z</time>
      </trkpt>
      <trkpt lat="44.93029" lon="5.17558">
        <ele>826.39</ele>
        <time>2017-08-22T14:31:15Z</time>
      </trkpt>
      <trkpt lat="44.93035" lon="5.17558">
        <ele>826.87</ele>
        <time>2017-08-22T14:31:23Z</time>
      </trkpt>
      <trkpt lat="44.93035" lon="5.17554">
        <ele>826.39</ele>
        <time>2017-08-22T14:31:27Z</time>
      </trkpt>
      <trkpt lat="44.93029" lon="5.17559">
        <ele>826.87</ele>
        <time>2017-08-22T14:31:32Z</time>
      </trkpt>
      <trkpt lat="44.93024" lon="5.17565">
        <ele>827.35</ele>
        <time>2017-08-22T14:31:36Z</time>
      </trkpt>
      <trkpt lat="44.93014" lon="5.17572">
        <ele>827.83</ele>
        <time>2017-08-22T14:31:43Z</time>
      </trkpt>
      <trkpt lat="44.92988" lon="5.17589">
        <ele>829.76</ele>
        <time>2017-08-22T14:32:00Z</time>
      </trkpt>
      <trkpt lat="44.92963" lon="5.17602">
        <ele>832.16</ele>
        <time>2017-08-22T14:32:15Z</time>
      </trkpt>
      <trkpt lat="44.92957" lon="5.17606">
        <ele>832.64</ele>
        <time>2017-08-22T14:32:19Z</time>
      </trkpt>
      <trkpt lat="44.9293" lon="5.17619">
        <ele>834.56</ele>
        <time>2017-08-22T14:32:35Z</time>
      </trkpt>
      <trkpt lat="44.92925" lon="5.17621">
        <ele>835.04</ele>
        <time>2017-08-22T14:32:38Z</time>
      </trkpt>
      <trkpt lat="44.92928" lon="5.17623">
        <ele>835.04</ele>
        <time>2017-08-22T14:32:42Z</time>
      </trkpt>
      <trkpt lat="44.92928" lon="5.17617">
        <ele>835.04</ele>
        <time>2017-08-22T14:32:51Z</time>
      </trkpt>
      <trkpt lat="44.92928" lon="5.17618">
        <ele>835.04</ele>
        <time>2017-08-22T14:33:10Z</time>
      </trkpt>
      <trkpt lat="44.92927" lon="5.17621">
        <ele>835.04</ele>
        <time>2017-08-22T14:33:15Z</time>
      </trkpt>
      <trkpt lat="44.9292" lon="5.17626">
        <ele>836</ele>
        <time>2017-08-22T14:33:27Z</time>
      </trkpt>
      <trkpt lat="44.92919" lon="5.17628">
        <ele>834.08</ele>
        <time>2017-08-22T14:33:31Z</time>
      </trkpt>
      <trkpt lat="44.92917" lon="5.176">
        <ele>836</ele>
        <time>2017-08-22T14:34:19Z</time>
      </trkpt>
      <trkpt lat="44.92917" lon="5.17602">
        <ele>836</ele>
        <time>2017-08-22T14:34:20Z</time>
      </trkpt>
      <trkpt lat="44.92919" lon="5.17627">
        <ele>836.48</ele>
        <time>2017-08-22T14:34:46Z</time>
      </trkpt>
      <trkpt lat="44.92919" lon="5.17628">
        <ele>836.48</ele>
        <time>2017-08-22T14:34:48Z</time>
      </trkpt>
      <trkpt lat="44.92909" lon="5.17629">
        <ele>836.96</ele>
        <time>2017-08-22T14:34:54Z</time>
      </trkpt>
      <trkpt lat="44.92876" lon="5.17641">
        <ele>839.37</ele>
        <time>2017-08-22T14:35:11Z</time>
      </trkpt>
      <trkpt lat="44.9284" lon="5.17654">
        <ele>844.66</ele>
        <time>2017-08-22T14:35:29Z</time>
      </trkpt>
      <trkpt lat="44.92811" lon="5.1767">
        <ele>844.18</ele>
        <time>2017-08-22T14:35:44Z</time>
      </trkpt>
      <trkpt lat="44.9279" lon="5.17696">
        <ele>846.1</ele>
        <time>2017-08-22T14:35:58Z</time>
      </trkpt>
      <trkpt lat="44.92786" lon="5.17725">
        <ele>847.54</ele>
        <time>2017-08-22T14:36:08Z</time>
      </trkpt>
      <trkpt lat="44.92794" lon="5.1777">
        <ele>849.94</ele>
        <time>2017-08-22T14:36:24Z</time>
      </trkpt>
      <trkpt lat="44.92777" lon="5.17807">
        <ele>852.35</ele>
        <time>2017-08-22T14:36:39Z</time>
      </trkpt>
      <trkpt lat="44.92763" lon="5.17849">
        <ele>854.75</ele>
        <time>2017-08-22T14:36:55Z</time>
      </trkpt>
      <trkpt lat="44.92762" lon="5.17852">
        <ele>855.23</ele>
        <time>2017-08-22T14:36:56Z</time>
      </trkpt>
      <trkpt lat="44.92764" lon="5.1789">
        <ele>856.67</ele>
        <time>2017-08-22T14:37:09Z</time>
      </trkpt>
      <trkpt lat="44.92759" lon="5.17938">
        <ele>859.08</ele>
        <time>2017-08-22T14:37:26Z</time>
      </trkpt>
      <trkpt lat="44.92748" lon="5.17973">
        <ele>861</ele>
        <time>2017-08-22T14:37:40Z</time>
      </trkpt>
      <trkpt lat="44.92729" lon="5.18013">
        <ele>863.4</ele>
        <time>2017-08-22T14:37:57Z</time>
      </trkpt>
      <trkpt lat="44.92715" lon="5.18041">
        <ele>864.84</ele>
        <time>2017-08-22T14:38:09Z</time>
      </trkpt>
      <trkpt lat="44.92698" lon="5.18078">
        <ele>867.73</ele>
        <time>2017-08-22T14:38:24Z</time>
      </trkpt>
      <trkpt lat="44.92671" lon="5.18101">
        <ele>869.65</ele>
        <time>2017-08-22T14:38:41Z</time>
      </trkpt>
      <trkpt lat="44.92647" lon="5.18091">
        <ele>871.57</ele>
        <time>2017-08-22T14:38:53Z</time>
      </trkpt>
      <trkpt lat="44.92615" lon="5.18087">
        <ele>873.5</ele>
        <time>2017-08-22T14:39:09Z</time>
      </trkpt>
      <trkpt lat="44.92599" lon="5.18086">
        <ele>874.94</ele>
        <time>2017-08-22T14:39:17Z</time>
      </trkpt>
      <trkpt lat="44.92594" lon="5.18086">
        <ele>874.94</ele>
        <time>2017-08-22T14:39:20Z</time>
      </trkpt>
      <trkpt lat="44.92568" lon="5.18065">
        <ele>876.86</ele>
        <time>2017-08-22T14:39:32Z</time>
      </trkpt>
      <trkpt lat="44.92563" lon="5.18056">
        <ele>877.34</ele>
        <time>2017-08-22T14:39:36Z</time>
      </trkpt>
      <trkpt lat="44.9254" lon="5.18031">
        <ele>879.74</ele>
        <time>2017-08-22T14:39:51Z</time>
      </trkpt>
      <trkpt lat="44.92507" lon="5.18037">
        <ele>881.67</ele>
        <time>2017-08-22T14:40:07Z</time>
      </trkpt>
      <trkpt lat="44.92482" lon="5.18058">
        <ele>884.07</ele>
        <time>2017-08-22T14:40:23Z</time>
      </trkpt>
      <trkpt lat="44.92466" lon="5.18074">
        <ele>885.51</ele>
        <time>2017-08-22T14:40:34Z</time>
      </trkpt>
      <trkpt lat="44.92445" lon="5.18085">
        <ele>887.43</ele>
        <time>2017-08-22T14:40:46Z</time>
      </trkpt>
      <trkpt lat="44.92437" lon="5.18089">
        <ele>887.91</ele>
        <time>2017-08-22T14:40:51Z</time>
      </trkpt>
      <trkpt lat="44.92432" lon="5.18091">
        <ele>888.4</ele>
        <time>2017-08-22T14:40:54Z</time>
      </trkpt>
      <trkpt lat="44.9242" lon="5.18099">
        <ele>889.36</ele>
        <time>2017-08-22T14:41:01Z</time>
      </trkpt>
      <trkpt lat="44.92392" lon="5.18105">
        <ele>891.28</ele>
        <time>2017-08-22T14:41:16Z</time>
      </trkpt>
      <trkpt lat="44.92375" lon="5.18106">
        <ele>892.24</ele>
        <time>2017-08-22T14:41:25Z</time>
      </trkpt>
      <trkpt lat="44.92367" lon="5.18105">
        <ele>892.72</ele>
        <time>2017-08-22T14:41:29Z</time>
      </trkpt>
      <trkpt lat="44.92351" lon="5.18105">
        <ele>893.68</ele>
        <time>2017-08-22T14:41:38Z</time>
      </trkpt>
      <trkpt lat="44.9233" lon="5.18098">
        <ele>895.12</ele>
        <time>2017-08-22T14:41:50Z</time>
      </trkpt>
      <trkpt lat="44.9231" lon="5.18089">
        <ele>896.09</ele>
        <time>2017-08-22T14:42:00Z</time>
      </trkpt>
      <trkpt lat="44.92288" lon="5.1808">
        <ele>897.53</ele>
        <time>2017-08-22T14:42:12Z</time>
      </trkpt>
      <trkpt lat="44.92259" lon="5.1807">
        <ele>899.45</ele>
        <time>2017-08-22T14:42:27Z</time>
      </trkpt>
      <trkpt lat="44.92251" lon="5.1807">
        <ele>900.41</ele>
        <time>2017-08-22T14:42:32Z</time>
      </trkpt>
      <trkpt lat="44.92247" lon="5.18079">
        <ele>901.37</ele>
        <time>2017-08-22T14:42:37Z</time>
      </trkpt>
      <trkpt lat="44.92264" lon="5.18084">
        <ele>901.85</ele>
        <time>2017-08-22T14:42:47Z</time>
      </trkpt>
      <trkpt lat="44.9229" lon="5.18099">
        <ele>903.78</ele>
        <time>2017-08-22T14:43:01Z</time>
      </trkpt>
      <trkpt lat="44.92308" lon="5.18112">
        <ele>905.22</ele>
        <time>2017-08-22T14:43:11Z</time>
      </trkpt>
      <trkpt lat="44.92323" lon="5.18119">
        <ele>906.18</ele>
        <time>2017-08-22T14:43:20Z</time>
      </trkpt>
      <trkpt lat="44.92334" lon="5.18123">
        <ele>907.14</ele>
        <time>2017-08-22T14:43:28Z</time>
      </trkpt>
      <trkpt lat="44.92361" lon="5.18133">
        <ele>909.54</ele>
        <time>2017-08-22T14:43:45Z</time>
      </trkpt>
      <trkpt lat="44.92368" lon="5.18135">
        <ele>910.03</ele>
        <time>2017-08-22T14:43:49Z</time>
      </trkpt>
      <trkpt lat="44.92381" lon="5.1814">
        <ele>911.47</ele>
        <time>2017-08-22T14:43:58Z</time>
      </trkpt>
      <trkpt lat="44.9239" lon="5.18143">
        <ele>911.95</ele>
        <time>2017-08-22T14:44:03Z</time>
      </trkpt>
      <trkpt lat="44.92396" lon="5.18145">
        <ele>912.43</ele>
        <time>2017-08-22T14:44:07Z</time>
      </trkpt>
      <trkpt lat="44.9241" lon="5.18145">
        <ele>912.91</ele>
        <time>2017-08-22T14:44:14Z</time>
      </trkpt>
      <trkpt lat="44.9242" lon="5.18147">
        <ele>913.87</ele>
        <time>2017-08-22T14:44:19Z</time>
      </trkpt>
      <trkpt lat="44.92423" lon="5.18147">
        <ele>914.35</ele>
        <time>2017-08-22T14:44:21Z</time>
      </trkpt>
      <trkpt lat="44.92431" lon="5.18148">
        <ele>914.83</ele>
        <time>2017-08-22T14:44:27Z</time>
      </trkpt>
      <trkpt lat="44.92447" lon="5.18151">
        <ele>915.79</ele>
        <time>2017-08-22T14:44:34Z</time>
      </trkpt>
      <trkpt lat="44.92464" lon="5.18157">
        <ele>917.24</ele>
        <time>2017-08-22T14:44:43Z</time>
      </trkpt>
      <trkpt lat="44.92473" lon="5.18161">
        <ele>917.72</ele>
        <time>2017-08-22T14:44:48Z</time>
      </trkpt>
      <trkpt lat="44.92479" lon="5.18163">
        <ele>918.2</ele>
        <time>2017-08-22T14:44:52Z</time>
      </trkpt>
      <trkpt lat="44.92498" lon="5.18171">
        <ele>920.12</ele>
        <time>2017-08-22T14:45:03Z</time>
      </trkpt>
      <trkpt lat="44.92506" lon="5.1817">
        <ele>920.6</ele>
        <time>2017-08-22T14:45:09Z</time>
      </trkpt>
      <trkpt lat="44.92511" lon="5.18176">
        <ele>921.08</ele>
        <time>2017-08-22T14:45:13Z</time>
      </trkpt>
      <trkpt lat="44.92517" lon="5.18181">
        <ele>921.56</ele>
        <time>2017-08-22T14:45:17Z</time>
      </trkpt>
      <trkpt lat="44.92526" lon="5.18192">
        <ele>923</ele>
        <time>2017-08-22T14:45:26Z</time>
      </trkpt>
      <trkpt lat="44.92532" lon="5.182">
        <ele>923.96</ele>
        <time>2017-08-22T14:45:32Z</time>
      </trkpt>
      <trkpt lat="44.92536" lon="5.18205">
        <ele>924.45</ele>
        <time>2017-08-22T14:45:35Z</time>
      </trkpt>
      <trkpt lat="44.92554" lon="5.18227">
        <ele>925.89</ele>
        <time>2017-08-22T14:45:47Z</time>
      </trkpt>
      <trkpt lat="44.92583" lon="5.18247">
        <ele>927.33</ele>
        <time>2017-08-22T14:46:01Z</time>
      </trkpt>
      <trkpt lat="44.92602" lon="5.18267">
        <ele>929.25</ele>
        <time>2017-08-22T14:46:13Z</time>
      </trkpt>
      <trkpt lat="44.92611" lon="5.18274">
        <ele>930.69</ele>
        <time>2017-08-22T14:46:23Z</time>
      </trkpt>
      <trkpt lat="44.92628" lon="5.18281">
        <ele>931.65</ele>
        <time>2017-08-22T14:46:32Z</time>
      </trkpt>
      <trkpt lat="44.92634" lon="5.18284">
        <ele>932.14</ele>
        <time>2017-08-22T14:46:35Z</time>
      </trkpt>
      <trkpt lat="44.92645" lon="5.18289">
        <ele>933.1</ele>
        <time>2017-08-22T14:46:43Z</time>
      </trkpt>
      <trkpt lat="44.92659" lon="5.18295">
        <ele>934.06</ele>
        <time>2017-08-22T14:46:51Z</time>
      </trkpt>
      <trkpt lat="44.92684" lon="5.18305">
        <ele>935.5</ele>
        <time>2017-08-22T14:47:02Z</time>
      </trkpt>
      <trkpt lat="44.92693" lon="5.1831">
        <ele>936.46</ele>
        <time>2017-08-22T14:47:07Z</time>
      </trkpt>
      <trkpt lat="44.9272" lon="5.18322">
        <ele>937.9</ele>
        <time>2017-08-22T14:47:21Z</time>
      </trkpt>
      <trkpt lat="44.92741" lon="5.1832">
        <ele>939.83</ele>
        <time>2017-08-22T14:47:33Z</time>
      </trkpt>
      <trkpt lat="44.92752" lon="5.18323">
        <ele>940.79</ele>
        <time>2017-08-22T14:47:38Z</time>
      </trkpt>
      <trkpt lat="44.9275" lon="5.18332">
        <ele>941.75</ele>
        <time>2017-08-22T14:47:44Z</time>
      </trkpt>
      <trkpt lat="44.92744" lon="5.18334">
        <ele>941.75</ele>
        <time>2017-08-22T14:47:47Z</time>
      </trkpt>
      <trkpt lat="44.92718" lon="5.18333">
        <ele>943.19</ele>
        <time>2017-08-22T14:48:01Z</time>
      </trkpt>
      <trkpt lat="44.92689" lon="5.18334">
        <ele>945.11</ele>
        <time>2017-08-22T14:48:16Z</time>
      </trkpt>
      <trkpt lat="44.9266" lon="5.18335">
        <ele>947.52</ele>
        <time>2017-08-22T14:48:30Z</time>
      </trkpt>
      <trkpt lat="44.92629" lon="5.1833">
        <ele>949.44</ele>
        <time>2017-08-22T14:48:47Z</time>
      </trkpt>
      <trkpt lat="44.92607" lon="5.18324">
        <ele>951.36</ele>
        <time>2017-08-22T14:48:58Z</time>
      </trkpt>
      <trkpt lat="44.9259" lon="5.18317">
        <ele>952.32</ele>
        <time>2017-08-22T14:49:07Z</time>
      </trkpt>
      <trkpt lat="44.92588" lon="5.18317">
        <ele>952.32</ele>
        <time>2017-08-22T14:49:08Z</time>
      </trkpt>
      <trkpt lat="44.92558" lon="5.18306">
        <ele>954.73</ele>
        <time>2017-08-22T14:49:23Z</time>
      </trkpt>
      <trkpt lat="44.9253" lon="5.18294">
        <ele>956.65</ele>
        <time>2017-08-22T14:49:38Z</time>
      </trkpt>
      <trkpt lat="44.92506" lon="5.18279">
        <ele>958.57</ele>
        <time>2017-08-22T14:49:51Z</time>
      </trkpt>
      <trkpt lat="44.92483" lon="5.18272">
        <ele>960.01</ele>
        <time>2017-08-22T14:50:02Z</time>
      </trkpt>
      <trkpt lat="44.92474" lon="5.18272">
        <ele>960.49</ele>
        <time>2017-08-22T14:50:07Z</time>
      </trkpt>
      <trkpt lat="44.92442" lon="5.18271">
        <ele>963.38</ele>
        <time>2017-08-22T14:50:23Z</time>
      </trkpt>
      <trkpt lat="44.92417" lon="5.18274">
        <ele>964.34</ele>
        <time>2017-08-22T14:50:35Z</time>
      </trkpt>
      <trkpt lat="44.92389" lon="5.18276">
        <ele>966.74</ele>
        <time>2017-08-22T14:50:49Z</time>
      </trkpt>
      <trkpt lat="44.92353" lon="5.18275">
        <ele>969.15</ele>
        <time>2017-08-22T14:51:07Z</time>
      </trkpt>
      <trkpt lat="44.92323" lon="5.18274">
        <ele>971.07</ele>
        <time>2017-08-22T14:51:21Z</time>
      </trkpt>
      <trkpt lat="44.9229" lon="5.18272">
        <ele>973.47</ele>
        <time>2017-08-22T14:51:37Z</time>
      </trkpt>
      <trkpt lat="44.92267" lon="5.1827">
        <ele>974.91</ele>
        <time>2017-08-22T14:51:49Z</time>
      </trkpt>
      <trkpt lat="44.92238" lon="5.18266">
        <ele>976.84</ele>
        <time>2017-08-22T14:52:03Z</time>
      </trkpt>
      <trkpt lat="44.92222" lon="5.18264">
        <ele>977.8</ele>
        <time>2017-08-22T14:52:11Z</time>
      </trkpt>
      <trkpt lat="44.922" lon="5.18264">
        <ele>979.72</ele>
        <time>2017-08-22T14:52:22Z</time>
      </trkpt>
      <trkpt lat="44.92166" lon="5.18259">
        <ele>982.6</ele>
        <time>2017-08-22T14:52:38Z</time>
      </trkpt>
      <trkpt lat="44.92157" lon="5.18259">
        <ele>983.09</ele>
        <time>2017-08-22T14:52:43Z</time>
      </trkpt>
      <trkpt lat="44.92149" lon="5.18268">
        <ele>984.53</ele>
        <time>2017-08-22T14:52:49Z</time>
      </trkpt>
      <trkpt lat="44.92156" lon="5.18273">
        <ele>984.53</ele>
        <time>2017-08-22T14:52:59Z</time>
      </trkpt>
      <trkpt lat="44.92151" lon="5.18269">
        <ele>984.53</ele>
        <time>2017-08-22T14:53:06Z</time>
      </trkpt>
      <trkpt lat="44.92155" lon="5.18275">
        <ele>984.53</ele>
        <time>2017-08-22T14:53:14Z</time>
      </trkpt>
      <trkpt lat="44.92154" lon="5.18267">
        <ele>984.05</ele>
        <time>2017-08-22T14:53:24Z</time>
      </trkpt>
      <trkpt lat="44.92151" lon="5.18273">
        <ele>984.53</ele>
        <time>2017-08-22T14:53:27Z</time>
      </trkpt>
      <trkpt lat="44.92153" lon="5.18277">
        <ele>984.53</ele>
        <time>2017-08-22T14:53:30Z</time>
      </trkpt>
      <trkpt lat="44.92162" lon="5.18283">
        <ele>985.01</ele>
        <time>2017-08-22T14:53:36Z</time>
      </trkpt>
      <trkpt lat="44.92159" lon="5.1827">
        <ele>984.53</ele>
        <time>2017-08-22T14:53:40Z</time>
      </trkpt>
      <trkpt lat="44.92155" lon="5.18269">
        <ele>984.05</ele>
        <time>2017-08-22T14:53:41Z</time>
      </trkpt>
      <trkpt lat="44.92152" lon="5.18271">
        <ele>984.05</ele>
        <time>2017-08-22T14:53:42Z</time>
      </trkpt>
      <trkpt lat="44.92152" lon="5.18279">
        <ele>985.01</ele>
        <time>2017-08-22T14:53:45Z</time>
      </trkpt>
      <trkpt lat="44.92151" lon="5.18276">
        <ele>984.53</ele>
        <time>2017-08-22T14:53:53Z</time>
      </trkpt>
      <trkpt lat="44.92152" lon="5.18276">
        <ele>985.01</ele>
        <time>2017-08-22T14:54:04Z</time>
      </trkpt>
      <trkpt lat="44.92152" lon="5.18276">
        <ele>985.01</ele>
        <time>2017-08-22T14:54:30Z</time>
      </trkpt>
      <trkpt lat="44.92153" lon="5.18277">
        <ele>985.01</ele>
        <time>2017-08-22T14:54:44Z</time>
      </trkpt>
      <trkpt lat="44.92158" lon="5.18281">
        <ele>985.01</ele>
        <time>2017-08-22T14:54:48Z</time>
      </trkpt>
      <trkpt lat="44.92167" lon="5.18284">
        <ele>985.49</ele>
        <time>2017-08-22T14:54:53Z</time>
      </trkpt>
      <trkpt lat="44.92195" lon="5.18286">
        <ele>986.93</ele>
        <time>2017-08-22T14:55:09Z</time>
      </trkpt>
      <trkpt lat="44.9222" lon="5.18297">
        <ele>988.85</ele>
        <time>2017-08-22T14:55:25Z</time>
      </trkpt>
      <trkpt lat="44.9224" lon="5.18308">
        <ele>990.3</ele>
        <time>2017-08-22T14:55:38Z</time>
      </trkpt>
      <trkpt lat="44.92257" lon="5.18317">
        <ele>989.81</ele>
        <time>2017-08-22T14:55:49Z</time>
      </trkpt>
      <trkpt lat="44.92259" lon="5.18318">
        <ele>992.7</ele>
        <time>2017-08-22T14:55:50Z</time>
      </trkpt>
      <trkpt lat="44.92271" lon="5.18321">
        <ele>993.18</ele>
        <time>2017-08-22T14:55:59Z</time>
      </trkpt>
      <trkpt lat="44.92277" lon="5.18323">
        <ele>993.66</ele>
        <time>2017-08-22T14:56:03Z</time>
      </trkpt>
      <trkpt lat="44.92298" lon="5.1833">
        <ele>995.58</ele>
        <time>2017-08-22T14:56:16Z</time>
      </trkpt>
      <trkpt lat="44.92323" lon="5.18334">
        <ele>997.51</ele>
        <time>2017-08-22T14:56:32Z</time>
      </trkpt>
      <trkpt lat="44.92332" lon="5.18337">
        <ele>997.99</ele>
        <time>2017-08-22T14:56:38Z</time>
      </trkpt>
      <trkpt lat="44.92341" lon="5.18339">
        <ele>998.47</ele>
        <time>2017-08-22T14:56:43Z</time>
      </trkpt>
      <trkpt lat="44.92353" lon="5.18341">
        <ele>998.95</ele>
        <time>2017-08-22T14:56:50Z</time>
      </trkpt>
      <trkpt lat="44.92376" lon="5.18351">
        <ele>1000.87</ele>
        <time>2017-08-22T14:57:04Z</time>
      </trkpt>
      <trkpt lat="44.924" lon="5.18363">
        <ele>1002.31</ele>
        <time>2017-08-22T14:57:18Z</time>
      </trkpt>
      <trkpt lat="44.9242" lon="5.18373">
        <ele>1004.23</ele>
        <time>2017-08-22T14:57:30Z</time>
      </trkpt>
      <trkpt lat="44.92444" lon="5.18385">
        <ele>1006.16</ele>
        <time>2017-08-22T14:57:44Z</time>
      </trkpt>
      <trkpt lat="44.92455" lon="5.18391">
        <ele>1007.12</ele>
        <time>2017-08-22T14:57:51Z</time>
      </trkpt>
      <trkpt lat="44.92477" lon="5.18404">
        <ele>1008.56</ele>
        <time>2017-08-22T14:58:04Z</time>
      </trkpt>
      <trkpt lat="44.92493" lon="5.18414">
        <ele>1010</ele>
        <time>2017-08-22T14:58:15Z</time>
      </trkpt>
      <trkpt lat="44.92515" lon="5.1843">
        <ele>1011.44</ele>
        <time>2017-08-22T14:58:28Z</time>
      </trkpt>
      <trkpt lat="44.92543" lon="5.18447">
        <ele>1013.85</ele>
        <time>2017-08-22T14:58:43Z</time>
      </trkpt>
      <trkpt lat="44.92564" lon="5.18463">
        <ele>1015.77</ele>
        <time>2017-08-22T14:58:56Z</time>
      </trkpt>
      <trkpt lat="44.92588" lon="5.18471">
        <ele>1017.69</ele>
        <time>2017-08-22T14:59:10Z</time>
      </trkpt>
      <trkpt lat="44.92613" lon="5.18482">
        <ele>1019.62</ele>
        <time>2017-08-22T14:59:25Z</time>
      </trkpt>
      <trkpt lat="44.92642" lon="5.18493">
        <ele>1022.02</ele>
        <time>2017-08-22T14:59:40Z</time>
      </trkpt>
      <trkpt lat="44.92652" lon="5.18503">
        <ele>1022.98</ele>
        <time>2017-08-22T14:59:48Z</time>
      </trkpt>
      <trkpt lat="44.92635" lon="5.18507">
        <ele>1023.46</ele>
        <time>2017-08-22T14:59:59Z</time>
      </trkpt>
      <trkpt lat="44.92614" lon="5.18496">
        <ele>1024.42</ele>
        <time>2017-08-22T15:00:13Z</time>
      </trkpt>
      <trkpt lat="44.92605" lon="5.18493">
        <ele>1024.9</ele>
        <time>2017-08-22T15:00:19Z</time>
      </trkpt>
      <trkpt lat="44.92578" lon="5.18483">
        <ele>1026.83</ele>
        <time>2017-08-22T15:00:35Z</time>
      </trkpt>
      <trkpt lat="44.92551" lon="5.18477">
        <ele>1028.75</ele>
        <time>2017-08-22T15:00:50Z</time>
      </trkpt>
      <trkpt lat="44.92527" lon="5.18471">
        <ele>1030.19</ele>
        <time>2017-08-22T15:01:03Z</time>
      </trkpt>
      <trkpt lat="44.92503" lon="5.18466">
        <ele>1031.63</ele>
        <time>2017-08-22T15:01:16Z</time>
      </trkpt>
      <trkpt lat="44.92478" lon="5.18461">
        <ele>1033.55</ele>
        <time>2017-08-22T15:01:29Z</time>
      </trkpt>
      <trkpt lat="44.9245" lon="5.18457">
        <ele>1035</ele>
        <time>2017-08-22T15:01:43Z</time>
      </trkpt>
      <trkpt lat="44.92419" lon="5.18451">
        <ele>1037.4</ele>
        <time>2017-08-22T15:01:59Z</time>
      </trkpt>
      <trkpt lat="44.92406" lon="5.18449">
        <ele>1037.88</ele>
        <time>2017-08-22T15:02:06Z</time>
      </trkpt>
      <trkpt lat="44.92398" lon="5.18449">
        <ele>1038.84</ele>
        <time>2017-08-22T15:02:10Z</time>
      </trkpt>
      <trkpt lat="44.92371" lon="5.18448">
        <ele>1040.28</ele>
        <time>2017-08-22T15:02:24Z</time>
      </trkpt>
      <trkpt lat="44.92341" lon="5.18447">
        <ele>1042.21</ele>
        <time>2017-08-22T15:02:39Z</time>
      </trkpt>
      <trkpt lat="44.92305" lon="5.1844">
        <ele>1044.13</ele>
        <time>2017-08-22T15:02:56Z</time>
      </trkpt>
      <trkpt lat="44.92271" lon="5.1844">
        <ele>1046.53</ele>
        <time>2017-08-22T15:03:14Z</time>
      </trkpt>
      <trkpt lat="44.92256" lon="5.1844">
        <ele>1047.97</ele>
        <time>2017-08-22T15:03:22Z</time>
      </trkpt>
      <trkpt lat="44.92238" lon="5.18434">
        <ele>1049.42</ele>
        <time>2017-08-22T15:03:31Z</time>
      </trkpt>
      <trkpt lat="44.92224" lon="5.18443">
        <ele>1051.82</ele>
        <time>2017-08-22T15:03:42Z</time>
      </trkpt>
      <trkpt lat="44.92226" lon="5.18447">
        <ele>1051.82</ele>
        <time>2017-08-22T15:03:45Z</time>
      </trkpt>
      <trkpt lat="44.9223" lon="5.18442">
        <ele>1051.82</ele>
        <time>2017-08-22T15:03:49Z</time>
      </trkpt>
      <trkpt lat="44.92221" lon="5.18436">
        <ele>1051.82</ele>
        <time>2017-08-22T15:03:58Z</time>
      </trkpt>
      <trkpt lat="44.92226" lon="5.18443">
        <ele>1051.82</ele>
        <time>2017-08-22T15:04:04Z</time>
      </trkpt>
      <trkpt lat="44.92223" lon="5.18435">
        <ele>1051.82</ele>
        <time>2017-08-22T15:04:11Z</time>
      </trkpt>
      <trkpt lat="44.92229" lon="5.18446">
        <ele>1052.3</ele>
        <time>2017-08-22T15:04:23Z</time>
      </trkpt>
      <trkpt lat="44.92225" lon="5.18434">
        <ele>1051.34</ele>
        <time>2017-08-22T15:04:30Z</time>
      </trkpt>
      <trkpt lat="44.92227" lon="5.18446">
        <ele>1052.3</ele>
        <time>2017-08-22T15:04:42Z</time>
      </trkpt>
      <trkpt lat="44.92236" lon="5.18446">
        <ele>1052.3</ele>
        <time>2017-08-22T15:04:54Z</time>
      </trkpt>
      <trkpt lat="44.92241" lon="5.18452">
        <ele>1052.78</ele>
        <time>2017-08-22T15:05:01Z</time>
      </trkpt>
      <trkpt lat="44.92242" lon="5.18451">
        <ele>1052.78</ele>
        <time>2017-08-22T15:05:03Z</time>
      </trkpt>
      <trkpt lat="44.92239" lon="5.18448">
        <ele>1052.78</ele>
        <time>2017-08-22T15:05:07Z</time>
      </trkpt>
      <trkpt lat="44.92241" lon="5.18452">
        <ele>1052.78</ele>
        <time>2017-08-22T15:05:17Z</time>
      </trkpt>
      <trkpt lat="44.92246" lon="5.18452">
        <ele>1052.78</ele>
        <time>2017-08-22T15:05:20Z</time>
      </trkpt>
      <trkpt lat="44.92257" lon="5.18456">
        <ele>1053.26</ele>
        <time>2017-08-22T15:05:29Z</time>
      </trkpt>
      <trkpt lat="44.92266" lon="5.18457">
        <ele>1054.22</ele>
        <time>2017-08-22T15:05:36Z</time>
      </trkpt>
      <trkpt lat="44.92285" lon="5.18463">
        <ele>1055.18</ele>
        <time>2017-08-22T15:05:50Z</time>
      </trkpt>
      <trkpt lat="44.923" lon="5.18471">
        <ele>1056.63</ele>
        <time>2017-08-22T15:06:01Z</time>
      </trkpt>
      <trkpt lat="44.92322" lon="5.18477">
        <ele>1058.07</ele>
        <time>2017-08-22T15:06:15Z</time>
      </trkpt>
      <trkpt lat="44.92345" lon="5.18487">
        <ele>1059.99</ele>
        <time>2017-08-22T15:06:31Z</time>
      </trkpt>
      <trkpt lat="44.92365" lon="5.18495">
        <ele>1061.43</ele>
        <time>2017-08-22T15:06:44Z</time>
      </trkpt>
      <trkpt lat="44.92381" lon="5.18503">
        <ele>1062.87</ele>
        <time>2017-08-22T15:06:56Z</time>
      </trkpt>
      <trkpt lat="44.92385" lon="5.18503">
        <ele>1063.36</ele>
        <time>2017-08-22T15:06:58Z</time>
      </trkpt>
      <trkpt lat="44.92388" lon="5.18506">
        <ele>1063.36</ele>
        <time>2017-08-22T15:07:00Z</time>
      </trkpt>
      <trkpt lat="44.92407" lon="5.18514">
        <ele>1064.8</ele>
        <time>2017-08-22T15:07:14Z</time>
      </trkpt>
      <trkpt lat="44.92409" lon="5.18514">
        <ele>1065.28</ele>
        <time>2017-08-22T15:07:15Z</time>
      </trkpt>
      <trkpt lat="44.92425" lon="5.18523">
        <ele>1066.72</ele>
        <time>2017-08-22T15:07:26Z</time>
      </trkpt>
      <trkpt lat="44.92432" lon="5.18525">
        <ele>1067.2</ele>
        <time>2017-08-22T15:07:31Z</time>
      </trkpt>
      <trkpt lat="44.92454" lon="5.18537">
        <ele>1068.64</ele>
        <time>2017-08-22T15:07:46Z</time>
      </trkpt>
      <trkpt lat="44.92459" lon="5.18539">
        <ele>1069.12</ele>
        <time>2017-08-22T15:07:49Z</time>
      </trkpt>
      <trkpt lat="44.92482" lon="5.18547">
        <ele>1070.57</ele>
        <time>2017-08-22T15:08:03Z</time>
      </trkpt>
      <trkpt lat="44.92504" lon="5.18555">
        <ele>1072.49</ele>
        <time>2017-08-22T15:08:17Z</time>
      </trkpt>
      <trkpt lat="44.92514" lon="5.18561">
        <ele>1073.45</ele>
        <time>2017-08-22T15:08:24Z</time>
      </trkpt>
      <trkpt lat="44.9251" lon="5.18556">
        <ele>1072.97</ele>
        <time>2017-08-22T15:08:32Z</time>
      </trkpt>
      <trkpt lat="44.92515" lon="5.18558">
        <ele>1073.45</ele>
        <time>2017-08-22T15:08:36Z</time>
      </trkpt>
      <trkpt lat="44.92525" lon="5.18564">
        <ele>1073.93</ele>
        <time>2017-08-22T15:08:42Z</time>
      </trkpt>
      <trkpt lat="44.92542" lon="5.18575">
        <ele>1075.37</ele>
        <time>2017-08-22T15:08:55Z</time>
      </trkpt>
      <trkpt lat="44.92563" lon="5.18586">
        <ele>1077.29</ele>
        <time>2017-08-22T15:09:09Z</time>
      </trkpt>
      <trkpt lat="44.92587" lon="5.18598">
        <ele>1079.22</ele>
        <time>2017-08-22T15:09:23Z</time>
      </trkpt>
      <trkpt lat="44.92588" lon="5.18599">
        <ele>1079.22</ele>
        <time>2017-08-22T15:09:24Z</time>
      </trkpt>
      <trkpt lat="44.92577" lon="5.18603">
        <ele>1080.66</ele>
        <time>2017-08-22T15:09:34Z</time>
      </trkpt>
      <trkpt lat="44.92575" lon="5.18601">
        <ele>1080.66</ele>
        <time>2017-08-22T15:09:35Z</time>
      </trkpt>
      <trkpt lat="44.92565" lon="5.18597">
        <ele>1081.14</ele>
        <time>2017-08-22T15:09:41Z</time>
      </trkpt>
      <trkpt lat="44.92555" lon="5.18593">
        <ele>1082.1</ele>
        <time>2017-08-22T15:09:47Z</time>
      </trkpt>
      <trkpt lat="44.9254" lon="5.18589">
        <ele>1083.06</ele>
        <time>2017-08-22T15:09:57Z</time>
      </trkpt>
      <trkpt lat="44.92533" lon="5.18587">
        <ele>1083.06</ele>
        <time>2017-08-22T15:10:01Z</time>
      </trkpt>
      <trkpt lat="44.92504" lon="5.18579">
        <ele>1085.47</ele>
        <time>2017-08-22T15:10:19Z</time>
      </trkpt>
      <trkpt lat="44.9249" lon="5.18578">
        <ele>1086.43</ele>
        <time>2017-08-22T15:10:29Z</time>
      </trkpt>
      <trkpt lat="44.925" lon="5.18579">
        <ele>1085.95</ele>
        <time>2017-08-22T15:10:40Z</time>
      </trkpt>
      <trkpt lat="44.9249" lon="5.18578">
        <ele>1086.91</ele>
        <time>2017-08-22T15:10:49Z</time>
      </trkpt>
      <trkpt lat="44.92467" lon="5.1858">
        <ele>1088.35</ele>
        <time>2017-08-22T15:11:05Z</time>
      </trkpt>
      <trkpt lat="44.92453" lon="5.18577">
        <ele>1089.31</ele>
        <time>2017-08-22T15:11:13Z</time>
      </trkpt>
      <trkpt lat="44.92443" lon="5.18577">
        <ele>1089.79</ele>
        <time>2017-08-22T15:11:19Z</time>
      </trkpt>
      <trkpt lat="44.92437" lon="5.18578">
        <ele>1090.27</ele>
        <time>2017-08-22T15:11:23Z</time>
      </trkpt>
      <trkpt lat="44.92429" lon="5.18577">
        <ele>1091.23</ele>
        <time>2017-08-22T15:11:28Z</time>
      </trkpt>
      <trkpt lat="44.92424" lon="5.18578">
        <ele>1091.71</ele>
        <time>2017-08-22T15:11:32Z</time>
      </trkpt>
      <trkpt lat="44.92415" lon="5.1857">
        <ele>1092.2</ele>
        <time>2017-08-22T15:11:38Z</time>
      </trkpt>
      <trkpt lat="44.92404" lon="5.18566">
        <ele>1093.16</ele>
        <time>2017-08-22T15:11:45Z</time>
      </trkpt>
      <trkpt lat="44.92398" lon="5.18567">
        <ele>1093.64</ele>
        <time>2017-08-22T15:11:49Z</time>
      </trkpt>
      <trkpt lat="44.92389" lon="5.18566">
        <ele>1094.12</ele>
        <time>2017-08-22T15:11:54Z</time>
      </trkpt>
      <trkpt lat="44.92378" lon="5.18567">
        <ele>1095.08</ele>
        <time>2017-08-22T15:12:01Z</time>
      </trkpt>
      <trkpt lat="44.92349" lon="5.18566">
        <ele>1097.48</ele>
        <time>2017-08-22T15:12:18Z</time>
      </trkpt>
      <trkpt lat="44.92327" lon="5.18568">
        <ele>1098.92</ele>
        <time>2017-08-22T15:12:31Z</time>
      </trkpt>
      <trkpt lat="44.92303" lon="5.18566">
        <ele>1100.85</ele>
        <time>2017-08-22T15:12:45Z</time>
      </trkpt>
      <trkpt lat="44.92277" lon="5.18566">
        <ele>1102.77</ele>
        <time>2017-08-22T15:13:01Z</time>
      </trkpt>
      <trkpt lat="44.92254" lon="5.18568">
        <ele>1104.69</ele>
        <time>2017-08-22T15:13:15Z</time>
      </trkpt>
      <trkpt lat="44.92244" lon="5.18569">
        <ele>1105.65</ele>
        <time>2017-08-22T15:13:21Z</time>
      </trkpt>
      <trkpt lat="44.92227" lon="5.18569">
        <ele>1107.1</ele>
        <time>2017-08-22T15:13:32Z</time>
      </trkpt>
      <trkpt lat="44.9222" lon="5.18565">
        <ele>1108.06</ele>
        <time>2017-08-22T15:13:37Z</time>
      </trkpt>
      <trkpt lat="44.92216" lon="5.18563">
        <ele>1108.54</ele>
        <time>2017-08-22T15:13:40Z</time>
      </trkpt>
      <trkpt lat="44.92199" lon="5.18554">
        <ele>1109.5</ele>
        <time>2017-08-22T15:13:49Z</time>
      </trkpt>
      <trkpt lat="44.92188" lon="5.18544">
        <ele>1110.46</ele>
        <time>2017-08-22T15:13:55Z</time>
      </trkpt>
      <trkpt lat="44.92181" lon="5.18543">
        <ele>1110.94</ele>
        <time>2017-08-22T15:13:58Z</time>
      </trkpt>
      <trkpt lat="44.92158" lon="5.18544">
        <ele>1112.38</ele>
        <time>2017-08-22T15:14:10Z</time>
      </trkpt>
      <trkpt lat="44.92156" lon="5.18544">
        <ele>1112.86</ele>
        <time>2017-08-22T15:14:11Z</time>
      </trkpt>
      <trkpt lat="44.92144" lon="5.18544">
        <ele>1114.31</ele>
        <time>2017-08-22T15:14:19Z</time>
      </trkpt>
      <trkpt lat="44.92121" lon="5.18539">
        <ele>1116.23</ele>
        <time>2017-08-22T15:14:32Z</time>
      </trkpt>
      <trkpt lat="44.92096" lon="5.18533">
        <ele>1118.15</ele>
        <time>2017-08-22T15:14:46Z</time>
      </trkpt>
      <trkpt lat="44.92074" lon="5.18531">
        <ele>1120.07</ele>
        <time>2017-08-22T15:14:58Z</time>
      </trkpt>
      <trkpt lat="44.92053" lon="5.18531">
        <ele>1121.52</ele>
        <time>2017-08-22T15:15:10Z</time>
      </trkpt>
      <trkpt lat="44.92026" lon="5.18525">
        <ele>1123.92</ele>
        <time>2017-08-22T15:15:25Z</time>
      </trkpt>
      <trkpt lat="44.92001" lon="5.18521">
        <ele>1125.84</ele>
        <time>2017-08-22T15:15:40Z</time>
      </trkpt>
      <trkpt lat="44.91977" lon="5.18518">
        <ele>1127.76</ele>
        <time>2017-08-22T15:15:54Z</time>
      </trkpt>
      <trkpt lat="44.91956" lon="5.18512">
        <ele>1129.69</ele>
        <time>2017-08-22T15:16:06Z</time>
      </trkpt>
      <trkpt lat="44.91947" lon="5.18509">
        <ele>1130.65</ele>
        <time>2017-08-22T15:16:13Z</time>
      </trkpt>
      <trkpt lat="44.91939" lon="5.18503">
        <ele>1131.61</ele>
        <time>2017-08-22T15:16:18Z</time>
      </trkpt>
      <trkpt lat="44.91936" lon="5.18502">
        <ele>1131.61</ele>
        <time>2017-08-22T15:16:21Z</time>
      </trkpt>
      <trkpt lat="44.91915" lon="5.18488">
        <ele>1133.53</ele>
        <time>2017-08-22T15:16:34Z</time>
      </trkpt>
      <trkpt lat="44.91895" lon="5.18463">
        <ele>1134.97</ele>
        <time>2017-08-22T15:16:45Z</time>
      </trkpt>
      <trkpt lat="44.91884" lon="5.18458">
        <ele>1135.94</ele>
        <time>2017-08-22T15:16:52Z</time>
      </trkpt>
      <trkpt lat="44.91887" lon="5.18466">
        <ele>1135.94</ele>
        <time>2017-08-22T15:16:59Z</time>
      </trkpt>
      <trkpt lat="44.91889" lon="5.18459">
        <ele>1135.45</ele>
        <time>2017-08-22T15:17:06Z</time>
      </trkpt>
      <trkpt lat="44.91886" lon="5.18464">
        <ele>1135.94</ele>
        <time>2017-08-22T15:17:11Z</time>
      </trkpt>
      <trkpt lat="44.9189" lon="5.18467">
        <ele>1135.45</ele>
        <time>2017-08-22T15:17:15Z</time>
      </trkpt>
      <trkpt lat="44.91895" lon="5.18468">
        <ele>1134.97</ele>
        <time>2017-08-22T15:17:19Z</time>
      </trkpt>
      <trkpt lat="44.91894" lon="5.18464">
        <ele>1135.45</ele>
        <time>2017-08-22T15:17:25Z</time>
      </trkpt>
      <trkpt lat="44.91894" lon="5.18467">
        <ele>1135.45</ele>
        <time>2017-08-22T15:17:27Z</time>
      </trkpt>
      <trkpt lat="44.91895" lon="5.18463">
        <ele>1135.45</ele>
        <time>2017-08-22T15:17:33Z</time>
      </trkpt>
      <trkpt lat="44.91886" lon="5.1846">
        <ele>1136.42</ele>
        <time>2017-08-22T15:17:39Z</time>
      </trkpt>
      <trkpt lat="44.91871" lon="5.18455">
        <ele>1137.86</ele>
        <time>2017-08-22T15:17:49Z</time>
      </trkpt>
      <trkpt lat="44.91843" lon="5.18442">
        <ele>1139.3</ele>
        <time>2017-08-22T15:18:07Z</time>
      </trkpt>
      <trkpt lat="44.91839" lon="5.18441">
        <ele>1138.82</ele>
        <time>2017-08-22T15:18:10Z</time>
      </trkpt>
      <trkpt lat="44.91825" lon="5.18442">
        <ele>1137.86</ele>
        <time>2017-08-22T15:18:20Z</time>
      </trkpt>
      <trkpt lat="44.91828" lon="5.18439">
        <ele>1138.34</ele>
        <time>2017-08-22T15:18:23Z</time>
      </trkpt>
      <trkpt lat="44.91825" lon="5.18433">
        <ele>1138.34</ele>
        <time>2017-08-22T15:18:27Z</time>
      </trkpt>
      <trkpt lat="44.91823" lon="5.18441">
        <ele>1137.86</ele>
        <time>2017-08-22T15:18:32Z</time>
      </trkpt>
      <trkpt lat="44.91825" lon="5.18433">
        <ele>1138.34</ele>
        <time>2017-08-22T15:18:41Z</time>
      </trkpt>
      <trkpt lat="44.91819" lon="5.1843">
        <ele>1137.86</ele>
        <time>2017-08-22T15:18:45Z</time>
      </trkpt>
      <trkpt lat="44.9179" lon="5.18414">
        <ele>1134.49</ele>
        <time>2017-08-22T15:18:52Z</time>
      </trkpt>
      <trkpt lat="44.91785" lon="5.18412">
        <ele>1134.01</ele>
        <time>2017-08-22T15:18:53Z</time>
      </trkpt>
      <trkpt lat="44.91748" lon="5.18393">
        <ele>1131.13</ele>
        <time>2017-08-22T15:18:59Z</time>
      </trkpt>
      <trkpt lat="44.91733" lon="5.18387">
        <ele>1130.17</ele>
        <time>2017-08-22T15:19:01Z</time>
      </trkpt>
      <trkpt lat="44.91692" lon="5.1837">
        <ele>1127.28</ele>
        <time>2017-08-22T15:19:07Z</time>
      </trkpt>
      <trkpt lat="44.91687" lon="5.18366">
        <ele>1127.28</ele>
        <time>2017-08-22T15:19:08Z</time>
      </trkpt>
      <trkpt lat="44.91681" lon="5.18366">
        <ele>1127.28</ele>
        <time>2017-08-22T15:19:09Z</time>
      </trkpt>
      <trkpt lat="44.91678" lon="5.18369">
        <ele>1127.28</ele>
        <time>2017-08-22T15:19:10Z</time>
      </trkpt>
      <trkpt lat="44.91678" lon="5.18375">
        <ele>1127.76</ele>
        <time>2017-08-22T15:19:11Z</time>
      </trkpt>
      <trkpt lat="44.91681" lon="5.18379">
        <ele>1127.76</ele>
        <time>2017-08-22T15:19:12Z</time>
      </trkpt>
      <trkpt lat="44.91685" lon="5.18382">
        <ele>1127.76</ele>
        <time>2017-08-22T15:19:13Z</time>
      </trkpt>
      <trkpt lat="44.91689" lon="5.18384">
        <ele>1127.28</ele>
        <time>2017-08-22T15:19:14Z</time>
      </trkpt>
      <trkpt lat="44.91694" lon="5.18385">
        <ele>1127.28</ele>
        <time>2017-08-22T15:19:15Z</time>
      </trkpt>
      <trkpt lat="44.91699" lon="5.18387">
        <ele>1126.8</ele>
        <time>2017-08-22T15:19:16Z</time>
      </trkpt>
      <trkpt lat="44.91705" lon="5.18389">
        <ele>1126.8</ele>
        <time>2017-08-22T15:19:17Z</time>
      </trkpt>
      <trkpt lat="44.91738" lon="5.18407">
        <ele>1125.36</ele>
        <time>2017-08-22T15:19:23Z</time>
      </trkpt>
      <trkpt lat="44.9176" lon="5.18426">
        <ele>1123.92</ele>
        <time>2017-08-22T15:19:27Z</time>
      </trkpt>
      <trkpt lat="44.91763" lon="5.18431">
        <ele>1123.92</ele>
        <time>2017-08-22T15:19:28Z</time>
      </trkpt>
      <trkpt lat="44.91763" lon="5.18437">
        <ele>1124.4</ele>
        <time>2017-08-22T15:19:29Z</time>
      </trkpt>
      <trkpt lat="44.9176" lon="5.1844">
        <ele>1123.92</ele>
        <time>2017-08-22T15:19:30Z</time>
      </trkpt>
      <trkpt lat="44.91756" lon="5.1844">
        <ele>1123.44</ele>
        <time>2017-08-22T15:19:31Z</time>
      </trkpt>
      <trkpt lat="44.91752" lon="5.18435">
        <ele>1122.96</ele>
        <time>2017-08-22T15:19:32Z</time>
      </trkpt>
      <trkpt lat="44.91747" lon="5.18431">
        <ele>1122.48</ele>
        <time>2017-08-22T15:19:33Z</time>
      </trkpt>
      <trkpt lat="44.91742" lon="5.18427">
        <ele>1122</ele>
        <time>2017-08-22T15:19:34Z</time>
      </trkpt>
      <trkpt lat="44.91736" lon="5.18423">
        <ele>1121.52</ele>
        <time>2017-08-22T15:19:35Z</time>
      </trkpt>
      <trkpt lat="44.91729" lon="5.18421">
        <ele>1120.55</ele>
        <time>2017-08-22T15:19:36Z</time>
      </trkpt>
      <trkpt lat="44.91722" lon="5.18419">
        <ele>1119.59</ele>
        <time>2017-08-22T15:19:37Z</time>
      </trkpt>
      <trkpt lat="44.91697" lon="5.18413">
        <ele>1116.23</ele>
        <time>2017-08-22T15:19:40Z</time>
      </trkpt>
      <trkpt lat="44.91659" lon="5.18403">
        <ele>1112.86</ele>
        <time>2017-08-22T15:19:44Z</time>
      </trkpt>
      <trkpt lat="44.9165" lon="5.18399">
        <ele>1111.9</ele>
        <time>2017-08-22T15:19:45Z</time>
      </trkpt>
      <trkpt lat="44.91642" lon="5.18393">
        <ele>1111.42</ele>
        <time>2017-08-22T15:19:46Z</time>
      </trkpt>
      <trkpt lat="44.91635" lon="5.18387">
        <ele>1110.94</ele>
        <time>2017-08-22T15:19:47Z</time>
      </trkpt>
      <trkpt lat="44.91628" lon="5.1838">
        <ele>1110.46</ele>
        <time>2017-08-22T15:19:48Z</time>
      </trkpt>
      <trkpt lat="44.91621" lon="5.18372">
        <ele>1109.5</ele>
        <time>2017-08-22T15:19:49Z</time>
      </trkpt>
      <trkpt lat="44.91615" lon="5.18363">
        <ele>1108.54</ele>
        <time>2017-08-22T15:19:50Z</time>
      </trkpt>
      <trkpt lat="44.9161" lon="5.18353">
        <ele>1108.54</ele>
        <time>2017-08-22T15:19:51Z</time>
      </trkpt>
      <trkpt lat="44.91606" lon="5.18342">
        <ele>1107.58</ele>
        <time>2017-08-22T15:19:52Z</time>
      </trkpt>
      <trkpt lat="44.91604" lon="5.18331">
        <ele>1106.61</ele>
        <time>2017-08-22T15:19:53Z</time>
      </trkpt>
      <trkpt lat="44.91602" lon="5.18319">
        <ele>1106.13</ele>
        <time>2017-08-22T15:19:54Z</time>
      </trkpt>
      <trkpt lat="44.91591" lon="5.18254">
        <ele>1103.25</ele>
        <time>2017-08-22T15:19:59Z</time>
      </trkpt>
      <trkpt lat="44.91587" lon="5.18205">
        <ele>1099.89</ele>
        <time>2017-08-22T15:20:03Z</time>
      </trkpt>
      <trkpt lat="44.91584" lon="5.18195">
        <ele>1099.89</ele>
        <time>2017-08-22T15:20:04Z</time>
      </trkpt>
      <trkpt lat="44.91579" lon="5.18188">
        <ele>1099.4</ele>
        <time>2017-08-22T15:20:05Z</time>
      </trkpt>
      <trkpt lat="44.91572" lon="5.18184">
        <ele>1099.4</ele>
        <time>2017-08-22T15:20:06Z</time>
      </trkpt>
      <trkpt lat="44.91566" lon="5.18184">
        <ele>1098.92</ele>
        <time>2017-08-22T15:20:07Z</time>
      </trkpt>
      <trkpt lat="44.9156" lon="5.18187">
        <ele>1098.44</ele>
        <time>2017-08-22T15:20:08Z</time>
      </trkpt>
      <trkpt lat="44.91554" lon="5.18191">
        <ele>1097.96</ele>
        <time>2017-08-22T15:20:09Z</time>
      </trkpt>
      <trkpt lat="44.91548" lon="5.18197">
        <ele>1097.48</ele>
        <time>2017-08-22T15:20:10Z</time>
      </trkpt>
      <trkpt lat="44.91513" lon="5.18228">
        <ele>1094.12</ele>
        <time>2017-08-22T15:20:15Z</time>
      </trkpt>
      <trkpt lat="44.91472" lon="5.18257">
        <ele>1091.23</ele>
        <time>2017-08-22T15:20:20Z</time>
      </trkpt>
      <trkpt lat="44.91465" lon="5.18259">
        <ele>1090.75</ele>
        <time>2017-08-22T15:20:21Z</time>
      </trkpt>
      <trkpt lat="44.91457" lon="5.18259">
        <ele>1090.75</ele>
        <time>2017-08-22T15:20:22Z</time>
      </trkpt>
      <trkpt lat="44.9145" lon="5.18257">
        <ele>1090.27</ele>
        <time>2017-08-22T15:20:23Z</time>
      </trkpt>
      <trkpt lat="44.91443" lon="5.18251">
        <ele>1089.79</ele>
        <time>2017-08-22T15:20:24Z</time>
      </trkpt>
      <trkpt lat="44.91437" lon="5.18244">
        <ele>1088.83</ele>
        <time>2017-08-22T15:20:25Z</time>
      </trkpt>
      <trkpt lat="44.9143" lon="5.18236">
        <ele>1087.87</ele>
        <time>2017-08-22T15:20:26Z</time>
      </trkpt>
      <trkpt lat="44.91417" lon="5.18223">
        <ele>1086.43</ele>
        <time>2017-08-22T15:20:28Z</time>
      </trkpt>
      <trkpt lat="44.9141" lon="5.18222">
        <ele>1085.95</ele>
        <time>2017-08-22T15:20:29Z</time>
      </trkpt>
      <trkpt lat="44.91403" lon="5.18225">
        <ele>1084.99</ele>
        <time>2017-08-22T15:20:30Z</time>
      </trkpt>
      <trkpt lat="44.91398" lon="5.18232">
        <ele>1084.99</ele>
        <time>2017-08-22T15:20:31Z</time>
      </trkpt>
      <trkpt lat="44.91394" lon="5.18241">
        <ele>1084.02</ele>
        <time>2017-08-22T15:20:32Z</time>
      </trkpt>
      <trkpt lat="44.91391" lon="5.18252">
        <ele>1083.54</ele>
        <time>2017-08-22T15:20:33Z</time>
      </trkpt>
      <trkpt lat="44.9139" lon="5.18263">
        <ele>1083.06</ele>
        <time>2017-08-22T15:20:34Z</time>
      </trkpt>
      <trkpt lat="44.91381" lon="5.18312">
        <ele>1080.18</ele>
        <time>2017-08-22T15:20:38Z</time>
      </trkpt>
      <trkpt lat="44.91374" lon="5.18346">
        <ele>1078.26</ele>
        <time>2017-08-22T15:20:41Z</time>
      </trkpt>
      <trkpt lat="44.9137" lon="5.18357">
        <ele>1077.78</ele>
        <time>2017-08-22T15:20:42Z</time>
      </trkpt>
      <trkpt lat="44.91365" lon="5.18367">
        <ele>1077.29</ele>
        <time>2017-08-22T15:20:43Z</time>
      </trkpt>
      <trkpt lat="44.9136" lon="5.18377">
        <ele>1076.81</ele>
        <time>2017-08-22T15:20:44Z</time>
      </trkpt>
      <trkpt lat="44.91355" lon="5.18387">
        <ele>1076.33</ele>
        <time>2017-08-22T15:20:45Z</time>
      </trkpt>
      <trkpt lat="44.9133" lon="5.18429">
        <ele>1072.97</ele>
        <time>2017-08-22T15:20:49Z</time>
      </trkpt>
      <trkpt lat="44.91297" lon="5.18485">
        <ele>1069.12</ele>
        <time>2017-08-22T15:20:54Z</time>
      </trkpt>
      <trkpt lat="44.91258" lon="5.18539">
        <ele>1066.24</ele>
        <time>2017-08-22T15:21:00Z</time>
      </trkpt>
      <trkpt lat="44.91244" lon="5.1856">
        <ele>1064.8</ele>
        <time>2017-08-22T15:21:03Z</time>
      </trkpt>
      <trkpt lat="44.91241" lon="5.18563">
        <ele>1064.8</ele>
        <time>2017-08-22T15:21:04Z</time>
      </trkpt>
      <trkpt lat="44.91237" lon="5.18566">
        <ele>1064.8</ele>
        <time>2017-08-22T15:21:05Z</time>
      </trkpt>
      <trkpt lat="44.91233" lon="5.18568">
        <ele>1064.8</ele>
        <time>2017-08-22T15:21:06Z</time>
      </trkpt>
      <trkpt lat="44.91229" lon="5.18569">
        <ele>1064.32</ele>
        <time>2017-08-22T15:21:07Z</time>
      </trkpt>
      <trkpt lat="44.91224" lon="5.1857">
        <ele>1063.84</ele>
        <time>2017-08-22T15:21:08Z</time>
      </trkpt>
      <trkpt lat="44.91212" lon="5.1857">
        <ele>1062.39</ele>
        <time>2017-08-22T15:21:10Z</time>
      </trkpt>
      <trkpt lat="44.9119" lon="5.18568">
        <ele>1059.99</ele>
        <time>2017-08-22T15:21:13Z</time>
      </trkpt>
      <trkpt lat="44.91183" lon="5.18564">
        <ele>1059.51</ele>
        <time>2017-08-22T15:21:14Z</time>
      </trkpt>
      <trkpt lat="44.91177" lon="5.1856">
        <ele>1059.03</ele>
        <time>2017-08-22T15:21:15Z</time>
      </trkpt>
      <trkpt lat="44.91152" lon="5.18538">
        <ele>1056.15</ele>
        <time>2017-08-22T15:21:19Z</time>
      </trkpt>
      <trkpt lat="44.9113" lon="5.18512">
        <ele>1054.22</ele>
        <time>2017-08-22T15:21:23Z</time>
      </trkpt>
      <trkpt lat="44.91123" lon="5.18504">
        <ele>1053.74</ele>
        <time>2017-08-22T15:21:25Z</time>
      </trkpt>
      <trkpt lat="44.91088" lon="5.18456">
        <ele>1050.38</ele>
        <time>2017-08-22T15:21:33Z</time>
      </trkpt>
      <trkpt lat="44.91059" lon="5.18415">
        <ele>1047.49</ele>
        <time>2017-08-22T15:21:38Z</time>
      </trkpt>
      <trkpt lat="44.91052" lon="5.18407">
        <ele>1047.01</ele>
        <time>2017-08-22T15:21:39Z</time>
      </trkpt>
      <trkpt lat="44.91045" lon="5.18401">
        <ele>1046.05</ele>
        <time>2017-08-22T15:21:40Z</time>
      </trkpt>
      <trkpt lat="44.91037" lon="5.18396">
        <ele>1045.57</ele>
        <time>2017-08-22T15:21:41Z</time>
      </trkpt>
      <trkpt lat="44.91023" lon="5.18387">
        <ele>1044.13</ele>
        <time>2017-08-22T15:21:43Z</time>
      </trkpt>
      <trkpt lat="44.91015" lon="5.18384">
        <ele>1043.65</ele>
        <time>2017-08-22T15:21:44Z</time>
      </trkpt>
      <trkpt lat="44.91008" lon="5.18382">
        <ele>1043.17</ele>
        <time>2017-08-22T15:21:45Z</time>
      </trkpt>
      <trkpt lat="44.91" lon="5.18381">
        <ele>1042.21</ele>
        <time>2017-08-22T15:21:46Z</time>
      </trkpt>
      <trkpt lat="44.90992" lon="5.1838">
        <ele>1041.25</ele>
        <time>2017-08-22T15:21:47Z</time>
      </trkpt>
      <trkpt lat="44.90984" lon="5.1838">
        <ele>1040.76</ele>
        <time>2017-08-22T15:21:48Z</time>
      </trkpt>
      <trkpt lat="44.90969" lon="5.18383">
        <ele>1040.28</ele>
        <time>2017-08-22T15:21:50Z</time>
      </trkpt>
      <trkpt lat="44.90962" lon="5.18385">
        <ele>1039.8</ele>
        <time>2017-08-22T15:21:51Z</time>
      </trkpt>
      <trkpt lat="44.90944" lon="5.18396">
        <ele>1038.84</ele>
        <time>2017-08-22T15:21:54Z</time>
      </trkpt>
      <trkpt lat="44.9094" lon="5.18403">
        <ele>1038.36</ele>
        <time>2017-08-22T15:21:55Z</time>
      </trkpt>
      <trkpt lat="44.90939" lon="5.18412">
        <ele>1037.88</ele>
        <time>2017-08-22T15:21:56Z</time>
      </trkpt>
      <trkpt lat="44.90939" lon="5.18421">
        <ele>1037.4</ele>
        <time>2017-08-22T15:21:57Z</time>
      </trkpt>
      <trkpt lat="44.90941" lon="5.18429">
        <ele>1037.4</ele>
        <time>2017-08-22T15:21:58Z</time>
      </trkpt>
      <trkpt lat="44.90944" lon="5.18436">
        <ele>1036.92</ele>
        <time>2017-08-22T15:21:59Z</time>
      </trkpt>
      <trkpt lat="44.90948" lon="5.18443">
        <ele>1036.44</ele>
        <time>2017-08-22T15:22:00Z</time>
      </trkpt>
      <trkpt lat="44.90954" lon="5.18449">
        <ele>1035.96</ele>
        <time>2017-08-22T15:22:01Z</time>
      </trkpt>
      <trkpt lat="44.90976" lon="5.18474">
        <ele>1033.55</ele>
        <time>2017-08-22T15:22:05Z</time>
      </trkpt>
      <trkpt lat="44.90981" lon="5.18481">
        <ele>1033.55</ele>
        <time>2017-08-22T15:22:06Z</time>
      </trkpt>
      <trkpt lat="44.90984" lon="5.18489">
        <ele>1033.07</ele>
        <time>2017-08-22T15:22:07Z</time>
      </trkpt>
      <trkpt lat="44.91002" lon="5.18535">
        <ele>1029.23</ele>
        <time>2017-08-22T15:22:12Z</time>
      </trkpt>
      <trkpt lat="44.91018" lon="5.18581">
        <ele>1026.83</ele>
        <time>2017-08-22T15:22:16Z</time>
      </trkpt>
      <trkpt lat="44.91031" lon="5.18629">
        <ele>1023.46</ele>
        <time>2017-08-22T15:22:20Z</time>
      </trkpt>
      <trkpt lat="44.91048" lon="5.18692">
        <ele>1020.58</ele>
        <time>2017-08-22T15:22:25Z</time>
      </trkpt>
      <trkpt lat="44.91074" lon="5.18757">
        <ele>1017.21</ele>
        <time>2017-08-22T15:22:31Z</time>
      </trkpt>
      <trkpt lat="44.91079" lon="5.18765">
        <ele>1016.73</ele>
        <time>2017-08-22T15:22:32Z</time>
      </trkpt>
      <trkpt lat="44.91084" lon="5.18771">
        <ele>1015.77</ele>
        <time>2017-08-22T15:22:33Z</time>
      </trkpt>
      <trkpt lat="44.91094" lon="5.18781">
        <ele>1015.29</ele>
        <time>2017-08-22T15:22:35Z</time>
      </trkpt>
      <trkpt lat="44.9111" lon="5.18794">
        <ele>1013.85</ele>
        <time>2017-08-22T15:22:38Z</time>
      </trkpt>
      <trkpt lat="44.91111" lon="5.188">
        <ele>1013.85</ele>
        <time>2017-08-22T15:22:39Z</time>
      </trkpt>
      <trkpt lat="44.91109" lon="5.18806">
        <ele>1012.89</ele>
        <time>2017-08-22T15:22:40Z</time>
      </trkpt>
      <trkpt lat="44.91108" lon="5.1881">
        <ele>1012.41</ele>
        <time>2017-08-22T15:22:41Z</time>
      </trkpt>
      <trkpt lat="44.91104" lon="5.18814">
        <ele>1011.44</ele>
        <time>2017-08-22T15:22:42Z</time>
      </trkpt>
      <trkpt lat="44.91098" lon="5.18818">
        <ele>1011.44</ele>
        <time>2017-08-22T15:22:43Z</time>
      </trkpt>
      <trkpt lat="44.91079" lon="5.18829">
        <ele>1009.52</ele>
        <time>2017-08-22T15:22:46Z</time>
      </trkpt>
      <trkpt lat="44.91072" lon="5.18831">
        <ele>1009.04</ele>
        <time>2017-08-22T15:22:47Z</time>
      </trkpt>
      <trkpt lat="44.91033" lon="5.18852">
        <ele>1005.2</ele>
        <time>2017-08-22T15:22:52Z</time>
      </trkpt>
      <trkpt lat="44.91015" lon="5.18861">
        <ele>1004.23</ele>
        <time>2017-08-22T15:22:54Z</time>
      </trkpt>
      <trkpt lat="44.90968" lon="5.1888">
        <ele>999.91</ele>
        <time>2017-08-22T15:22:59Z</time>
      </trkpt>
      <trkpt lat="44.90928" lon="5.18895">
        <ele>997.02</ele>
        <time>2017-08-22T15:23:03Z</time>
      </trkpt>
      <trkpt lat="44.90876" lon="5.18917">
        <ele>993.18</ele>
        <time>2017-08-22T15:23:08Z</time>
      </trkpt>
      <trkpt lat="44.90827" lon="5.18939">
        <ele>990.3</ele>
        <time>2017-08-22T15:23:13Z</time>
      </trkpt>
      <trkpt lat="44.90786" lon="5.18951">
        <ele>987.41</ele>
        <time>2017-08-22T15:23:17Z</time>
      </trkpt>
      <trkpt lat="44.90743" lon="5.1897">
        <ele>984.05</ele>
        <time>2017-08-22T15:23:22Z</time>
      </trkpt>
      <trkpt lat="44.90708" lon="5.18994">
        <ele>981.16</ele>
        <time>2017-08-22T15:23:27Z</time>
      </trkpt>
      <trkpt lat="44.90667" lon="5.19021">
        <ele>977.32</ele>
        <time>2017-08-22T15:23:32Z</time>
      </trkpt>
      <trkpt lat="44.90642" lon="5.19029">
        <ele>976.36</ele>
        <time>2017-08-22T15:23:35Z</time>
      </trkpt>
      <trkpt lat="44.90634" lon="5.19031">
        <ele>975.88</ele>
        <time>2017-08-22T15:23:36Z</time>
      </trkpt>
      <trkpt lat="44.9062" lon="5.19031">
        <ele>974.91</ele>
        <time>2017-08-22T15:23:38Z</time>
      </trkpt>
      <trkpt lat="44.90613" lon="5.19034">
        <ele>974.43</ele>
        <time>2017-08-22T15:23:39Z</time>
      </trkpt>
      <trkpt lat="44.90609" lon="5.19039">
        <ele>974.43</ele>
        <time>2017-08-22T15:23:40Z</time>
      </trkpt>
      <trkpt lat="44.90608" lon="5.19046">
        <ele>974.43</ele>
        <time>2017-08-22T15:23:41Z</time>
      </trkpt>
      <trkpt lat="44.9061" lon="5.1905">
        <ele>974.43</ele>
        <time>2017-08-22T15:23:42Z</time>
      </trkpt>
      <trkpt lat="44.90614" lon="5.19051">
        <ele>974.43</ele>
        <time>2017-08-22T15:23:43Z</time>
      </trkpt>
      <trkpt lat="44.90619" lon="5.19051">
        <ele>973.95</ele>
        <time>2017-08-22T15:23:44Z</time>
      </trkpt>
      <trkpt lat="44.90625" lon="5.19051">
        <ele>973.47</ele>
        <time>2017-08-22T15:23:45Z</time>
      </trkpt>
      <trkpt lat="44.90631" lon="5.19049">
        <ele>972.51</ele>
        <time>2017-08-22T15:23:46Z</time>
      </trkpt>
      <trkpt lat="44.90638" lon="5.19049">
        <ele>972.03</ele>
        <time>2017-08-22T15:23:47Z</time>
      </trkpt>
      <trkpt lat="44.90644" lon="5.19049">
        <ele>971.07</ele>
        <time>2017-08-22T15:23:48Z</time>
      </trkpt>
      <trkpt lat="44.90652" lon="5.19049">
        <ele>970.59</ele>
        <time>2017-08-22T15:23:49Z</time>
      </trkpt>
      <trkpt lat="44.90691" lon="5.19048">
        <ele>967.22</ele>
        <time>2017-08-22T15:23:54Z</time>
      </trkpt>
      <trkpt lat="44.90738" lon="5.19041">
        <ele>964.34</ele>
        <time>2017-08-22T15:23:59Z</time>
      </trkpt>
      <trkpt lat="44.90776" lon="5.19039">
        <ele>960.98</ele>
        <time>2017-08-22T15:24:03Z</time>
      </trkpt>
      <trkpt lat="44.9083" lon="5.19035">
        <ele>957.13</ele>
        <time>2017-08-22T15:24:08Z</time>
      </trkpt>
      <trkpt lat="44.90852" lon="5.19033">
        <ele>955.69</ele>
        <time>2017-08-22T15:24:10Z</time>
      </trkpt>
      <trkpt lat="44.90874" lon="5.19031">
        <ele>953.77</ele>
        <time>2017-08-22T15:24:12Z</time>
      </trkpt>
      <trkpt lat="44.90919" lon="5.19032">
        <ele>949.92</ele>
        <time>2017-08-22T15:24:16Z</time>
      </trkpt>
      <trkpt lat="44.90967" lon="5.19037">
        <ele>946.56</ele>
        <time>2017-08-22T15:24:20Z</time>
      </trkpt>
      <trkpt lat="44.91013" lon="5.19045">
        <ele>942.71</ele>
        <time>2017-08-22T15:24:24Z</time>
      </trkpt>
      <trkpt lat="44.91061" lon="5.1906">
        <ele>939.83</ele>
        <time>2017-08-22T15:24:28Z</time>
      </trkpt>
      <trkpt lat="44.91105" lon="5.19079">
        <ele>936.94</ele>
        <time>2017-08-22T15:24:32Z</time>
      </trkpt>
      <trkpt lat="44.91115" lon="5.19086">
        <ele>936.46</ele>
        <time>2017-08-22T15:24:33Z</time>
      </trkpt>
      <trkpt lat="44.91124" lon="5.19093">
        <ele>935.98</ele>
        <time>2017-08-22T15:24:34Z</time>
      </trkpt>
      <trkpt lat="44.91132" lon="5.19103">
        <ele>935.02</ele>
        <time>2017-08-22T15:24:35Z</time>
      </trkpt>
      <trkpt lat="44.91139" lon="5.19113">
        <ele>934.54</ele>
        <time>2017-08-22T15:24:36Z</time>
      </trkpt>
      <trkpt lat="44.91145" lon="5.19124">
        <ele>934.06</ele>
        <time>2017-08-22T15:24:37Z</time>
      </trkpt>
      <trkpt lat="44.9117" lon="5.19167">
        <ele>930.69</ele>
        <time>2017-08-22T15:24:41Z</time>
      </trkpt>
      <trkpt lat="44.91192" lon="5.19202">
        <ele>927.81</ele>
        <time>2017-08-22T15:24:45Z</time>
      </trkpt>
      <trkpt lat="44.91207" lon="5.19223">
        <ele>925.89</ele>
        <time>2017-08-22T15:24:48Z</time>
      </trkpt>
      <trkpt lat="44.91212" lon="5.19229">
        <ele>925.89</ele>
        <time>2017-08-22T15:24:49Z</time>
      </trkpt>
      <trkpt lat="44.91216" lon="5.19235">
        <ele>925.41</ele>
        <time>2017-08-22T15:24:50Z</time>
      </trkpt>
      <trkpt lat="44.91224" lon="5.19249">
        <ele>924.93</ele>
        <time>2017-08-22T15:24:53Z</time>
      </trkpt>
      <trkpt lat="44.91222" lon="5.19253">
        <ele>924.45</ele>
        <time>2017-08-22T15:24:54Z</time>
      </trkpt>
      <trkpt lat="44.91218" lon="5.19255">
        <ele>924.45</ele>
        <time>2017-08-22T15:24:55Z</time>
      </trkpt>
      <trkpt lat="44.91214" lon="5.19257">
        <ele>923.96</ele>
        <time>2017-08-22T15:24:56Z</time>
      </trkpt>
      <trkpt lat="44.91211" lon="5.19257">
        <ele>923.96</ele>
        <time>2017-08-22T15:24:57Z</time>
      </trkpt>
      <trkpt lat="44.91207" lon="5.19258">
        <ele>923.96</ele>
        <time>2017-08-22T15:24:58Z</time>
      </trkpt>
      <trkpt lat="44.91191" lon="5.19261">
        <ele>923</ele>
        <time>2017-08-22T15:25:02Z</time>
      </trkpt>
      <trkpt lat="44.91186" lon="5.1926">
        <ele>922.52</ele>
        <time>2017-08-22T15:25:03Z</time>
      </trkpt>
      <trkpt lat="44.91182" lon="5.1926">
        <ele>922.52</ele>
        <time>2017-08-22T15:25:04Z</time>
      </trkpt>
      <trkpt lat="44.91168" lon="5.19257">
        <ele>922.04</ele>
        <time>2017-08-22T15:25:07Z</time>
      </trkpt>
      <trkpt lat="44.91163" lon="5.19256">
        <ele>922.04</ele>
        <time>2017-08-22T15:25:08Z</time>
      </trkpt>
      <trkpt lat="44.91158" lon="5.19255">
        <ele>922.04</ele>
        <time>2017-08-22T15:25:09Z</time>
      </trkpt>
      <trkpt lat="44.91089" lon="5.19238">
        <ele>919.64</ele>
        <time>2017-08-22T15:25:22Z</time>
      </trkpt>
      <trkpt lat="44.91085" lon="5.19237">
        <ele>919.16</ele>
        <time>2017-08-22T15:25:23Z</time>
      </trkpt>
      <trkpt lat="44.91071" lon="5.19234">
        <ele>919.64</ele>
        <time>2017-08-22T15:25:28Z</time>
      </trkpt>
      <trkpt lat="44.91069" lon="5.19236">
        <ele>919.64</ele>
        <time>2017-08-22T15:25:29Z</time>
      </trkpt>
      <trkpt lat="44.91069" lon="5.19237">
        <ele>920.12</ele>
        <time>2017-08-22T15:25:30Z</time>
      </trkpt>
      <trkpt lat="44.9107" lon="5.19239">
        <ele>918.68</ele>
        <time>2017-08-22T15:25:39Z</time>
      </trkpt>
      <trkpt lat="44.91046" lon="5.19258">
        <ele>918.2</ele>
        <time>2017-08-22T15:59:50Z</time>
      </trkpt>
      <trkpt lat="44.91029" lon="5.19225">
        <ele>917.24</ele>
        <time>2017-08-22T16:00:02Z</time>
      </trkpt>
      <trkpt lat="44.90996" lon="5.19211">
        <ele>917.24</ele>
        <time>2017-08-22T16:00:12Z</time>
      </trkpt>
      <trkpt lat="44.90949" lon="5.1921">
        <ele>919.16</ele>
        <time>2017-08-22T16:00:26Z</time>
      </trkpt>
      <trkpt lat="44.90916" lon="5.19222">
        <ele>920.12</ele>
        <time>2017-08-22T16:00:38Z</time>
      </trkpt>
      <trkpt lat="44.90872" lon="5.1923">
        <ele>921.56</ele>
        <time>2017-08-22T16:00:53Z</time>
      </trkpt>
      <trkpt lat="44.90829" lon="5.19238">
        <ele>923</ele>
        <time>2017-08-22T16:01:07Z</time>
      </trkpt>
      <trkpt lat="44.90767" lon="5.19251">
        <ele>923.48</ele>
        <time>2017-08-22T16:01:23Z</time>
      </trkpt>
      <trkpt lat="44.90695" lon="5.19268">
        <ele>923.96</ele>
        <time>2017-08-22T16:01:39Z</time>
      </trkpt>
      <trkpt lat="44.90592" lon="5.193">
        <ele>924.45</ele>
        <time>2017-08-22T16:01:59Z</time>
      </trkpt>
      <trkpt lat="44.90557" lon="5.19313">
        <ele>924.45</ele>
        <time>2017-08-22T16:02:06Z</time>
      </trkpt>
      <trkpt lat="44.90483" lon="5.19338">
        <ele>925.41</ele>
        <time>2017-08-22T16:02:21Z</time>
      </trkpt>
      <trkpt lat="44.90385" lon="5.19359">
        <ele>926.85</ele>
        <time>2017-08-22T16:02:40Z</time>
      </trkpt>
      <trkpt lat="44.90288" lon="5.19357">
        <ele>926.85</ele>
        <time>2017-08-22T16:02:57Z</time>
      </trkpt>
      <trkpt lat="44.9024" lon="5.19358">
        <ele>926.37</ele>
        <time>2017-08-22T16:03:04Z</time>
      </trkpt>
      <trkpt lat="44.90126" lon="5.19389">
        <ele>927.33</ele>
        <time>2017-08-22T16:03:22Z</time>
      </trkpt>
      <trkpt lat="44.90032" lon="5.19372">
        <ele>927.81</ele>
        <time>2017-08-22T16:03:38Z</time>
      </trkpt>
      <trkpt lat="44.89931" lon="5.19345">
        <ele>928.29</ele>
        <time>2017-08-22T16:03:56Z</time>
      </trkpt>
      <trkpt lat="44.89833" lon="5.19302">
        <ele>928.77</ele>
        <time>2017-08-22T16:04:15Z</time>
      </trkpt>
      <trkpt lat="44.89744" lon="5.19256">
        <ele>928.29</ele>
        <time>2017-08-22T16:04:33Z</time>
      </trkpt>
      <trkpt lat="44.89642" lon="5.19193">
        <ele>928.77</ele>
        <time>2017-08-22T16:04:54Z</time>
      </trkpt>
      <trkpt lat="44.89546" lon="5.1913">
        <ele>929.25</ele>
        <time>2017-08-22T16:05:14Z</time>
      </trkpt>
      <trkpt lat="44.89492" lon="5.19098">
        <ele>930.21</ele>
        <time>2017-08-22T16:05:25Z</time>
      </trkpt>
      <trkpt lat="44.89487" lon="5.19095">
        <ele>930.21</ele>
        <time>2017-08-22T16:05:26Z</time>
      </trkpt>
      <trkpt lat="44.89483" lon="5.19093">
        <ele>929.73</ele>
        <time>2017-08-22T16:05:27Z</time>
      </trkpt>
      <trkpt lat="44.89478" lon="5.1909">
        <ele>930.21</ele>
        <time>2017-08-22T16:05:28Z</time>
      </trkpt>
      <trkpt lat="44.89474" lon="5.19087">
        <ele>930.21</ele>
        <time>2017-08-22T16:05:29Z</time>
      </trkpt>
      <trkpt lat="44.89404" lon="5.1905">
        <ele>931.17</ele>
        <time>2017-08-22T16:05:45Z</time>
      </trkpt>
      <trkpt lat="44.89325" lon="5.19005">
        <ele>932.62</ele>
        <time>2017-08-22T16:06:05Z</time>
      </trkpt>
      <trkpt lat="44.89321" lon="5.19003">
        <ele>932.62</ele>
        <time>2017-08-22T16:06:06Z</time>
      </trkpt>
      <trkpt lat="44.89317" lon="5.19">
        <ele>933.1</ele>
        <time>2017-08-22T16:06:07Z</time>
      </trkpt>
      <trkpt lat="44.89259" lon="5.18961">
        <ele>933.58</ele>
        <time>2017-08-22T16:06:23Z</time>
      </trkpt>
      <trkpt lat="44.89191" lon="5.1891">
        <ele>934.06</ele>
        <time>2017-08-22T16:06:41Z</time>
      </trkpt>
      <trkpt lat="44.89132" lon="5.18855">
        <ele>935.02</ele>
        <time>2017-08-22T16:06:58Z</time>
      </trkpt>
      <trkpt lat="44.89065" lon="5.18792">
        <ele>936.46</ele>
        <time>2017-08-22T16:07:17Z</time>
      </trkpt>
      <trkpt lat="44.89009" lon="5.18742">
        <ele>936.94</ele>
        <time>2017-08-22T16:07:32Z</time>
      </trkpt>
      <trkpt lat="44.88943" lon="5.1868">
        <ele>936.46</ele>
        <time>2017-08-22T16:07:49Z</time>
      </trkpt>
      <trkpt lat="44.88902" lon="5.18643">
        <ele>936.46</ele>
        <time>2017-08-22T16:07:59Z</time>
      </trkpt>
      <trkpt lat="44.88898" lon="5.1864">
        <ele>936.46</ele>
        <time>2017-08-22T16:08:00Z</time>
      </trkpt>
      <trkpt lat="44.88894" lon="5.18637">
        <ele>936.46</ele>
        <time>2017-08-22T16:08:01Z</time>
      </trkpt>
      <trkpt lat="44.88835" lon="5.18589">
        <ele>937.42</ele>
        <time>2017-08-22T16:08:18Z</time>
      </trkpt>
      <trkpt lat="44.88773" lon="5.1854">
        <ele>937.9</ele>
        <time>2017-08-22T16:08:35Z</time>
      </trkpt>
      <trkpt lat="44.88766" lon="5.18534">
        <ele>938.38</ele>
        <time>2017-08-22T16:08:37Z</time>
      </trkpt>
      <trkpt lat="44.88763" lon="5.1853">
        <ele>937.9</ele>
        <time>2017-08-22T16:08:38Z</time>
      </trkpt>
      <trkpt lat="44.88759" lon="5.18527">
        <ele>937.9</ele>
        <time>2017-08-22T16:08:39Z</time>
      </trkpt>
      <trkpt lat="44.88745" lon="5.18516">
        <ele>938.38</ele>
        <time>2017-08-22T16:08:43Z</time>
      </trkpt>
      <trkpt lat="44.88721" lon="5.18492">
        <ele>937.9</ele>
        <time>2017-08-22T16:08:50Z</time>
      </trkpt>
      <trkpt lat="44.88718" lon="5.18487">
        <ele>937.9</ele>
        <time>2017-08-22T16:08:51Z</time>
      </trkpt>
      <trkpt lat="44.88716" lon="5.18482">
        <ele>937.9</ele>
        <time>2017-08-22T16:08:52Z</time>
      </trkpt>
      <trkpt lat="44.88714" lon="5.18477">
        <ele>937.9</ele>
        <time>2017-08-22T16:08:53Z</time>
      </trkpt>
      <trkpt lat="44.88714" lon="5.18471">
        <ele>937.9</ele>
        <time>2017-08-22T16:08:54Z</time>
      </trkpt>
      <trkpt lat="44.88714" lon="5.18465">
        <ele>937.9</ele>
        <time>2017-08-22T16:08:55Z</time>
      </trkpt>
      <trkpt lat="44.88715" lon="5.18459">
        <ele>937.9</ele>
        <time>2017-08-22T16:08:56Z</time>
      </trkpt>
      <trkpt lat="44.88717" lon="5.18454">
        <ele>938.38</ele>
        <time>2017-08-22T16:08:57Z</time>
      </trkpt>
      <trkpt lat="44.88718" lon="5.18448">
        <ele>938.38</ele>
        <time>2017-08-22T16:08:58Z</time>
      </trkpt>
      <trkpt lat="44.8874" lon="5.18364">
        <ele>940.79</ele>
        <time>2017-08-22T16:09:14Z</time>
      </trkpt>
      <trkpt lat="44.88731" lon="5.18306">
        <ele>941.75</ele>
        <time>2017-08-22T16:09:25Z</time>
      </trkpt>
      <trkpt lat="44.88728" lon="5.18302">
        <ele>941.75</ele>
        <time>2017-08-22T16:09:26Z</time>
      </trkpt>
      <trkpt lat="44.88725" lon="5.183">
        <ele>941.75</ele>
        <time>2017-08-22T16:09:27Z</time>
      </trkpt>
      <trkpt lat="44.88721" lon="5.18297">
        <ele>942.23</ele>
        <time>2017-08-22T16:09:28Z</time>
      </trkpt>
      <trkpt lat="44.88718" lon="5.18295">
        <ele>942.23</ele>
        <time>2017-08-22T16:09:29Z</time>
      </trkpt>
      <trkpt lat="44.88691" lon="5.18264">
        <ele>942.71</ele>
        <time>2017-08-22T16:09:40Z</time>
      </trkpt>
      <trkpt lat="44.88681" lon="5.18255">
        <ele>942.23</ele>
        <time>2017-08-22T16:09:45Z</time>
      </trkpt>
      <trkpt lat="44.8868" lon="5.18257">
        <ele>942.71</ele>
        <time>2017-08-22T16:09:46Z</time>
      </trkpt>
      <trkpt lat="44.88679" lon="5.18259">
        <ele>942.71</ele>
        <time>2017-08-22T16:09:47Z</time>
      </trkpt>
      <trkpt lat="44.88679" lon="5.18261">
        <ele>942.71</ele>
        <time>2017-08-22T16:09:48Z</time>
      </trkpt>
      <trkpt lat="44.88683" lon="5.18264">
        <ele>943.19</ele>
        <time>2017-08-22T16:09:53Z</time>
      </trkpt>
      <trkpt lat="44.88684" lon="5.18264">
        <ele>943.19</ele>
        <time>2017-08-22T16:09:54Z</time>
      </trkpt>
      <trkpt lat="44.88685" lon="5.18262">
        <ele>943.19</ele>
        <time>2017-08-22T16:09:55Z</time>
      </trkpt>
      <trkpt lat="44.88685" lon="5.18261">
        <ele>943.19</ele>
        <time>2017-08-22T16:09:56Z</time>
      </trkpt>
      <trkpt lat="44.88685" lon="5.18258">
        <ele>942.71</ele>
        <time>2017-08-22T16:09:57Z</time>
      </trkpt>
      <trkpt lat="44.88682" lon="5.18256">
        <ele>942.71</ele>
        <time>2017-08-22T16:10:00Z</time>
      </trkpt>
      <trkpt lat="44.8868" lon="5.18256">
        <ele>942.71</ele>
        <time>2017-08-22T16:10:01Z</time>
      </trkpt>
      <trkpt lat="44.88684" lon="5.18265">
        <ele>943.19</ele>
        <time>2017-08-22T16:10:10Z</time>
      </trkpt>
      <trkpt lat="44.88687" lon="5.18264">
        <ele>943.19</ele>
        <time>2017-08-22T16:10:13Z</time>
      </trkpt>
      <trkpt lat="44.88681" lon="5.18261">
        <ele>942.71</ele>
        <time>2017-08-22T16:10:22Z</time>
      </trkpt>
      <trkpt lat="44.88682" lon="5.18262">
        <ele>942.71</ele>
        <time>2017-08-22T16:10:23Z</time>
      </trkpt>
      <trkpt lat="44.88691" lon="5.18272">
        <ele>943.19</ele>
        <time>2017-08-22T16:10:34Z</time>
      </trkpt>
      <trkpt lat="44.88686" lon="5.18261">
        <ele>942.71</ele>
        <time>2017-08-22T16:10:43Z</time>
      </trkpt>
      <trkpt lat="44.88686" lon="5.18267">
        <ele>943.19</ele>
        <time>2017-08-22T16:10:46Z</time>
      </trkpt>
      <trkpt lat="44.88694" lon="5.18276">
        <ele>943.19</ele>
        <time>2017-08-22T16:11:00Z</time>
      </trkpt>
      <trkpt lat="44.88695" lon="5.18275">
        <ele>942.71</ele>
        <time>2017-08-22T16:11:02Z</time>
      </trkpt>
      <trkpt lat="44.88687" lon="5.18255">
        <ele>942.71</ele>
        <time>2017-08-22T16:11:13Z</time>
      </trkpt>
      <trkpt lat="44.8867" lon="5.18215">
        <ele>941.27</ele>
        <time>2017-08-22T16:11:24Z</time>
      </trkpt>
      <trkpt lat="44.88645" lon="5.18162">
        <ele>940.79</ele>
        <time>2017-08-22T16:11:34Z</time>
      </trkpt>
      <trkpt lat="44.88617" lon="5.18132">
        <ele>942.71</ele>
        <time>2017-08-22T16:11:46Z</time>
      </trkpt>
      <trkpt lat="44.88594" lon="5.1811">
        <ele>944.15</ele>
        <time>2017-08-22T16:11:58Z</time>
      </trkpt>
      <trkpt lat="44.88557" lon="5.18085">
        <ele>945.11</ele>
        <time>2017-08-22T16:12:12Z</time>
      </trkpt>
      <trkpt lat="44.88511" lon="5.18066">
        <ele>947.04</ele>
        <time>2017-08-22T16:12:28Z</time>
      </trkpt>
      <trkpt lat="44.88461" lon="5.18055">
        <ele>949.92</ele>
        <time>2017-08-22T16:12:45Z</time>
      </trkpt>
      <trkpt lat="44.88399" lon="5.18052">
        <ele>951.84</ele>
        <time>2017-08-22T16:13:05Z</time>
      </trkpt>
      <trkpt lat="44.88338" lon="5.18049">
        <ele>954.73</ele>
        <time>2017-08-22T16:13:25Z</time>
      </trkpt>
      <trkpt lat="44.88326" lon="5.18049">
        <ele>955.21</ele>
        <time>2017-08-22T16:13:29Z</time>
      </trkpt>
      <trkpt lat="44.88325" lon="5.18046">
        <ele>955.21</ele>
        <time>2017-08-22T16:13:30Z</time>
      </trkpt>
      <trkpt lat="44.88325" lon="5.18042">
        <ele>955.69</ele>
        <time>2017-08-22T16:13:31Z</time>
      </trkpt>
      <trkpt lat="44.88327" lon="5.18039">
        <ele>955.69</ele>
        <time>2017-08-22T16:13:32Z</time>
      </trkpt>
      <trkpt lat="44.8833" lon="5.18037">
        <ele>956.17</ele>
        <time>2017-08-22T16:13:33Z</time>
      </trkpt>
      <trkpt lat="44.88333" lon="5.18036">
        <ele>956.17</ele>
        <time>2017-08-22T16:13:34Z</time>
      </trkpt>
      <trkpt lat="44.88336" lon="5.18036">
        <ele>956.17</ele>
        <time>2017-08-22T16:13:35Z</time>
      </trkpt>
      <trkpt lat="44.8838" lon="5.18023">
        <ele>958.57</ele>
        <time>2017-08-22T16:13:53Z</time>
      </trkpt>
      <trkpt lat="44.88421" lon="5.18007">
        <ele>960.98</ele>
        <time>2017-08-22T16:14:12Z</time>
      </trkpt>
      <trkpt lat="44.88454" lon="5.17995">
        <ele>963.86</ele>
        <time>2017-08-22T16:14:28Z</time>
      </trkpt>
      <trkpt lat="44.88489" lon="5.17978">
        <ele>966.74</ele>
        <time>2017-08-22T16:14:45Z</time>
      </trkpt>
      <trkpt lat="44.88526" lon="5.17954">
        <ele>969.15</ele>
        <time>2017-08-22T16:15:04Z</time>
      </trkpt>
      <trkpt lat="44.88557" lon="5.17934">
        <ele>972.03</ele>
        <time>2017-08-22T16:15:21Z</time>
      </trkpt>
      <trkpt lat="44.88591" lon="5.17911">
        <ele>974.91</ele>
        <time>2017-08-22T16:15:39Z</time>
      </trkpt>
      <trkpt lat="44.88599" lon="5.17889">
        <ele>976.36</ele>
        <time>2017-08-22T16:15:48Z</time>
      </trkpt>
      <trkpt lat="44.88597" lon="5.17886">
        <ele>976.84</ele>
        <time>2017-08-22T16:15:49Z</time>
      </trkpt>
      <trkpt lat="44.88567" lon="5.17865">
        <ele>978.76</ele>
        <time>2017-08-22T16:16:04Z</time>
      </trkpt>
      <trkpt lat="44.88534" lon="5.17847">
        <ele>981.64</ele>
        <time>2017-08-22T16:16:20Z</time>
      </trkpt>
      <trkpt lat="44.88499" lon="5.17815">
        <ele>983.57</ele>
        <time>2017-08-22T16:16:38Z</time>
      </trkpt>
      <trkpt lat="44.88482" lon="5.17776">
        <ele>985.97</ele>
        <time>2017-08-22T16:16:53Z</time>
      </trkpt>
      <trkpt lat="44.8849" lon="5.17735">
        <ele>987.41</ele>
        <time>2017-08-22T16:17:07Z</time>
      </trkpt>
      <trkpt lat="44.88519" lon="5.17723">
        <ele>989.81</ele>
        <time>2017-08-22T16:17:21Z</time>
      </trkpt>
      <trkpt lat="44.88546" lon="5.17696">
        <ele>993.18</ele>
        <time>2017-08-22T16:17:37Z</time>
      </trkpt>
      <trkpt lat="44.88558" lon="5.17651">
        <ele>996.06</ele>
        <time>2017-08-22T16:17:53Z</time>
      </trkpt>
      <trkpt lat="44.88564" lon="5.17602">
        <ele>998.47</ele>
        <time>2017-08-22T16:18:09Z</time>
      </trkpt>
      <trkpt lat="44.88583" lon="5.17561">
        <ele>1001.35</ele>
        <time>2017-08-22T16:18:25Z</time>
      </trkpt>
      <trkpt lat="44.88608" lon="5.17535">
        <ele>1004.23</ele>
        <time>2017-08-22T16:18:39Z</time>
      </trkpt>
      <trkpt lat="44.88603" lon="5.17504">
        <ele>1006.16</ele>
        <time>2017-08-22T16:18:50Z</time>
      </trkpt>
      <trkpt lat="44.88568" lon="5.17483">
        <ele>1008.56</ele>
        <time>2017-08-22T16:19:07Z</time>
      </trkpt>
      <trkpt lat="44.8854" lon="5.17451">
        <ele>1011.44</ele>
        <time>2017-08-22T16:19:24Z</time>
      </trkpt>
      <trkpt lat="44.88533" lon="5.17402">
        <ele>1013.85</ele>
        <time>2017-08-22T16:19:39Z</time>
      </trkpt>
      <trkpt lat="44.8853" lon="5.17371">
        <ele>1014.33</ele>
        <time>2017-08-22T16:19:50Z</time>
      </trkpt>
      <trkpt lat="44.88529" lon="5.1737">
        <ele>1014.81</ele>
        <time>2017-08-22T16:19:51Z</time>
      </trkpt>
      <trkpt lat="44.88527" lon="5.1737">
        <ele>1014.81</ele>
        <time>2017-08-22T16:19:52Z</time>
      </trkpt>
      <trkpt lat="44.88526" lon="5.17371">
        <ele>1014.81</ele>
        <time>2017-08-22T16:19:53Z</time>
      </trkpt>
      <trkpt lat="44.88525" lon="5.17373">
        <ele>1015.29</ele>
        <time>2017-08-22T16:19:54Z</time>
      </trkpt>
      <trkpt lat="44.88525" lon="5.17374">
        <ele>1015.29</ele>
        <time>2017-08-22T16:19:55Z</time>
      </trkpt>
      <trkpt lat="44.88526" lon="5.17376">
        <ele>1015.29</ele>
        <time>2017-08-22T16:19:56Z</time>
      </trkpt>
      <trkpt lat="44.88526" lon="5.17377">
        <ele>1015.29</ele>
        <time>2017-08-22T16:19:57Z</time>
      </trkpt>
      <trkpt lat="44.88526" lon="5.17379">
        <ele>1015.29</ele>
        <time>2017-08-22T16:19:58Z</time>
      </trkpt>
      <trkpt lat="44.88526" lon="5.17381">
        <ele>1014.81</ele>
        <time>2017-08-22T16:19:59Z</time>
      </trkpt>
      <trkpt lat="44.88526" lon="5.17396">
        <ele>1014.81</ele>
        <time>2017-08-22T16:20:14Z</time>
      </trkpt>
      <trkpt lat="44.88529" lon="5.17399">
        <ele>1014.81</ele>
        <time>2017-08-22T16:20:19Z</time>
      </trkpt>
      <trkpt lat="44.88531" lon="5.17381">
        <ele>1014.81</ele>
        <time>2017-08-22T16:20:31Z</time>
      </trkpt>
      <trkpt lat="44.88531" lon="5.17377">
        <ele>1014.81</ele>
        <time>2017-08-22T16:20:33Z</time>
      </trkpt>
      <trkpt lat="44.88526" lon="5.17379">
        <ele>1015.29</ele>
        <time>2017-08-22T16:20:38Z</time>
      </trkpt>
      <trkpt lat="44.88526" lon="5.17391">
        <ele>1015.29</ele>
        <time>2017-08-22T16:20:46Z</time>
      </trkpt>
      <trkpt lat="44.88532" lon="5.17382">
        <ele>1014.81</ele>
        <time>2017-08-22T16:20:54Z</time>
      </trkpt>
      <trkpt lat="44.8853" lon="5.17373">
        <ele>1014.81</ele>
        <time>2017-08-22T16:20:59Z</time>
      </trkpt>
      <trkpt lat="44.88526" lon="5.17386">
        <ele>1015.29</ele>
        <time>2017-08-22T16:21:09Z</time>
      </trkpt>
      <trkpt lat="44.88532" lon="5.17383">
        <ele>1014.81</ele>
        <time>2017-08-22T16:21:17Z</time>
      </trkpt>
      <trkpt lat="44.88531" lon="5.17378">
        <ele>1014.81</ele>
        <time>2017-08-22T16:21:22Z</time>
      </trkpt>
      <trkpt lat="44.88526" lon="5.17383">
        <ele>1015.29</ele>
        <time>2017-08-22T16:21:32Z</time>
      </trkpt>
      <trkpt lat="44.88527" lon="5.17399">
        <ele>1014.81</ele>
        <time>2017-08-22T16:21:44Z</time>
      </trkpt>
      <trkpt lat="44.88531" lon="5.17379">
        <ele>1014.81</ele>
        <time>2017-08-22T16:21:56Z</time>
      </trkpt>
      <trkpt lat="44.88526" lon="5.17379">
        <ele>1015.29</ele>
        <time>2017-08-22T16:22:06Z</time>
      </trkpt>
      <trkpt lat="44.88531" lon="5.17387">
        <ele>1014.81</ele>
        <time>2017-08-22T16:22:14Z</time>
      </trkpt>
      <trkpt lat="44.88532" lon="5.17337">
        <ele>1014.81</ele>
        <time>2017-08-22T16:22:29Z</time>
      </trkpt>
      <trkpt lat="44.88541" lon="5.1728">
        <ele>1014.81</ele>
        <time>2017-08-22T16:22:43Z</time>
      </trkpt>
      <trkpt lat="44.88556" lon="5.17218">
        <ele>1015.77</ele>
        <time>2017-08-22T16:22:59Z</time>
      </trkpt>
      <trkpt lat="44.88572" lon="5.17162">
        <ele>1017.69</ele>
        <time>2017-08-22T16:23:17Z</time>
      </trkpt>
      <trkpt lat="44.88588" lon="5.17112">
        <ele>1019.13</ele>
        <time>2017-08-22T16:23:34Z</time>
      </trkpt>
      <trkpt lat="44.88603" lon="5.17064">
        <ele>1021.06</ele>
        <time>2017-08-22T16:23:52Z</time>
      </trkpt>
      <trkpt lat="44.88613" lon="5.1701">
        <ele>1023.46</ele>
        <time>2017-08-22T16:24:12Z</time>
      </trkpt>
      <trkpt lat="44.88614" lon="5.1697">
        <ele>1025.38</ele>
        <time>2017-08-22T16:24:27Z</time>
      </trkpt>
      <trkpt lat="44.88613" lon="5.16932">
        <ele>1027.31</ele>
        <time>2017-08-22T16:24:41Z</time>
      </trkpt>
      <trkpt lat="44.88611" lon="5.16892">
        <ele>1029.23</ele>
        <time>2017-08-22T16:24:57Z</time>
      </trkpt>
      <trkpt lat="44.88609" lon="5.16859">
        <ele>1031.15</ele>
        <time>2017-08-22T16:25:12Z</time>
      </trkpt>
      <trkpt lat="44.886" lon="5.16825">
        <ele>1033.07</ele>
        <time>2017-08-22T16:25:27Z</time>
      </trkpt>
      <trkpt lat="44.88582" lon="5.16792">
        <ele>1035.48</ele>
        <time>2017-08-22T16:25:43Z</time>
      </trkpt>
      <trkpt lat="44.88562" lon="5.1676">
        <ele>1036.92</ele>
        <time>2017-08-22T16:25:59Z</time>
      </trkpt>
      <trkpt lat="44.88544" lon="5.16727">
        <ele>1038.36</ele>
        <time>2017-08-22T16:26:14Z</time>
      </trkpt>
      <trkpt lat="44.88535" lon="5.16683">
        <ele>1040.76</ele>
        <time>2017-08-22T16:26:30Z</time>
      </trkpt>
      <trkpt lat="44.88538" lon="5.16639">
        <ele>1042.69</ele>
        <time>2017-08-22T16:26:45Z</time>
      </trkpt>
      <trkpt lat="44.88553" lon="5.16592">
        <ele>1046.05</ele>
        <time>2017-08-22T16:27:03Z</time>
      </trkpt>
      <trkpt lat="44.8858" lon="5.16553">
        <ele>1048.45</ele>
        <time>2017-08-22T16:27:22Z</time>
      </trkpt>
      <trkpt lat="44.88602" lon="5.16513">
        <ele>1051.34</ele>
        <time>2017-08-22T16:27:40Z</time>
      </trkpt>
      <trkpt lat="44.88621" lon="5.16471">
        <ele>1054.7</ele>
        <time>2017-08-22T16:27:58Z</time>
      </trkpt>
      <trkpt lat="44.88624" lon="5.1642">
        <ele>1056.63</ele>
        <time>2017-08-22T16:28:16Z</time>
      </trkpt>
      <trkpt lat="44.88624" lon="5.16369">
        <ele>1059.51</ele>
        <time>2017-08-22T16:28:34Z</time>
      </trkpt>
      <trkpt lat="44.88629" lon="5.16317">
        <ele>1062.39</ele>
        <time>2017-08-22T16:28:52Z</time>
      </trkpt>
      <trkpt lat="44.88637" lon="5.16275">
        <ele>1065.76</ele>
        <time>2017-08-22T16:29:07Z</time>
      </trkpt>
      <trkpt lat="44.88641" lon="5.16229">
        <ele>1068.16</ele>
        <time>2017-08-22T16:29:23Z</time>
      </trkpt>
      <trkpt lat="44.88632" lon="5.16188">
        <ele>1070.08</ele>
        <time>2017-08-22T16:29:41Z</time>
      </trkpt>
      <trkpt lat="44.8863" lon="5.16183">
        <ele>1070.57</ele>
        <time>2017-08-22T16:29:44Z</time>
      </trkpt>
      <trkpt lat="44.8862" lon="5.16177">
        <ele>1071.53</ele>
        <time>2017-08-22T16:29:57Z</time>
      </trkpt>
      <trkpt lat="44.88627" lon="5.16193">
        <ele>1070.57</ele>
        <time>2017-08-22T16:30:11Z</time>
      </trkpt>
      <trkpt lat="44.88628" lon="5.16195">
        <ele>1070.08</ele>
        <time>2017-08-22T16:30:13Z</time>
      </trkpt>
      <trkpt lat="44.8863" lon="5.16186">
        <ele>1070.57</ele>
        <time>2017-08-22T16:30:19Z</time>
      </trkpt>
      <trkpt lat="44.88626" lon="5.16179">
        <ele>1071.05</ele>
        <time>2017-08-22T16:30:22Z</time>
      </trkpt>
      <trkpt lat="44.88609" lon="5.16145">
        <ele>1072.97</ele>
        <time>2017-08-22T16:30:39Z</time>
      </trkpt>
      <trkpt lat="44.88594" lon="5.16115">
        <ele>1074.89</ele>
        <time>2017-08-22T16:30:53Z</time>
      </trkpt>
      <trkpt lat="44.88584" lon="5.16085">
        <ele>1076.33</ele>
        <time>2017-08-22T16:31:06Z</time>
      </trkpt>
      <trkpt lat="44.88586" lon="5.16067">
        <ele>1077.29</ele>
        <time>2017-08-22T16:31:12Z</time>
      </trkpt>
      <trkpt lat="44.88597" lon="5.1605">
        <ele>1078.26</ele>
        <time>2017-08-22T16:31:19Z</time>
      </trkpt>
      <trkpt lat="44.88606" lon="5.16035">
        <ele>1079.22</ele>
        <time>2017-08-22T16:31:25Z</time>
      </trkpt>
      <trkpt lat="44.8863" lon="5.15986">
        <ele>1080.18</ele>
        <time>2017-08-22T16:31:40Z</time>
      </trkpt>
      <trkpt lat="44.8865" lon="5.15944">
        <ele>1081.14</ele>
        <time>2017-08-22T16:31:51Z</time>
      </trkpt>
      <trkpt lat="44.88668" lon="5.15887">
        <ele>1082.58</ele>
        <time>2017-08-22T16:32:03Z</time>
      </trkpt>
      <trkpt lat="44.88681" lon="5.15842">
        <ele>1083.54</ele>
        <time>2017-08-22T16:32:13Z</time>
      </trkpt>
      <trkpt lat="44.88671" lon="5.1583">
        <ele>1083.54</ele>
        <time>2017-08-22T16:32:17Z</time>
      </trkpt>
      <trkpt lat="44.88667" lon="5.15855">
        <ele>1083.54</ele>
        <time>2017-08-22T16:32:25Z</time>
      </trkpt>
      <trkpt lat="44.88668" lon="5.15846">
        <ele>1083.54</ele>
        <time>2017-08-22T16:32:30Z</time>
      </trkpt>
      <trkpt lat="44.8867" lon="5.15854">
        <ele>1083.54</ele>
        <time>2017-08-22T16:32:35Z</time>
      </trkpt>
      <trkpt lat="44.88673" lon="5.15847">
        <ele>1084.02</ele>
        <time>2017-08-22T16:32:38Z</time>
      </trkpt>
      <trkpt lat="44.88679" lon="5.15833">
        <ele>1083.54</ele>
        <time>2017-08-22T16:32:48Z</time>
      </trkpt>
      <trkpt lat="44.88675" lon="5.15844">
        <ele>1084.02</ele>
        <time>2017-08-22T16:32:57Z</time>
      </trkpt>
      <trkpt lat="44.88676" lon="5.15845">
        <ele>1084.02</ele>
        <time>2017-08-22T16:33:19Z</time>
      </trkpt>
      <trkpt lat="44.88676" lon="5.15845">
        <ele>1084.02</ele>
        <time>2017-08-22T16:33:38Z</time>
      </trkpt>
      <trkpt lat="44.88676" lon="5.15846">
        <ele>1084.02</ele>
        <time>2017-08-22T16:33:49Z</time>
      </trkpt>
      <trkpt lat="44.88681" lon="5.15847">
        <ele>1084.02</ele>
        <time>2017-08-22T16:33:52Z</time>
      </trkpt>
      <trkpt lat="44.88706" lon="5.15807">
        <ele>1082.58</ele>
        <time>2017-08-22T16:34:05Z</time>
      </trkpt>
      <trkpt lat="44.88716" lon="5.15789">
        <ele>1081.14</ele>
        <time>2017-08-22T16:34:08Z</time>
      </trkpt>
      <trkpt lat="44.8872" lon="5.15782">
        <ele>1080.18</ele>
        <time>2017-08-22T16:34:09Z</time>
      </trkpt>
      <trkpt lat="44.88727" lon="5.15766">
        <ele>1078.74</ele>
        <time>2017-08-22T16:34:11Z</time>
      </trkpt>
      <trkpt lat="44.88729" lon="5.15757">
        <ele>1078.26</ele>
        <time>2017-08-22T16:34:12Z</time>
      </trkpt>
      <trkpt lat="44.8873" lon="5.15747">
        <ele>1077.78</ele>
        <time>2017-08-22T16:34:13Z</time>
      </trkpt>
      <trkpt lat="44.88737" lon="5.1569">
        <ele>1074.41</ele>
        <time>2017-08-22T16:34:18Z</time>
      </trkpt>
      <trkpt lat="44.88741" lon="5.15677">
        <ele>1072.97</ele>
        <time>2017-08-22T16:34:19Z</time>
      </trkpt>
      <trkpt lat="44.88747" lon="5.15666">
        <ele>1072.49</ele>
        <time>2017-08-22T16:34:20Z</time>
      </trkpt>
      <trkpt lat="44.88755" lon="5.15657">
        <ele>1071.53</ele>
        <time>2017-08-22T16:34:21Z</time>
      </trkpt>
      <trkpt lat="44.88764" lon="5.15649">
        <ele>1071.05</ele>
        <time>2017-08-22T16:34:22Z</time>
      </trkpt>
      <trkpt lat="44.88772" lon="5.15639">
        <ele>1070.57</ele>
        <time>2017-08-22T16:34:23Z</time>
      </trkpt>
      <trkpt lat="44.88778" lon="5.15628">
        <ele>1069.12</ele>
        <time>2017-08-22T16:34:24Z</time>
      </trkpt>
      <trkpt lat="44.88783" lon="5.15614">
        <ele>1068.16</ele>
        <time>2017-08-22T16:34:25Z</time>
      </trkpt>
      <trkpt lat="44.88786" lon="5.15599">
        <ele>1067.68</ele>
        <time>2017-08-22T16:34:26Z</time>
      </trkpt>
      <trkpt lat="44.88788" lon="5.15584">
        <ele>1066.72</ele>
        <time>2017-08-22T16:34:27Z</time>
      </trkpt>
      <trkpt lat="44.88793" lon="5.15539">
        <ele>1064.32</ele>
        <time>2017-08-22T16:34:30Z</time>
      </trkpt>
      <trkpt lat="44.88806" lon="5.15495">
        <ele>1060.95</ele>
        <time>2017-08-22T16:34:33Z</time>
      </trkpt>
      <trkpt lat="44.88813" lon="5.15482">
        <ele>1059.51</ele>
        <time>2017-08-22T16:34:34Z</time>
      </trkpt>
      <trkpt lat="44.88822" lon="5.15472">
        <ele>1058.55</ele>
        <time>2017-08-22T16:34:35Z</time>
      </trkpt>
      <trkpt lat="44.88842" lon="5.15454">
        <ele>1057.11</ele>
        <time>2017-08-22T16:34:37Z</time>
      </trkpt>
      <trkpt lat="44.8885" lon="5.15442">
        <ele>1056.15</ele>
        <time>2017-08-22T16:34:38Z</time>
      </trkpt>
      <trkpt lat="44.88857" lon="5.15429">
        <ele>1055.67</ele>
        <time>2017-08-22T16:34:39Z</time>
      </trkpt>
      <trkpt lat="44.88862" lon="5.15414">
        <ele>1055.18</ele>
        <time>2017-08-22T16:34:40Z</time>
      </trkpt>
      <trkpt lat="44.88866" lon="5.15398">
        <ele>1054.22</ele>
        <time>2017-08-22T16:34:41Z</time>
      </trkpt>
      <trkpt lat="44.88871" lon="5.15382">
        <ele>1053.26</ele>
        <time>2017-08-22T16:34:42Z</time>
      </trkpt>
      <trkpt lat="44.88882" lon="5.15314">
        <ele>1049.9</ele>
        <time>2017-08-22T16:34:46Z</time>
      </trkpt>
      <trkpt lat="44.88891" lon="5.15264">
        <ele>1046.05</ele>
        <time>2017-08-22T16:34:49Z</time>
      </trkpt>
      <trkpt lat="44.88902" lon="5.15197">
        <ele>1043.65</ele>
        <time>2017-08-22T16:34:53Z</time>
      </trkpt>
      <trkpt lat="44.88913" lon="5.15107">
        <ele>1040.76</ele>
        <time>2017-08-22T16:34:59Z</time>
      </trkpt>
      <trkpt lat="44.88922" lon="5.15033">
        <ele>1038.36</ele>
        <time>2017-08-22T16:35:04Z</time>
      </trkpt>
      <trkpt lat="44.88931" lon="5.14975">
        <ele>1036.44</ele>
        <time>2017-08-22T16:35:08Z</time>
      </trkpt>
      <trkpt lat="44.88943" lon="5.14905">
        <ele>1034.04</ele>
        <time>2017-08-22T16:35:13Z</time>
      </trkpt>
      <trkpt lat="44.88947" lon="5.14892">
        <ele>1034.04</ele>
        <time>2017-08-22T16:35:14Z</time>
      </trkpt>
      <trkpt lat="44.88952" lon="5.14881">
        <ele>1035</ele>
        <time>2017-08-22T16:35:15Z</time>
      </trkpt>
      <trkpt lat="44.88957" lon="5.14871">
        <ele>1035</ele>
        <time>2017-08-22T16:35:16Z</time>
      </trkpt>
      <trkpt lat="44.88962" lon="5.14862">
        <ele>1035</ele>
        <time>2017-08-22T16:35:17Z</time>
      </trkpt>
      <trkpt lat="44.88979" lon="5.1483">
        <ele>1035.96</ele>
        <time>2017-08-22T16:35:21Z</time>
      </trkpt>
      <trkpt lat="44.88985" lon="5.14814">
        <ele>1035.96</ele>
        <time>2017-08-22T16:35:23Z</time>
      </trkpt>
      <trkpt lat="44.88988" lon="5.14806">
        <ele>1035.96</ele>
        <time>2017-08-22T16:35:24Z</time>
      </trkpt>
      <trkpt lat="44.88992" lon="5.14789">
        <ele>1035.48</ele>
        <time>2017-08-22T16:35:26Z</time>
      </trkpt>
      <trkpt lat="44.88998" lon="5.14758">
        <ele>1035.48</ele>
        <time>2017-08-22T16:35:30Z</time>
      </trkpt>
      <trkpt lat="44.89" lon="5.1475">
        <ele>1035.48</ele>
        <time>2017-08-22T16:35:31Z</time>
      </trkpt>
      <trkpt lat="44.89002" lon="5.14742">
        <ele>1035.48</ele>
        <time>2017-08-22T16:35:32Z</time>
      </trkpt>
      <trkpt lat="44.8902" lon="5.14682">
        <ele>1035</ele>
        <time>2017-08-22T16:35:39Z</time>
      </trkpt>
      <trkpt lat="44.89021" lon="5.14672">
        <ele>1034.52</ele>
        <time>2017-08-22T16:35:40Z</time>
      </trkpt>
      <trkpt lat="44.89031" lon="5.14545">
        <ele>1033.07</ele>
        <time>2017-08-22T16:35:53Z</time>
      </trkpt>
      <trkpt lat="44.89033" lon="5.1452">
        <ele>1033.07</ele>
        <time>2017-08-22T16:35:56Z</time>
      </trkpt>
      <trkpt lat="44.89032" lon="5.14511">
        <ele>1032.59</ele>
        <time>2017-08-22T16:35:57Z</time>
      </trkpt>
      <trkpt lat="44.8903" lon="5.14502">
        <ele>1032.59</ele>
        <time>2017-08-22T16:35:58Z</time>
      </trkpt>
      <trkpt lat="44.89027" lon="5.14494">
        <ele>1032.11</ele>
        <time>2017-08-22T16:35:59Z</time>
      </trkpt>
      <trkpt lat="44.89023" lon="5.14486">
        <ele>1032.11</ele>
        <time>2017-08-22T16:36:00Z</time>
      </trkpt>
      <trkpt lat="44.89018" lon="5.14479">
        <ele>1031.15</ele>
        <time>2017-08-22T16:36:01Z</time>
      </trkpt>
      <trkpt lat="44.89012" lon="5.14474">
        <ele>1031.15</ele>
        <time>2017-08-22T16:36:02Z</time>
      </trkpt>
      <trkpt lat="44.89005" lon="5.14471">
        <ele>1030.67</ele>
        <time>2017-08-22T16:36:03Z</time>
      </trkpt>
      <trkpt lat="44.88998" lon="5.14471">
        <ele>1030.19</ele>
        <time>2017-08-22T16:36:04Z</time>
      </trkpt>
      <trkpt lat="44.8899" lon="5.1447">
        <ele>1029.23</ele>
        <time>2017-08-22T16:36:05Z</time>
      </trkpt>
      <trkpt lat="44.88982" lon="5.14468">
        <ele>1028.27</ele>
        <time>2017-08-22T16:36:06Z</time>
      </trkpt>
      <trkpt lat="44.88974" lon="5.14464">
        <ele>1027.31</ele>
        <time>2017-08-22T16:36:07Z</time>
      </trkpt>
      <trkpt lat="44.88967" lon="5.14456">
        <ele>1026.83</ele>
        <time>2017-08-22T16:36:08Z</time>
      </trkpt>
      <trkpt lat="44.88961" lon="5.14447">
        <ele>1025.86</ele>
        <time>2017-08-22T16:36:09Z</time>
      </trkpt>
      <trkpt lat="44.88955" lon="5.14437">
        <ele>1025.38</ele>
        <time>2017-08-22T16:36:10Z</time>
      </trkpt>
      <trkpt lat="44.88948" lon="5.14429">
        <ele>1024.9</ele>
        <time>2017-08-22T16:36:11Z</time>
      </trkpt>
      <trkpt lat="44.8894" lon="5.14421">
        <ele>1023.46</ele>
        <time>2017-08-22T16:36:12Z</time>
      </trkpt>
      <trkpt lat="44.88932" lon="5.14415">
        <ele>1022.98</ele>
        <time>2017-08-22T16:36:13Z</time>
      </trkpt>
      <trkpt lat="44.88923" lon="5.14409">
        <ele>1022.02</ele>
        <time>2017-08-22T16:36:14Z</time>
      </trkpt>
      <trkpt lat="44.88886" lon="5.14388">
        <ele>1019.13</ele>
        <time>2017-08-22T16:36:18Z</time>
      </trkpt>
      <trkpt lat="44.88875" lon="5.14387">
        <ele>1018.17</ele>
        <time>2017-08-22T16:36:19Z</time>
      </trkpt>
      <trkpt lat="44.88865" lon="5.14388">
        <ele>1017.69</ele>
        <time>2017-08-22T16:36:20Z</time>
      </trkpt>
      <trkpt lat="44.88855" lon="5.14391">
        <ele>1017.21</ele>
        <time>2017-08-22T16:36:21Z</time>
      </trkpt>
      <trkpt lat="44.88844" lon="5.14394">
        <ele>1015.77</ele>
        <time>2017-08-22T16:36:22Z</time>
      </trkpt>
      <trkpt lat="44.88823" lon="5.14397">
        <ele>1013.85</ele>
        <time>2017-08-22T16:36:24Z</time>
      </trkpt>
      <trkpt lat="44.88812" lon="5.14397">
        <ele>1013.37</ele>
        <time>2017-08-22T16:36:25Z</time>
      </trkpt>
      <trkpt lat="44.88801" lon="5.14394">
        <ele>1012.89</ele>
        <time>2017-08-22T16:36:26Z</time>
      </trkpt>
      <trkpt lat="44.88791" lon="5.14389">
        <ele>1011.44</ele>
        <time>2017-08-22T16:36:27Z</time>
      </trkpt>
      <trkpt lat="44.8878" lon="5.14382">
        <ele>1010.48</ele>
        <time>2017-08-22T16:36:28Z</time>
      </trkpt>
      <trkpt lat="44.88771" lon="5.14374">
        <ele>1009.52</ele>
        <time>2017-08-22T16:36:29Z</time>
      </trkpt>
      <trkpt lat="44.88761" lon="5.14365">
        <ele>1009.04</ele>
        <time>2017-08-22T16:36:30Z</time>
      </trkpt>
      <trkpt lat="44.88743" lon="5.14349">
        <ele>1008.08</ele>
        <time>2017-08-22T16:36:32Z</time>
      </trkpt>
      <trkpt lat="44.88734" lon="5.14345">
        <ele>1007.12</ele>
        <time>2017-08-22T16:36:33Z</time>
      </trkpt>
      <trkpt lat="44.88725" lon="5.14343">
        <ele>1007.12</ele>
        <time>2017-08-22T16:36:34Z</time>
      </trkpt>
      <trkpt lat="44.88718" lon="5.14341">
        <ele>1007.12</ele>
        <time>2017-08-22T16:36:35Z</time>
      </trkpt>
      <trkpt lat="44.88712" lon="5.14337">
        <ele>1006.64</ele>
        <time>2017-08-22T16:36:36Z</time>
      </trkpt>
      <trkpt lat="44.88711" lon="5.14332">
        <ele>1006.64</ele>
        <time>2017-08-22T16:36:37Z</time>
      </trkpt>
      <trkpt lat="44.88712" lon="5.14326">
        <ele>1006.16</ele>
        <time>2017-08-22T16:36:38Z</time>
      </trkpt>
      <trkpt lat="44.88717" lon="5.14323">
        <ele>1006.16</ele>
        <time>2017-08-22T16:36:39Z</time>
      </trkpt>
      <trkpt lat="44.88722" lon="5.14323">
        <ele>1005.68</ele>
        <time>2017-08-22T16:36:40Z</time>
      </trkpt>
      <trkpt lat="44.88733" lon="5.14323">
        <ele>1004.23</ele>
        <time>2017-08-22T16:36:42Z</time>
      </trkpt>
      <trkpt lat="44.88778" lon="5.14331">
        <ele>1000.87</ele>
        <time>2017-08-22T16:36:48Z</time>
      </trkpt>
      <trkpt lat="44.88815" lon="5.14333">
        <ele>997.99</ele>
        <time>2017-08-22T16:36:52Z</time>
      </trkpt>
      <trkpt lat="44.88824" lon="5.1433">
        <ele>997.51</ele>
        <time>2017-08-22T16:36:53Z</time>
      </trkpt>
      <trkpt lat="44.88833" lon="5.14325">
        <ele>996.54</ele>
        <time>2017-08-22T16:36:54Z</time>
      </trkpt>
      <trkpt lat="44.88842" lon="5.14319">
        <ele>996.06</ele>
        <time>2017-08-22T16:36:55Z</time>
      </trkpt>
      <trkpt lat="44.8885" lon="5.14312">
        <ele>995.1</ele>
        <time>2017-08-22T16:36:56Z</time>
      </trkpt>
      <trkpt lat="44.88894" lon="5.14274">
        <ele>991.26</ele>
        <time>2017-08-22T16:37:01Z</time>
      </trkpt>
      <trkpt lat="44.88911" lon="5.14257">
        <ele>990.3</ele>
        <time>2017-08-22T16:37:03Z</time>
      </trkpt>
      <trkpt lat="44.88933" lon="5.14229">
        <ele>989.33</ele>
        <time>2017-08-22T16:37:06Z</time>
      </trkpt>
      <trkpt lat="44.88938" lon="5.14217">
        <ele>988.85</ele>
        <time>2017-08-22T16:37:07Z</time>
      </trkpt>
      <trkpt lat="44.88942" lon="5.14204">
        <ele>988.85</ele>
        <time>2017-08-22T16:37:08Z</time>
      </trkpt>
      <trkpt lat="44.88942" lon="5.14189">
        <ele>987.41</ele>
        <time>2017-08-22T16:37:09Z</time>
      </trkpt>
      <trkpt lat="44.88939" lon="5.14175">
        <ele>986.45</ele>
        <time>2017-08-22T16:37:10Z</time>
      </trkpt>
      <trkpt lat="44.88934" lon="5.14162">
        <ele>985.49</ele>
        <time>2017-08-22T16:37:11Z</time>
      </trkpt>
      <trkpt lat="44.88928" lon="5.14149">
        <ele>984.05</ele>
        <time>2017-08-22T16:37:12Z</time>
      </trkpt>
      <trkpt lat="44.88919" lon="5.14122">
        <ele>982.12</ele>
        <time>2017-08-22T16:37:14Z</time>
      </trkpt>
      <trkpt lat="44.88916" lon="5.14108">
        <ele>980.68</ele>
        <time>2017-08-22T16:37:15Z</time>
      </trkpt>
      <trkpt lat="44.88915" lon="5.14093">
        <ele>980.68</ele>
        <time>2017-08-22T16:37:16Z</time>
      </trkpt>
      <trkpt lat="44.88916" lon="5.14078">
        <ele>980.2</ele>
        <time>2017-08-22T16:37:17Z</time>
      </trkpt>
      <trkpt lat="44.88918" lon="5.14063">
        <ele>980.2</ele>
        <time>2017-08-22T16:37:18Z</time>
      </trkpt>
      <trkpt lat="44.8892" lon="5.14047">
        <ele>979.72</ele>
        <time>2017-08-22T16:37:19Z</time>
      </trkpt>
      <trkpt lat="44.88921" lon="5.14032">
        <ele>978.76</ele>
        <time>2017-08-22T16:37:20Z</time>
      </trkpt>
      <trkpt lat="44.88919" lon="5.14017">
        <ele>977.8</ele>
        <time>2017-08-22T16:37:21Z</time>
      </trkpt>
      <trkpt lat="44.88915" lon="5.14002">
        <ele>977.32</ele>
        <time>2017-08-22T16:37:22Z</time>
      </trkpt>
      <trkpt lat="44.88908" lon="5.1399">
        <ele>975.88</ele>
        <time>2017-08-22T16:37:23Z</time>
      </trkpt>
      <trkpt lat="44.88901" lon="5.13978">
        <ele>973.95</ele>
        <time>2017-08-22T16:37:24Z</time>
      </trkpt>
      <trkpt lat="44.8886" lon="5.13924">
        <ele>970.59</ele>
        <time>2017-08-22T16:37:29Z</time>
      </trkpt>
      <trkpt lat="44.88851" lon="5.13914">
        <ele>970.59</ele>
        <time>2017-08-22T16:37:30Z</time>
      </trkpt>
      <trkpt lat="44.88827" lon="5.13879">
        <ele>967.22</ele>
        <time>2017-08-22T16:37:33Z</time>
      </trkpt>
      <trkpt lat="44.88804" lon="5.13845">
        <ele>965.3</ele>
        <time>2017-08-22T16:37:36Z</time>
      </trkpt>
      <trkpt lat="44.88796" lon="5.13835">
        <ele>964.82</ele>
        <time>2017-08-22T16:37:37Z</time>
      </trkpt>
      <trkpt lat="44.88786" lon="5.13828">
        <ele>963.38</ele>
        <time>2017-08-22T16:37:38Z</time>
      </trkpt>
      <trkpt lat="44.88776" lon="5.13822">
        <ele>962.9</ele>
        <time>2017-08-22T16:37:39Z</time>
      </trkpt>
      <trkpt lat="44.88766" lon="5.13817">
        <ele>961.94</ele>
        <time>2017-08-22T16:37:40Z</time>
      </trkpt>
      <trkpt lat="44.88755" lon="5.13815">
        <ele>961.46</ele>
        <time>2017-08-22T16:37:41Z</time>
      </trkpt>
      <trkpt lat="44.88743" lon="5.13813">
        <ele>960.98</ele>
        <time>2017-08-22T16:37:42Z</time>
      </trkpt>
      <trkpt lat="44.88679" lon="5.13801">
        <ele>957.61</ele>
        <time>2017-08-22T16:37:49Z</time>
      </trkpt>
      <trkpt lat="44.8865" lon="5.13801">
        <ele>955.21</ele>
        <time>2017-08-22T16:37:53Z</time>
      </trkpt>
      <trkpt lat="44.88644" lon="5.13799">
        <ele>955.21</ele>
        <time>2017-08-22T16:37:54Z</time>
      </trkpt>
      <trkpt lat="44.8864" lon="5.13795">
        <ele>955.21</ele>
        <time>2017-08-22T16:37:55Z</time>
      </trkpt>
      <trkpt lat="44.8864" lon="5.13788">
        <ele>954.73</ele>
        <time>2017-08-22T16:37:56Z</time>
      </trkpt>
      <trkpt lat="44.88643" lon="5.13782">
        <ele>954.73</ele>
        <time>2017-08-22T16:37:57Z</time>
      </trkpt>
      <trkpt lat="44.88649" lon="5.13779">
        <ele>954.25</ele>
        <time>2017-08-22T16:37:58Z</time>
      </trkpt>
      <trkpt lat="44.88655" lon="5.13777">
        <ele>953.77</ele>
        <time>2017-08-22T16:37:59Z</time>
      </trkpt>
      <trkpt lat="44.88683" lon="5.13765">
        <ele>951.36</ele>
        <time>2017-08-22T16:38:03Z</time>
      </trkpt>
      <trkpt lat="44.88706" lon="5.13749">
        <ele>948.96</ele>
        <time>2017-08-22T16:38:06Z</time>
      </trkpt>
      <trkpt lat="44.88713" lon="5.13742">
        <ele>948.48</ele>
        <time>2017-08-22T16:38:07Z</time>
      </trkpt>
      <trkpt lat="44.88748" lon="5.13696">
        <ele>945.11</ele>
        <time>2017-08-22T16:38:12Z</time>
      </trkpt>
      <trkpt lat="44.88785" lon="5.13647">
        <ele>941.75</ele>
        <time>2017-08-22T16:38:17Z</time>
      </trkpt>
      <trkpt lat="44.88817" lon="5.13605">
        <ele>938.38</ele>
        <time>2017-08-22T16:38:21Z</time>
      </trkpt>
      <trkpt lat="44.88865" lon="5.13541">
        <ele>935.5</ele>
        <time>2017-08-22T16:38:27Z</time>
      </trkpt>
      <trkpt lat="44.88914" lon="5.13465">
        <ele>931.65</ele>
        <time>2017-08-22T16:38:34Z</time>
      </trkpt>
      <trkpt lat="44.88947" lon="5.13428">
        <ele>928.29</ele>
        <time>2017-08-22T16:38:38Z</time>
      </trkpt>
      <trkpt lat="44.8898" lon="5.134">
        <ele>924.93</ele>
        <time>2017-08-22T16:38:42Z</time>
      </trkpt>
      <trkpt lat="44.88987" lon="5.13392">
        <ele>924.45</ele>
        <time>2017-08-22T16:38:43Z</time>
      </trkpt>
      <trkpt lat="44.88991" lon="5.13381">
        <ele>923</ele>
        <time>2017-08-22T16:38:44Z</time>
      </trkpt>
      <trkpt lat="44.88992" lon="5.13371">
        <ele>922.52</ele>
        <time>2017-08-22T16:38:45Z</time>
      </trkpt>
      <trkpt lat="44.8899" lon="5.1336">
        <ele>922.04</ele>
        <time>2017-08-22T16:38:46Z</time>
      </trkpt>
      <trkpt lat="44.88987" lon="5.1335">
        <ele>922.04</ele>
        <time>2017-08-22T16:38:47Z</time>
      </trkpt>
      <trkpt lat="44.88983" lon="5.1334">
        <ele>921.08</ele>
        <time>2017-08-22T16:38:48Z</time>
      </trkpt>
      <trkpt lat="44.88978" lon="5.1333">
        <ele>920.6</ele>
        <time>2017-08-22T16:38:49Z</time>
      </trkpt>
      <trkpt lat="44.88972" lon="5.1332">
        <ele>919.64</ele>
        <time>2017-08-22T16:38:50Z</time>
      </trkpt>
      <trkpt lat="44.88966" lon="5.13311">
        <ele>919.16</ele>
        <time>2017-08-22T16:38:51Z</time>
      </trkpt>
      <trkpt lat="44.88954" lon="5.13291">
        <ele>918.2</ele>
        <time>2017-08-22T16:38:53Z</time>
      </trkpt>
      <trkpt lat="44.8895" lon="5.13279">
        <ele>917.24</ele>
        <time>2017-08-22T16:38:54Z</time>
      </trkpt>
      <trkpt lat="44.88947" lon="5.13265">
        <ele>916.27</ele>
        <time>2017-08-22T16:38:55Z</time>
      </trkpt>
      <trkpt lat="44.88946" lon="5.1325">
        <ele>915.31</ele>
        <time>2017-08-22T16:38:56Z</time>
      </trkpt>
      <trkpt lat="44.88946" lon="5.13236">
        <ele>914.83</ele>
        <time>2017-08-22T16:38:57Z</time>
      </trkpt>
      <trkpt lat="44.88946" lon="5.13221">
        <ele>913.39</ele>
        <time>2017-08-22T16:38:58Z</time>
      </trkpt>
      <trkpt lat="44.88946" lon="5.13191">
        <ele>911.95</ele>
        <time>2017-08-22T16:39:00Z</time>
      </trkpt>
      <trkpt lat="44.88944" lon="5.13177">
        <ele>911.47</ele>
        <time>2017-08-22T16:39:01Z</time>
      </trkpt>
      <trkpt lat="44.88934" lon="5.13152">
        <ele>909.54</ele>
        <time>2017-08-22T16:39:03Z</time>
      </trkpt>
      <trkpt lat="44.88926" lon="5.13142">
        <ele>908.1</ele>
        <time>2017-08-22T16:39:04Z</time>
      </trkpt>
      <trkpt lat="44.88918" lon="5.13133">
        <ele>908.1</ele>
        <time>2017-08-22T16:39:05Z</time>
      </trkpt>
      <trkpt lat="44.8891" lon="5.13126">
        <ele>907.62</ele>
        <time>2017-08-22T16:39:06Z</time>
      </trkpt>
      <trkpt lat="44.88901" lon="5.13118">
        <ele>907.14</ele>
        <time>2017-08-22T16:39:07Z</time>
      </trkpt>
      <trkpt lat="44.88892" lon="5.13111">
        <ele>906.66</ele>
        <time>2017-08-22T16:39:08Z</time>
      </trkpt>
      <trkpt lat="44.88866" lon="5.13092">
        <ele>904.74</ele>
        <time>2017-08-22T16:39:11Z</time>
      </trkpt>
      <trkpt lat="44.88857" lon="5.1309">
        <ele>904.26</ele>
        <time>2017-08-22T16:39:12Z</time>
      </trkpt>
      <trkpt lat="44.88849" lon="5.1309">
        <ele>903.78</ele>
        <time>2017-08-22T16:39:13Z</time>
      </trkpt>
      <trkpt lat="44.88842" lon="5.1309">
        <ele>903.78</ele>
        <time>2017-08-22T16:39:14Z</time>
      </trkpt>
      <trkpt lat="44.88837" lon="5.13087">
        <ele>903.78</ele>
        <time>2017-08-22T16:39:15Z</time>
      </trkpt>
      <trkpt lat="44.88834" lon="5.13081">
        <ele>903.78</ele>
        <time>2017-08-22T16:39:16Z</time>
      </trkpt>
      <trkpt lat="44.88836" lon="5.13075">
        <ele>903.78</ele>
        <time>2017-08-22T16:39:17Z</time>
      </trkpt>
      <trkpt lat="44.88841" lon="5.13072">
        <ele>903.3</ele>
        <time>2017-08-22T16:39:18Z</time>
      </trkpt>
      <trkpt lat="44.88848" lon="5.13071">
        <ele>902.82</ele>
        <time>2017-08-22T16:39:19Z</time>
      </trkpt>
      <trkpt lat="44.88854" lon="5.13073">
        <ele>902.33</ele>
        <time>2017-08-22T16:39:20Z</time>
      </trkpt>
      <trkpt lat="44.88861" lon="5.13076">
        <ele>901.37</ele>
        <time>2017-08-22T16:39:21Z</time>
      </trkpt>
      <trkpt lat="44.88876" lon="5.1308">
        <ele>900.41</ele>
        <time>2017-08-22T16:39:23Z</time>
      </trkpt>
      <trkpt lat="44.889" lon="5.13084">
        <ele>898.49</ele>
        <time>2017-08-22T16:39:26Z</time>
      </trkpt>
      <trkpt lat="44.88935" lon="5.13084">
        <ele>895.61</ele>
        <time>2017-08-22T16:39:30Z</time>
      </trkpt>
      <trkpt lat="44.88944" lon="5.13087">
        <ele>894.64</ele>
        <time>2017-08-22T16:39:31Z</time>
      </trkpt>
      <trkpt lat="44.88952" lon="5.13093">
        <ele>894.16</ele>
        <time>2017-08-22T16:39:32Z</time>
      </trkpt>
      <trkpt lat="44.88959" lon="5.13102">
        <ele>893.68</ele>
        <time>2017-08-22T16:39:33Z</time>
      </trkpt>
      <trkpt lat="44.88965" lon="5.13112">
        <ele>892.72</ele>
        <time>2017-08-22T16:39:34Z</time>
      </trkpt>
      <trkpt lat="44.88971" lon="5.13123">
        <ele>891.76</ele>
        <time>2017-08-22T16:39:35Z</time>
      </trkpt>
      <trkpt lat="44.88977" lon="5.13136">
        <ele>890.8</ele>
        <time>2017-08-22T16:39:36Z</time>
      </trkpt>
      <trkpt lat="44.88981" lon="5.13148">
        <ele>890.32</ele>
        <time>2017-08-22T16:39:37Z</time>
      </trkpt>
      <trkpt lat="44.88985" lon="5.13162">
        <ele>890.32</ele>
        <time>2017-08-22T16:39:38Z</time>
      </trkpt>
      <trkpt lat="44.88991" lon="5.13189">
        <ele>888.4</ele>
        <time>2017-08-22T16:39:40Z</time>
      </trkpt>
      <trkpt lat="44.88992" lon="5.13204">
        <ele>887.91</ele>
        <time>2017-08-22T16:39:41Z</time>
      </trkpt>
      <trkpt lat="44.88996" lon="5.13231">
        <ele>886.95</ele>
        <time>2017-08-22T16:39:43Z</time>
      </trkpt>
      <trkpt lat="44.89" lon="5.13243">
        <ele>886.47</ele>
        <time>2017-08-22T16:39:44Z</time>
      </trkpt>
      <trkpt lat="44.89006" lon="5.13253">
        <ele>885.51</ele>
        <time>2017-08-22T16:39:45Z</time>
      </trkpt>
      <trkpt lat="44.89013" lon="5.1326">
        <ele>885.03</ele>
        <time>2017-08-22T16:39:46Z</time>
      </trkpt>
      <trkpt lat="44.89022" lon="5.13263">
        <ele>884.55</ele>
        <time>2017-08-22T16:39:47Z</time>
      </trkpt>
      <trkpt lat="44.8903" lon="5.13262">
        <ele>884.07</ele>
        <time>2017-08-22T16:39:48Z</time>
      </trkpt>
      <trkpt lat="44.89037" lon="5.13256">
        <ele>883.59</ele>
        <time>2017-08-22T16:39:49Z</time>
      </trkpt>
      <trkpt lat="44.89043" lon="5.13247">
        <ele>883.11</ele>
        <time>2017-08-22T16:39:50Z</time>
      </trkpt>
      <trkpt lat="44.89047" lon="5.13237">
        <ele>882.63</ele>
        <time>2017-08-22T16:39:51Z</time>
      </trkpt>
      <trkpt lat="44.89048" lon="5.13226">
        <ele>882.15</ele>
        <time>2017-08-22T16:39:52Z</time>
      </trkpt>
      <trkpt lat="44.89048" lon="5.13214">
        <ele>882.15</ele>
        <time>2017-08-22T16:39:53Z</time>
      </trkpt>
      <trkpt lat="44.89045" lon="5.13202">
        <ele>881.67</ele>
        <time>2017-08-22T16:39:54Z</time>
      </trkpt>
      <trkpt lat="44.89042" lon="5.1319">
        <ele>880.22</ele>
        <time>2017-08-22T16:39:55Z</time>
      </trkpt>
      <trkpt lat="44.89032" lon="5.13152">
        <ele>876.38</ele>
        <time>2017-08-22T16:39:58Z</time>
      </trkpt>
      <trkpt lat="44.89027" lon="5.1314">
        <ele>876.38</ele>
        <time>2017-08-22T16:39:59Z</time>
      </trkpt>
      <trkpt lat="44.89013" lon="5.13099">
        <ele>873.01</ele>
        <time>2017-08-22T16:40:02Z</time>
      </trkpt>
      <trkpt lat="44.89009" lon="5.13084">
        <ele>872.05</ele>
        <time>2017-08-22T16:40:03Z</time>
      </trkpt>
      <trkpt lat="44.89007" lon="5.13068">
        <ele>871.09</ele>
        <time>2017-08-22T16:40:04Z</time>
      </trkpt>
      <trkpt lat="44.89006" lon="5.13052">
        <ele>870.13</ele>
        <time>2017-08-22T16:40:05Z</time>
      </trkpt>
      <trkpt lat="44.89007" lon="5.13035">
        <ele>869.65</ele>
        <time>2017-08-22T16:40:06Z</time>
      </trkpt>
      <trkpt lat="44.89007" lon="5.13019">
        <ele>869.17</ele>
        <time>2017-08-22T16:40:07Z</time>
      </trkpt>
      <trkpt lat="44.89011" lon="5.12953">
        <ele>865.8</ele>
        <time>2017-08-22T16:40:11Z</time>
      </trkpt>
      <trkpt lat="44.89015" lon="5.12885">
        <ele>862.44</ele>
        <time>2017-08-22T16:40:15Z</time>
      </trkpt>
      <trkpt lat="44.89022" lon="5.12819">
        <ele>858.59</ele>
        <time>2017-08-22T16:40:19Z</time>
      </trkpt>
      <trkpt lat="44.89024" lon="5.12789">
        <ele>858.11</ele>
        <time>2017-08-22T16:40:21Z</time>
      </trkpt>
      <trkpt lat="44.89022" lon="5.12775">
        <ele>857.15</ele>
        <time>2017-08-22T16:40:22Z</time>
      </trkpt>
      <trkpt lat="44.89018" lon="5.12762">
        <ele>855.71</ele>
        <time>2017-08-22T16:40:23Z</time>
      </trkpt>
      <trkpt lat="44.89013" lon="5.1275">
        <ele>854.75</ele>
        <time>2017-08-22T16:40:24Z</time>
      </trkpt>
      <trkpt lat="44.89008" lon="5.12737">
        <ele>853.79</ele>
        <time>2017-08-22T16:40:25Z</time>
      </trkpt>
      <trkpt lat="44.88978" lon="5.12675">
        <ele>850.42</ele>
        <time>2017-08-22T16:40:30Z</time>
      </trkpt>
      <trkpt lat="44.88952" lon="5.12622">
        <ele>847.06</ele>
        <time>2017-08-22T16:40:35Z</time>
      </trkpt>
      <trkpt lat="44.88945" lon="5.12615">
        <ele>847.54</ele>
        <time>2017-08-22T16:40:36Z</time>
      </trkpt>
      <trkpt lat="44.88938" lon="5.12611">
        <ele>847.06</ele>
        <time>2017-08-22T16:40:37Z</time>
      </trkpt>
      <trkpt lat="44.88917" lon="5.126">
        <ele>844.66</ele>
        <time>2017-08-22T16:40:40Z</time>
      </trkpt>
      <trkpt lat="44.88909" lon="5.12594">
        <ele>843.69</ele>
        <time>2017-08-22T16:40:41Z</time>
      </trkpt>
      <trkpt lat="44.88903" lon="5.12587">
        <ele>843.21</ele>
        <time>2017-08-22T16:40:42Z</time>
      </trkpt>
      <trkpt lat="44.88897" lon="5.12578">
        <ele>842.25</ele>
        <time>2017-08-22T16:40:43Z</time>
      </trkpt>
      <trkpt lat="44.88892" lon="5.12567">
        <ele>841.29</ele>
        <time>2017-08-22T16:40:44Z</time>
      </trkpt>
      <trkpt lat="44.88887" lon="5.12556">
        <ele>840.81</ele>
        <time>2017-08-22T16:40:45Z</time>
      </trkpt>
      <trkpt lat="44.88883" lon="5.12543">
        <ele>839.85</ele>
        <time>2017-08-22T16:40:46Z</time>
      </trkpt>
      <trkpt lat="44.88866" lon="5.12493">
        <ele>836.96</ele>
        <time>2017-08-22T16:40:50Z</time>
      </trkpt>
      <trkpt lat="44.88852" lon="5.12455">
        <ele>835.04</ele>
        <time>2017-08-22T16:40:53Z</time>
      </trkpt>
      <trkpt lat="44.88849" lon="5.12441">
        <ele>834.56</ele>
        <time>2017-08-22T16:40:54Z</time>
      </trkpt>
      <trkpt lat="44.88848" lon="5.12427">
        <ele>833.6</ele>
        <time>2017-08-22T16:40:55Z</time>
      </trkpt>
      <trkpt lat="44.88845" lon="5.12353">
        <ele>830.24</ele>
        <time>2017-08-22T16:41:00Z</time>
      </trkpt>
      <trkpt lat="44.88839" lon="5.12315">
        <ele>828.79</ele>
        <time>2017-08-22T16:41:03Z</time>
      </trkpt>
      <trkpt lat="44.88837" lon="5.12305">
        <ele>828.79</ele>
        <time>2017-08-22T16:41:04Z</time>
      </trkpt>
      <trkpt lat="44.88835" lon="5.12297">
        <ele>828.31</ele>
        <time>2017-08-22T16:41:05Z</time>
      </trkpt>
      <trkpt lat="44.88835" lon="5.1229">
        <ele>827.83</ele>
        <time>2017-08-22T16:41:06Z</time>
      </trkpt>
      <trkpt lat="44.88837" lon="5.12285">
        <ele>827.83</ele>
        <time>2017-08-22T16:41:07Z</time>
      </trkpt>
      <trkpt lat="44.88842" lon="5.12285">
        <ele>827.35</ele>
        <time>2017-08-22T16:41:08Z</time>
      </trkpt>
      <trkpt lat="44.88846" lon="5.12291">
        <ele>826.87</ele>
        <time>2017-08-22T16:41:09Z</time>
      </trkpt>
      <trkpt lat="44.88848" lon="5.12298">
        <ele>826.39</ele>
        <time>2017-08-22T16:41:10Z</time>
      </trkpt>
      <trkpt lat="44.88849" lon="5.12306">
        <ele>825.91</ele>
        <time>2017-08-22T16:41:11Z</time>
      </trkpt>
      <trkpt lat="44.88849" lon="5.12315">
        <ele>825.43</ele>
        <time>2017-08-22T16:41:12Z</time>
      </trkpt>
      <trkpt lat="44.8885" lon="5.12325">
        <ele>824.47</ele>
        <time>2017-08-22T16:41:13Z</time>
      </trkpt>
      <trkpt lat="44.88859" lon="5.12388">
        <ele>821.1</ele>
        <time>2017-08-22T16:41:19Z</time>
      </trkpt>
      <trkpt lat="44.88865" lon="5.12424">
        <ele>819.18</ele>
        <time>2017-08-22T16:41:22Z</time>
      </trkpt>
      <trkpt lat="44.88868" lon="5.12436">
        <ele>818.22</ele>
        <time>2017-08-22T16:41:23Z</time>
      </trkpt>
      <trkpt lat="44.88873" lon="5.12447">
        <ele>817.74</ele>
        <time>2017-08-22T16:41:24Z</time>
      </trkpt>
      <trkpt lat="44.88879" lon="5.12458">
        <ele>817.26</ele>
        <time>2017-08-22T16:41:25Z</time>
      </trkpt>
      <trkpt lat="44.88885" lon="5.12468">
        <ele>816.78</ele>
        <time>2017-08-22T16:41:26Z</time>
      </trkpt>
      <trkpt lat="44.88898" lon="5.1249">
        <ele>814.85</ele>
        <time>2017-08-22T16:41:28Z</time>
      </trkpt>
      <trkpt lat="44.88902" lon="5.12502">
        <ele>814.37</ele>
        <time>2017-08-22T16:41:29Z</time>
      </trkpt>
      <trkpt lat="44.88912" lon="5.12528">
        <ele>812.93</ele>
        <time>2017-08-22T16:41:31Z</time>
      </trkpt>
      <trkpt lat="44.8892" lon="5.12539">
        <ele>811.97</ele>
        <time>2017-08-22T16:41:32Z</time>
      </trkpt>
      <trkpt lat="44.88929" lon="5.12546">
        <ele>810.05</ele>
        <time>2017-08-22T16:41:33Z</time>
      </trkpt>
      <trkpt lat="44.8894" lon="5.12551">
        <ele>809.57</ele>
        <time>2017-08-22T16:41:34Z</time>
      </trkpt>
      <trkpt lat="44.8895" lon="5.12554">
        <ele>808.61</ele>
        <time>2017-08-22T16:41:35Z</time>
      </trkpt>
      <trkpt lat="44.88962" lon="5.12555">
        <ele>808.13</ele>
        <time>2017-08-22T16:41:36Z</time>
      </trkpt>
      <trkpt lat="44.88973" lon="5.12556">
        <ele>807.16</ele>
        <time>2017-08-22T16:41:37Z</time>
      </trkpt>
      <trkpt lat="44.88995" lon="5.12559">
        <ele>805.72</ele>
        <time>2017-08-22T16:41:39Z</time>
      </trkpt>
      <trkpt lat="44.89006" lon="5.12564">
        <ele>805.24</ele>
        <time>2017-08-22T16:41:40Z</time>
      </trkpt>
      <trkpt lat="44.89015" lon="5.12571">
        <ele>804.76</ele>
        <time>2017-08-22T16:41:41Z</time>
      </trkpt>
      <trkpt lat="44.89053" lon="5.12606">
        <ele>800.92</ele>
        <time>2017-08-22T16:41:45Z</time>
      </trkpt>
      <trkpt lat="44.89082" lon="5.12634">
        <ele>798.99</ele>
        <time>2017-08-22T16:41:48Z</time>
      </trkpt>
      <trkpt lat="44.8912" lon="5.12685">
        <ele>795.15</ele>
        <time>2017-08-22T16:41:53Z</time>
      </trkpt>
      <trkpt lat="44.89137" lon="5.12719">
        <ele>793.71</ele>
        <time>2017-08-22T16:41:56Z</time>
      </trkpt>
      <trkpt lat="44.89139" lon="5.12732">
        <ele>792.74</ele>
        <time>2017-08-22T16:41:57Z</time>
      </trkpt>
      <trkpt lat="44.8914" lon="5.12746">
        <ele>791.78</ele>
        <time>2017-08-22T16:41:58Z</time>
      </trkpt>
      <trkpt lat="44.89139" lon="5.12774">
        <ele>789.86</ele>
        <time>2017-08-22T16:42:00Z</time>
      </trkpt>
      <trkpt lat="44.89135" lon="5.12802">
        <ele>787.94</ele>
        <time>2017-08-22T16:42:02Z</time>
      </trkpt>
      <trkpt lat="44.89128" lon="5.12845">
        <ele>786.02</ele>
        <time>2017-08-22T16:42:05Z</time>
      </trkpt>
      <trkpt lat="44.89127" lon="5.1286">
        <ele>785.53</ele>
        <time>2017-08-22T16:42:06Z</time>
      </trkpt>
      <trkpt lat="44.89128" lon="5.12875">
        <ele>784.57</ele>
        <time>2017-08-22T16:42:07Z</time>
      </trkpt>
      <trkpt lat="44.89132" lon="5.12917">
        <ele>782.65</ele>
        <time>2017-08-22T16:42:10Z</time>
      </trkpt>
      <trkpt lat="44.89136" lon="5.1293">
        <ele>781.69</ele>
        <time>2017-08-22T16:42:11Z</time>
      </trkpt>
      <trkpt lat="44.89141" lon="5.12942">
        <ele>781.21</ele>
        <time>2017-08-22T16:42:12Z</time>
      </trkpt>
      <trkpt lat="44.89148" lon="5.12951">
        <ele>779.77</ele>
        <time>2017-08-22T16:42:13Z</time>
      </trkpt>
      <trkpt lat="44.89157" lon="5.12958">
        <ele>778.32</ele>
        <time>2017-08-22T16:42:14Z</time>
      </trkpt>
      <trkpt lat="44.89167" lon="5.12963">
        <ele>777.84</ele>
        <time>2017-08-22T16:42:15Z</time>
      </trkpt>
      <trkpt lat="44.89177" lon="5.12967">
        <ele>777.36</ele>
        <time>2017-08-22T16:42:16Z</time>
      </trkpt>
      <trkpt lat="44.89187" lon="5.1297">
        <ele>776.88</ele>
        <time>2017-08-22T16:42:17Z</time>
      </trkpt>
      <trkpt lat="44.89212" lon="5.12982">
        <ele>775.92</ele>
        <time>2017-08-22T16:42:20Z</time>
      </trkpt>
      <trkpt lat="44.89218" lon="5.12987">
        <ele>775.92</ele>
        <time>2017-08-22T16:42:21Z</time>
      </trkpt>
      <trkpt lat="44.89243" lon="5.13008">
        <ele>773.52</ele>
        <time>2017-08-22T16:42:25Z</time>
      </trkpt>
      <trkpt lat="44.89249" lon="5.13015">
        <ele>772.56</ele>
        <time>2017-08-22T16:42:26Z</time>
      </trkpt>
      <trkpt lat="44.89255" lon="5.13024">
        <ele>772.56</ele>
        <time>2017-08-22T16:42:27Z</time>
      </trkpt>
      <trkpt lat="44.89259" lon="5.13034">
        <ele>771.6</ele>
        <time>2017-08-22T16:42:28Z</time>
      </trkpt>
      <trkpt lat="44.89264" lon="5.13045">
        <ele>771.11</ele>
        <time>2017-08-22T16:42:29Z</time>
      </trkpt>
      <trkpt lat="44.89267" lon="5.13057">
        <ele>770.63</ele>
        <time>2017-08-22T16:42:30Z</time>
      </trkpt>
      <trkpt lat="44.8927" lon="5.13069">
        <ele>770.15</ele>
        <time>2017-08-22T16:42:31Z</time>
      </trkpt>
      <trkpt lat="44.89273" lon="5.13081">
        <ele>769.67</ele>
        <time>2017-08-22T16:42:32Z</time>
      </trkpt>
      <trkpt lat="44.89291" lon="5.13145">
        <ele>765.83</ele>
        <time>2017-08-22T16:42:37Z</time>
      </trkpt>
      <trkpt lat="44.89297" lon="5.13157">
        <ele>764.87</ele>
        <time>2017-08-22T16:42:38Z</time>
      </trkpt>
      <trkpt lat="44.89315" lon="5.13191">
        <ele>762.94</ele>
        <time>2017-08-22T16:42:41Z</time>
      </trkpt>
      <trkpt lat="44.89318" lon="5.13204">
        <ele>762.46</ele>
        <time>2017-08-22T16:42:42Z</time>
      </trkpt>
      <trkpt lat="44.89321" lon="5.13217">
        <ele>761.5</ele>
        <time>2017-08-22T16:42:43Z</time>
      </trkpt>
      <trkpt lat="44.89324" lon="5.13231">
        <ele>761.02</ele>
        <time>2017-08-22T16:42:44Z</time>
      </trkpt>
      <trkpt lat="44.89326" lon="5.13244">
        <ele>760.06</ele>
        <time>2017-08-22T16:42:45Z</time>
      </trkpt>
      <trkpt lat="44.89328" lon="5.13258">
        <ele>759.58</ele>
        <time>2017-08-22T16:42:46Z</time>
      </trkpt>
      <trkpt lat="44.89332" lon="5.13271">
        <ele>759.1</ele>
        <time>2017-08-22T16:42:47Z</time>
      </trkpt>
      <trkpt lat="44.89337" lon="5.13282">
        <ele>758.14</ele>
        <time>2017-08-22T16:42:48Z</time>
      </trkpt>
      <trkpt lat="44.89354" lon="5.13318">
        <ele>754.77</ele>
        <time>2017-08-22T16:42:51Z</time>
      </trkpt>
      <trkpt lat="44.89358" lon="5.1333">
        <ele>754.29</ele>
        <time>2017-08-22T16:42:52Z</time>
      </trkpt>
      <trkpt lat="44.89363" lon="5.13344">
        <ele>753.33</ele>
        <time>2017-08-22T16:42:53Z</time>
      </trkpt>
      <trkpt lat="44.89379" lon="5.13413">
        <ele>749.97</ele>
        <time>2017-08-22T16:42:58Z</time>
      </trkpt>
      <trkpt lat="44.89397" lon="5.13486">
        <ele>746.12</ele>
        <time>2017-08-22T16:43:03Z</time>
      </trkpt>
      <trkpt lat="44.894" lon="5.13501">
        <ele>745.16</ele>
        <time>2017-08-22T16:43:04Z</time>
      </trkpt>
      <trkpt lat="44.89409" lon="5.1356">
        <ele>741.79</ele>
        <time>2017-08-22T16:43:08Z</time>
      </trkpt>
      <trkpt lat="44.89424" lon="5.13634">
        <ele>737.47</ele>
        <time>2017-08-22T16:43:13Z</time>
      </trkpt>
      <trkpt lat="44.89435" lon="5.13696">
        <ele>734.58</ele>
        <time>2017-08-22T16:43:17Z</time>
      </trkpt>
      <trkpt lat="44.89445" lon="5.13774">
        <ele>730.26</ele>
        <time>2017-08-22T16:43:22Z</time>
      </trkpt>
      <trkpt lat="44.89451" lon="5.13837">
        <ele>727.37</ele>
        <time>2017-08-22T16:43:26Z</time>
      </trkpt>
      <trkpt lat="44.89448" lon="5.13891">
        <ele>725.45</ele>
        <time>2017-08-22T16:43:30Z</time>
      </trkpt>
      <trkpt lat="44.89446" lon="5.13902">
        <ele>724.97</ele>
        <time>2017-08-22T16:43:31Z</time>
      </trkpt>
      <trkpt lat="44.89444" lon="5.13912">
        <ele>724.97</ele>
        <time>2017-08-22T16:43:32Z</time>
      </trkpt>
      <trkpt lat="44.89444" lon="5.13922">
        <ele>724.97</ele>
        <time>2017-08-22T16:43:33Z</time>
      </trkpt>
      <trkpt lat="44.89446" lon="5.13929">
        <ele>724.97</ele>
        <time>2017-08-22T16:43:34Z</time>
      </trkpt>
      <trkpt lat="44.89451" lon="5.13932">
        <ele>724.97</ele>
        <time>2017-08-22T16:43:35Z</time>
      </trkpt>
      <trkpt lat="44.89457" lon="5.13929">
        <ele>724.49</ele>
        <time>2017-08-22T16:43:36Z</time>
      </trkpt>
      <trkpt lat="44.89463" lon="5.13924">
        <ele>724.01</ele>
        <time>2017-08-22T16:43:37Z</time>
      </trkpt>
      <trkpt lat="44.89466" lon="5.13916">
        <ele>723.53</ele>
        <time>2017-08-22T16:43:38Z</time>
      </trkpt>
      <trkpt lat="44.89469" lon="5.13907">
        <ele>722.57</ele>
        <time>2017-08-22T16:43:39Z</time>
      </trkpt>
      <trkpt lat="44.89469" lon="5.13897">
        <ele>722.09</ele>
        <time>2017-08-22T16:43:40Z</time>
      </trkpt>
      <trkpt lat="44.89476" lon="5.13839">
        <ele>718.24</ele>
        <time>2017-08-22T16:43:45Z</time>
      </trkpt>
      <trkpt lat="44.89484" lon="5.13772">
        <ele>714.88</ele>
        <time>2017-08-22T16:43:50Z</time>
      </trkpt>
      <trkpt lat="44.89487" lon="5.13715">
        <ele>711.99</ele>
        <time>2017-08-22T16:43:54Z</time>
      </trkpt>
      <trkpt lat="44.89488" lon="5.13684">
        <ele>710.07</ele>
        <time>2017-08-22T16:43:56Z</time>
      </trkpt>
      <trkpt lat="44.8949" lon="5.13637">
        <ele>708.15</ele>
        <time>2017-08-22T16:43:59Z</time>
      </trkpt>
      <trkpt lat="44.89489" lon="5.13575">
        <ele>704.78</ele>
        <time>2017-08-22T16:44:03Z</time>
      </trkpt>
      <trkpt lat="44.89489" lon="5.13531">
        <ele>701.42</ele>
        <time>2017-08-22T16:44:06Z</time>
      </trkpt>
      <trkpt lat="44.89488" lon="5.135">
        <ele>700.46</ele>
        <time>2017-08-22T16:44:08Z</time>
      </trkpt>
      <trkpt lat="44.89479" lon="5.13426">
        <ele>696.61</ele>
        <time>2017-08-22T16:44:13Z</time>
      </trkpt>
      <trkpt lat="44.8947" lon="5.13365">
        <ele>693.25</ele>
        <time>2017-08-22T16:44:17Z</time>
      </trkpt>
      <trkpt lat="44.89459" lon="5.13276">
        <ele>689.88</ele>
        <time>2017-08-22T16:44:23Z</time>
      </trkpt>
      <trkpt lat="44.89455" lon="5.13234">
        <ele>687.48</ele>
        <time>2017-08-22T16:44:26Z</time>
      </trkpt>
      <trkpt lat="44.89457" lon="5.1322">
        <ele>686.52</ele>
        <time>2017-08-22T16:44:27Z</time>
      </trkpt>
      <trkpt lat="44.89461" lon="5.13206">
        <ele>685.08</ele>
        <time>2017-08-22T16:44:28Z</time>
      </trkpt>
      <trkpt lat="44.89467" lon="5.13193">
        <ele>684.6</ele>
        <time>2017-08-22T16:44:29Z</time>
      </trkpt>
      <trkpt lat="44.89473" lon="5.13181">
        <ele>684.12</ele>
        <time>2017-08-22T16:44:30Z</time>
      </trkpt>
      <trkpt lat="44.89483" lon="5.13158">
        <ele>682.67</ele>
        <time>2017-08-22T16:44:32Z</time>
      </trkpt>
      <trkpt lat="44.89486" lon="5.13145">
        <ele>681.71</ele>
        <time>2017-08-22T16:44:33Z</time>
      </trkpt>
      <trkpt lat="44.89488" lon="5.13132">
        <ele>680.27</ele>
        <time>2017-08-22T16:44:34Z</time>
      </trkpt>
      <trkpt lat="44.89488" lon="5.13118">
        <ele>679.31</ele>
        <time>2017-08-22T16:44:35Z</time>
      </trkpt>
      <trkpt lat="44.89488" lon="5.13104">
        <ele>678.83</ele>
        <time>2017-08-22T16:44:36Z</time>
      </trkpt>
      <trkpt lat="44.89487" lon="5.13092">
        <ele>678.35</ele>
        <time>2017-08-22T16:44:37Z</time>
      </trkpt>
      <trkpt lat="44.89486" lon="5.13081">
        <ele>678.35</ele>
        <time>2017-08-22T16:44:38Z</time>
      </trkpt>
      <trkpt lat="44.89483" lon="5.13073">
        <ele>677.87</ele>
        <time>2017-08-22T16:44:39Z</time>
      </trkpt>
      <trkpt lat="44.89477" lon="5.13067">
        <ele>677.39</ele>
        <time>2017-08-22T16:44:40Z</time>
      </trkpt>
      <trkpt lat="44.89465" lon="5.1306">
        <ele>676.91</ele>
        <time>2017-08-22T16:44:41Z</time>
      </trkpt>
      <trkpt lat="44.89454" lon="5.13054">
        <ele>675.94</ele>
        <time>2017-08-22T16:44:42Z</time>
      </trkpt>
      <trkpt lat="44.89446" lon="5.13049">
        <ele>675.46</ele>
        <time>2017-08-22T16:44:43Z</time>
      </trkpt>
      <trkpt lat="44.89438" lon="5.13041">
        <ele>674.98</ele>
        <time>2017-08-22T16:44:44Z</time>
      </trkpt>
      <trkpt lat="44.89432" lon="5.1303">
        <ele>674.5</ele>
        <time>2017-08-22T16:44:45Z</time>
      </trkpt>
      <trkpt lat="44.89428" lon="5.13017">
        <ele>673.54</ele>
        <time>2017-08-22T16:44:46Z</time>
      </trkpt>
      <trkpt lat="44.89426" lon="5.13003">
        <ele>672.58</ele>
        <time>2017-08-22T16:44:47Z</time>
      </trkpt>
      <trkpt lat="44.89425" lon="5.12989">
        <ele>672.1</ele>
        <time>2017-08-22T16:44:48Z</time>
      </trkpt>
      <trkpt lat="44.89426" lon="5.12974">
        <ele>671.14</ele>
        <time>2017-08-22T16:44:49Z</time>
      </trkpt>
      <trkpt lat="44.89429" lon="5.1296">
        <ele>670.18</ele>
        <time>2017-08-22T16:44:50Z</time>
      </trkpt>
      <trkpt lat="44.89434" lon="5.12947">
        <ele>669.22</ele>
        <time>2017-08-22T16:44:51Z</time>
      </trkpt>
      <trkpt lat="44.89439" lon="5.12934">
        <ele>668.73</ele>
        <time>2017-08-22T16:44:52Z</time>
      </trkpt>
      <trkpt lat="44.89447" lon="5.12908">
        <ele>667.29</ele>
        <time>2017-08-22T16:44:54Z</time>
      </trkpt>
      <trkpt lat="44.89449" lon="5.12896">
        <ele>666.81</ele>
        <time>2017-08-22T16:44:55Z</time>
      </trkpt>
      <trkpt lat="44.89449" lon="5.12884">
        <ele>666.33</ele>
        <time>2017-08-22T16:44:56Z</time>
      </trkpt>
      <trkpt lat="44.89446" lon="5.12874">
        <ele>665.37</ele>
        <time>2017-08-22T16:44:57Z</time>
      </trkpt>
      <trkpt lat="44.89439" lon="5.12866">
        <ele>664.89</ele>
        <time>2017-08-22T16:44:58Z</time>
      </trkpt>
      <trkpt lat="44.89431" lon="5.12859">
        <ele>663.93</ele>
        <time>2017-08-22T16:44:59Z</time>
      </trkpt>
      <trkpt lat="44.89423" lon="5.12854">
        <ele>662.97</ele>
        <time>2017-08-22T16:45:00Z</time>
      </trkpt>
      <trkpt lat="44.89414" lon="5.12848">
        <ele>662.49</ele>
        <time>2017-08-22T16:45:01Z</time>
      </trkpt>
      <trkpt lat="44.89406" lon="5.12842">
        <ele>661.52</ele>
        <time>2017-08-22T16:45:02Z</time>
      </trkpt>
      <trkpt lat="44.89399" lon="5.12834">
        <ele>660.56</ele>
        <time>2017-08-22T16:45:03Z</time>
      </trkpt>
      <trkpt lat="44.89393" lon="5.12824">
        <ele>660.08</ele>
        <time>2017-08-22T16:45:04Z</time>
      </trkpt>
      <trkpt lat="44.89389" lon="5.12812">
        <ele>659.6</ele>
        <time>2017-08-22T16:45:05Z</time>
      </trkpt>
      <trkpt lat="44.89386" lon="5.12798">
        <ele>658.64</ele>
        <time>2017-08-22T16:45:06Z</time>
      </trkpt>
      <trkpt lat="44.89386" lon="5.12784">
        <ele>658.16</ele>
        <time>2017-08-22T16:45:07Z</time>
      </trkpt>
      <trkpt lat="44.89386" lon="5.12771">
        <ele>658.16</ele>
        <time>2017-08-22T16:45:08Z</time>
      </trkpt>
      <trkpt lat="44.89387" lon="5.12756">
        <ele>657.68</ele>
        <time>2017-08-22T16:45:09Z</time>
      </trkpt>
      <trkpt lat="44.89387" lon="5.12742">
        <ele>657.2</ele>
        <time>2017-08-22T16:45:10Z</time>
      </trkpt>
      <trkpt lat="44.89389" lon="5.12728">
        <ele>656.24</ele>
        <time>2017-08-22T16:45:11Z</time>
      </trkpt>
      <trkpt lat="44.89395" lon="5.12701">
        <ele>654.8</ele>
        <time>2017-08-22T16:45:13Z</time>
      </trkpt>
      <trkpt lat="44.89401" lon="5.12688">
        <ele>653.83</ele>
        <time>2017-08-22T16:45:14Z</time>
      </trkpt>
      <trkpt lat="44.89408" lon="5.12677">
        <ele>652.87</ele>
        <time>2017-08-22T16:45:15Z</time>
      </trkpt>
      <trkpt lat="44.89415" lon="5.12666">
        <ele>652.39</ele>
        <time>2017-08-22T16:45:16Z</time>
      </trkpt>
      <trkpt lat="44.89423" lon="5.12655">
        <ele>650.95</ele>
        <time>2017-08-22T16:45:17Z</time>
      </trkpt>
      <trkpt lat="44.89431" lon="5.12644">
        <ele>650.95</ele>
        <time>2017-08-22T16:45:18Z</time>
      </trkpt>
      <trkpt lat="44.89452" lon="5.12607">
        <ele>647.59</ele>
        <time>2017-08-22T16:45:21Z</time>
      </trkpt>
      <trkpt lat="44.89461" lon="5.1258">
        <ele>646.14</ele>
        <time>2017-08-22T16:45:23Z</time>
      </trkpt>
      <trkpt lat="44.89464" lon="5.12566">
        <ele>645.18</ele>
        <time>2017-08-22T16:45:24Z</time>
      </trkpt>
      <trkpt lat="44.89465" lon="5.12552">
        <ele>643.74</ele>
        <time>2017-08-22T16:45:25Z</time>
      </trkpt>
      <trkpt lat="44.89463" lon="5.12537">
        <ele>642.78</ele>
        <time>2017-08-22T16:45:26Z</time>
      </trkpt>
      <trkpt lat="44.89459" lon="5.12524">
        <ele>642.78</ele>
        <time>2017-08-22T16:45:27Z</time>
      </trkpt>
      <trkpt lat="44.89455" lon="5.1251">
        <ele>641.82</ele>
        <time>2017-08-22T16:45:28Z</time>
      </trkpt>
      <trkpt lat="44.89449" lon="5.12498">
        <ele>641.34</ele>
        <time>2017-08-22T16:45:29Z</time>
      </trkpt>
      <trkpt lat="44.89444" lon="5.12487">
        <ele>640.86</ele>
        <time>2017-08-22T16:45:30Z</time>
      </trkpt>
      <trkpt lat="44.89437" lon="5.12476">
        <ele>639.89</ele>
        <time>2017-08-22T16:45:31Z</time>
      </trkpt>
      <trkpt lat="44.8943" lon="5.12467">
        <ele>639.41</ele>
        <time>2017-08-22T16:45:32Z</time>
      </trkpt>
      <trkpt lat="44.89422" lon="5.12459">
        <ele>638.93</ele>
        <time>2017-08-22T16:45:33Z</time>
      </trkpt>
      <trkpt lat="44.89413" lon="5.12452">
        <ele>637.97</ele>
        <time>2017-08-22T16:45:34Z</time>
      </trkpt>
      <trkpt lat="44.89403" lon="5.12447">
        <ele>637.01</ele>
        <time>2017-08-22T16:45:35Z</time>
      </trkpt>
      <trkpt lat="44.89394" lon="5.12441">
        <ele>637.01</ele>
        <time>2017-08-22T16:45:36Z</time>
      </trkpt>
      <trkpt lat="44.89386" lon="5.12433">
        <ele>636.53</ele>
        <time>2017-08-22T16:45:37Z</time>
      </trkpt>
      <trkpt lat="44.89379" lon="5.12423">
        <ele>636.05</ele>
        <time>2017-08-22T16:45:38Z</time>
      </trkpt>
      <trkpt lat="44.89374" lon="5.1241">
        <ele>635.09</ele>
        <time>2017-08-22T16:45:39Z</time>
      </trkpt>
      <trkpt lat="44.8937" lon="5.12396">
        <ele>634.13</ele>
        <time>2017-08-22T16:45:40Z</time>
      </trkpt>
      <trkpt lat="44.89369" lon="5.12382">
        <ele>633.17</ele>
        <time>2017-08-22T16:45:41Z</time>
      </trkpt>
      <trkpt lat="44.89369" lon="5.12367">
        <ele>631.72</ele>
        <time>2017-08-22T16:45:42Z</time>
      </trkpt>
      <trkpt lat="44.8937" lon="5.12352">
        <ele>631.72</ele>
        <time>2017-08-22T16:45:43Z</time>
      </trkpt>
      <trkpt lat="44.8937" lon="5.12322">
        <ele>629.32</ele>
        <time>2017-08-22T16:45:45Z</time>
      </trkpt>
      <trkpt lat="44.89368" lon="5.12307">
        <ele>628.36</ele>
        <time>2017-08-22T16:45:46Z</time>
      </trkpt>
      <trkpt lat="44.89364" lon="5.12293">
        <ele>626.92</ele>
        <time>2017-08-22T16:45:47Z</time>
      </trkpt>
      <trkpt lat="44.89359" lon="5.12279">
        <ele>626.92</ele>
        <time>2017-08-22T16:45:48Z</time>
      </trkpt>
      <trkpt lat="44.89354" lon="5.12265">
        <ele>625.47</ele>
        <time>2017-08-22T16:45:49Z</time>
      </trkpt>
      <trkpt lat="44.89348" lon="5.12252">
        <ele>624.99</ele>
        <time>2017-08-22T16:45:50Z</time>
      </trkpt>
      <trkpt lat="44.89341" lon="5.1224">
        <ele>624.03</ele>
        <time>2017-08-22T16:45:51Z</time>
      </trkpt>
      <trkpt lat="44.89333" lon="5.1223">
        <ele>623.55</ele>
        <time>2017-08-22T16:45:52Z</time>
      </trkpt>
      <trkpt lat="44.89324" lon="5.1222">
        <ele>622.59</ele>
        <time>2017-08-22T16:45:53Z</time>
      </trkpt>
      <trkpt lat="44.89314" lon="5.12211">
        <ele>622.11</ele>
        <time>2017-08-22T16:45:54Z</time>
      </trkpt>
      <trkpt lat="44.89297" lon="5.12191">
        <ele>620.19</ele>
        <time>2017-08-22T16:45:56Z</time>
      </trkpt>
      <trkpt lat="44.8929" lon="5.12179">
        <ele>618.75</ele>
        <time>2017-08-22T16:45:57Z</time>
      </trkpt>
      <trkpt lat="44.89283" lon="5.12167">
        <ele>618.26</ele>
        <time>2017-08-22T16:45:58Z</time>
      </trkpt>
      <trkpt lat="44.89275" lon="5.12157">
        <ele>617.78</ele>
        <time>2017-08-22T16:45:59Z</time>
      </trkpt>
      <trkpt lat="44.89267" lon="5.12149">
        <ele>616.82</ele>
        <time>2017-08-22T16:46:00Z</time>
      </trkpt>
      <trkpt lat="44.89258" lon="5.12141">
        <ele>616.34</ele>
        <time>2017-08-22T16:46:01Z</time>
      </trkpt>
      <trkpt lat="44.89248" lon="5.12135">
        <ele>615.38</ele>
        <time>2017-08-22T16:46:02Z</time>
      </trkpt>
      <trkpt lat="44.89238" lon="5.1213">
        <ele>614.42</ele>
        <time>2017-08-22T16:46:03Z</time>
      </trkpt>
      <trkpt lat="44.89227" lon="5.12128">
        <ele>613.94</ele>
        <time>2017-08-22T16:46:04Z</time>
      </trkpt>
      <trkpt lat="44.89216" lon="5.12124">
        <ele>612.98</ele>
        <time>2017-08-22T16:46:05Z</time>
      </trkpt>
      <trkpt lat="44.89206" lon="5.12118">
        <ele>612.02</ele>
        <time>2017-08-22T16:46:06Z</time>
      </trkpt>
      <trkpt lat="44.89197" lon="5.12112">
        <ele>611.06</ele>
        <time>2017-08-22T16:46:07Z</time>
      </trkpt>
      <trkpt lat="44.8919" lon="5.12105">
        <ele>610.57</ele>
        <time>2017-08-22T16:46:08Z</time>
      </trkpt>
      <trkpt lat="44.89184" lon="5.12098">
        <ele>610.57</ele>
        <time>2017-08-22T16:46:09Z</time>
      </trkpt>
      <trkpt lat="44.8918" lon="5.1209">
        <ele>610.57</ele>
        <time>2017-08-22T16:46:10Z</time>
      </trkpt>
      <trkpt lat="44.89179" lon="5.12083">
        <ele>610.57</ele>
        <time>2017-08-22T16:46:11Z</time>
      </trkpt>
      <trkpt lat="44.89182" lon="5.12077">
        <ele>610.57</ele>
        <time>2017-08-22T16:46:12Z</time>
      </trkpt>
      <trkpt lat="44.89188" lon="5.12076">
        <ele>610.09</ele>
        <time>2017-08-22T16:46:13Z</time>
      </trkpt>
      <trkpt lat="44.89194" lon="5.12081">
        <ele>609.61</ele>
        <time>2017-08-22T16:46:14Z</time>
      </trkpt>
      <trkpt lat="44.89199" lon="5.12087">
        <ele>608.65</ele>
        <time>2017-08-22T16:46:15Z</time>
      </trkpt>
      <trkpt lat="44.89205" lon="5.12093">
        <ele>608.17</ele>
        <time>2017-08-22T16:46:16Z</time>
      </trkpt>
      <trkpt lat="44.89212" lon="5.12097">
        <ele>607.69</ele>
        <time>2017-08-22T16:46:17Z</time>
      </trkpt>
      <trkpt lat="44.89219" lon="5.12099">
        <ele>606.73</ele>
        <time>2017-08-22T16:46:18Z</time>
      </trkpt>
      <trkpt lat="44.89227" lon="5.121">
        <ele>606.25</ele>
        <time>2017-08-22T16:46:19Z</time>
      </trkpt>
      <trkpt lat="44.89235" lon="5.121">
        <ele>605.77</ele>
        <time>2017-08-22T16:46:20Z</time>
      </trkpt>
      <trkpt lat="44.89244" lon="5.12099">
        <ele>604.81</ele>
        <time>2017-08-22T16:46:21Z</time>
      </trkpt>
      <trkpt lat="44.89253" lon="5.12098">
        <ele>603.85</ele>
        <time>2017-08-22T16:46:22Z</time>
      </trkpt>
      <trkpt lat="44.89262" lon="5.12099">
        <ele>603.36</ele>
        <time>2017-08-22T16:46:23Z</time>
      </trkpt>
      <trkpt lat="44.89272" lon="5.12102">
        <ele>601.92</ele>
        <time>2017-08-22T16:46:24Z</time>
      </trkpt>
      <trkpt lat="44.89281" lon="5.12106">
        <ele>601.44</ele>
        <time>2017-08-22T16:46:25Z</time>
      </trkpt>
      <trkpt lat="44.89291" lon="5.12111">
        <ele>600.48</ele>
        <time>2017-08-22T16:46:26Z</time>
      </trkpt>
      <trkpt lat="44.8932" lon="5.12124">
        <ele>599.04</ele>
        <time>2017-08-22T16:46:29Z</time>
      </trkpt>
      <trkpt lat="44.8933" lon="5.12126">
        <ele>598.08</ele>
        <time>2017-08-22T16:46:30Z</time>
      </trkpt>
      <trkpt lat="44.89341" lon="5.12126">
        <ele>597.12</ele>
        <time>2017-08-22T16:46:31Z</time>
      </trkpt>
      <trkpt lat="44.89352" lon="5.12124">
        <ele>596.15</ele>
        <time>2017-08-22T16:46:32Z</time>
      </trkpt>
      <trkpt lat="44.89362" lon="5.12122">
        <ele>594.23</ele>
        <time>2017-08-22T16:46:33Z</time>
      </trkpt>
      <trkpt lat="44.89374" lon="5.12121">
        <ele>593.27</ele>
        <time>2017-08-22T16:46:34Z</time>
      </trkpt>
      <trkpt lat="44.89385" lon="5.12123">
        <ele>592.31</ele>
        <time>2017-08-22T16:46:35Z</time>
      </trkpt>
      <trkpt lat="44.89395" lon="5.12126">
        <ele>591.83</ele>
        <time>2017-08-22T16:46:36Z</time>
      </trkpt>
      <trkpt lat="44.89405" lon="5.12133">
        <ele>591.35</ele>
        <time>2017-08-22T16:46:37Z</time>
      </trkpt>
      <trkpt lat="44.89413" lon="5.12143">
        <ele>590.39</ele>
        <time>2017-08-22T16:46:38Z</time>
      </trkpt>
      <trkpt lat="44.89421" lon="5.12154">
        <ele>588.95</ele>
        <time>2017-08-22T16:46:39Z</time>
      </trkpt>
      <trkpt lat="44.89428" lon="5.12166">
        <ele>588.95</ele>
        <time>2017-08-22T16:46:40Z</time>
      </trkpt>
      <trkpt lat="44.89441" lon="5.12187">
        <ele>587.5</ele>
        <time>2017-08-22T16:46:42Z</time>
      </trkpt>
      <trkpt lat="44.89456" lon="5.1221">
        <ele>587.5</ele>
        <time>2017-08-22T16:46:45Z</time>
      </trkpt>
      <trkpt lat="44.89462" lon="5.12211">
        <ele>587.02</ele>
        <time>2017-08-22T16:46:46Z</time>
      </trkpt>
      <trkpt lat="44.89467" lon="5.12206">
        <ele>586.54</ele>
        <time>2017-08-22T16:46:47Z</time>
      </trkpt>
      <trkpt lat="44.89469" lon="5.12197">
        <ele>586.06</ele>
        <time>2017-08-22T16:46:48Z</time>
      </trkpt>
      <trkpt lat="44.89468" lon="5.12187">
        <ele>585.58</ele>
        <time>2017-08-22T16:46:49Z</time>
      </trkpt>
      <trkpt lat="44.89465" lon="5.12178">
        <ele>584.62</ele>
        <time>2017-08-22T16:46:50Z</time>
      </trkpt>
      <trkpt lat="44.89461" lon="5.12169">
        <ele>584.14</ele>
        <time>2017-08-22T16:46:51Z</time>
      </trkpt>
      <trkpt lat="44.89441" lon="5.12119">
        <ele>581.25</ele>
        <time>2017-08-22T16:46:56Z</time>
      </trkpt>
      <trkpt lat="44.89427" lon="5.12086">
        <ele>577.89</ele>
        <time>2017-08-22T16:46:59Z</time>
      </trkpt>
      <trkpt lat="44.89416" lon="5.12064">
        <ele>576.45</ele>
        <time>2017-08-22T16:47:01Z</time>
      </trkpt>
      <trkpt lat="44.89409" lon="5.12054">
        <ele>575.49</ele>
        <time>2017-08-22T16:47:02Z</time>
      </trkpt>
      <trkpt lat="44.89401" lon="5.12046">
        <ele>574.53</ele>
        <time>2017-08-22T16:47:03Z</time>
      </trkpt>
      <trkpt lat="44.89392" lon="5.12039">
        <ele>573.56</ele>
        <time>2017-08-22T16:47:04Z</time>
      </trkpt>
      <trkpt lat="44.89383" lon="5.12032">
        <ele>572.6</ele>
        <time>2017-08-22T16:47:05Z</time>
      </trkpt>
      <trkpt lat="44.89375" lon="5.12026">
        <ele>572.12</ele>
        <time>2017-08-22T16:47:06Z</time>
      </trkpt>
      <trkpt lat="44.89369" lon="5.12019">
        <ele>572.12</ele>
        <time>2017-08-22T16:47:07Z</time>
      </trkpt>
      <trkpt lat="44.89364" lon="5.12009">
        <ele>571.16</ele>
        <time>2017-08-22T16:47:08Z</time>
      </trkpt>
      <trkpt lat="44.89363" lon="5.11997">
        <ele>570.2</ele>
        <time>2017-08-22T16:47:09Z</time>
      </trkpt>
      <trkpt lat="44.89362" lon="5.11985">
        <ele>569.72</ele>
        <time>2017-08-22T16:47:10Z</time>
      </trkpt>
      <trkpt lat="44.89359" lon="5.11974">
        <ele>569.72</ele>
        <time>2017-08-22T16:47:11Z</time>
      </trkpt>
      <trkpt lat="44.89353" lon="5.11965">
        <ele>568.76</ele>
        <time>2017-08-22T16:47:12Z</time>
      </trkpt>
      <trkpt lat="44.89344" lon="5.11959">
        <ele>567.32</ele>
        <time>2017-08-22T16:47:13Z</time>
      </trkpt>
      <trkpt lat="44.89335" lon="5.11955">
        <ele>566.83</ele>
        <time>2017-08-22T16:47:14Z</time>
      </trkpt>
      <trkpt lat="44.89326" lon="5.11951">
        <ele>566.35</ele>
        <time>2017-08-22T16:47:15Z</time>
      </trkpt>
      <trkpt lat="44.89318" lon="5.11945">
        <ele>565.39</ele>
        <time>2017-08-22T16:47:16Z</time>
      </trkpt>
      <trkpt lat="44.89311" lon="5.11935">
        <ele>564.91</ele>
        <time>2017-08-22T16:47:17Z</time>
      </trkpt>
      <trkpt lat="44.89306" lon="5.11923">
        <ele>563.47</ele>
        <time>2017-08-22T16:47:18Z</time>
      </trkpt>
      <trkpt lat="44.89303" lon="5.11909">
        <ele>562.99</ele>
        <time>2017-08-22T16:47:19Z</time>
      </trkpt>
      <trkpt lat="44.89303" lon="5.11895">
        <ele>562.99</ele>
        <time>2017-08-22T16:47:20Z</time>
      </trkpt>
      <trkpt lat="44.89302" lon="5.11881">
        <ele>562.51</ele>
        <time>2017-08-22T16:47:21Z</time>
      </trkpt>
      <trkpt lat="44.89305" lon="5.11839">
        <ele>559.62</ele>
        <time>2017-08-22T16:47:24Z</time>
      </trkpt>
      <trkpt lat="44.89309" lon="5.11824">
        <ele>558.66</ele>
        <time>2017-08-22T16:47:25Z</time>
      </trkpt>
      <trkpt lat="44.89314" lon="5.11811">
        <ele>558.66</ele>
        <time>2017-08-22T16:47:26Z</time>
      </trkpt>
      <trkpt lat="44.89322" lon="5.11801">
        <ele>557.22</ele>
        <time>2017-08-22T16:47:27Z</time>
      </trkpt>
      <trkpt lat="44.89333" lon="5.11794">
        <ele>556.26</ele>
        <time>2017-08-22T16:47:28Z</time>
      </trkpt>
      <trkpt lat="44.89344" lon="5.11791">
        <ele>554.34</ele>
        <time>2017-08-22T16:47:29Z</time>
      </trkpt>
      <trkpt lat="44.89356" lon="5.1179">
        <ele>553.86</ele>
        <time>2017-08-22T16:47:30Z</time>
      </trkpt>
      <trkpt lat="44.89367" lon="5.11791">
        <ele>552.9</ele>
        <time>2017-08-22T16:47:31Z</time>
      </trkpt>
      <trkpt lat="44.89379" lon="5.11792">
        <ele>552.9</ele>
        <time>2017-08-22T16:47:32Z</time>
      </trkpt>
      <trkpt lat="44.8939" lon="5.11795">
        <ele>551.93</ele>
        <time>2017-08-22T16:47:33Z</time>
      </trkpt>
      <trkpt lat="44.89445" lon="5.11819">
        <ele>548.57</ele>
        <time>2017-08-22T16:47:38Z</time>
      </trkpt>
      <trkpt lat="44.89499" lon="5.11847">
        <ele>545.2</ele>
        <time>2017-08-22T16:47:43Z</time>
      </trkpt>
      <trkpt lat="44.89543" lon="5.11863">
        <ele>542.32</ele>
        <time>2017-08-22T16:47:47Z</time>
      </trkpt>
      <trkpt lat="44.89554" lon="5.11863">
        <ele>541.36</ele>
        <time>2017-08-22T16:47:48Z</time>
      </trkpt>
      <trkpt lat="44.89565" lon="5.11862">
        <ele>540.4</ele>
        <time>2017-08-22T16:47:49Z</time>
      </trkpt>
      <trkpt lat="44.89576" lon="5.11859">
        <ele>539.92</ele>
        <time>2017-08-22T16:47:50Z</time>
      </trkpt>
      <trkpt lat="44.89587" lon="5.11855">
        <ele>539.44</ele>
        <time>2017-08-22T16:47:51Z</time>
      </trkpt>
      <trkpt lat="44.89597" lon="5.1185">
        <ele>538.48</ele>
        <time>2017-08-22T16:47:52Z</time>
      </trkpt>
      <trkpt lat="44.89607" lon="5.11843">
        <ele>537.99</ele>
        <time>2017-08-22T16:47:53Z</time>
      </trkpt>
      <trkpt lat="44.89616" lon="5.11836">
        <ele>537.03</ele>
        <time>2017-08-22T16:47:54Z</time>
      </trkpt>
      <trkpt lat="44.89625" lon="5.11827">
        <ele>536.55</ele>
        <time>2017-08-22T16:47:55Z</time>
      </trkpt>
      <trkpt lat="44.89634" lon="5.11817">
        <ele>536.07</ele>
        <time>2017-08-22T16:47:56Z</time>
      </trkpt>
      <trkpt lat="44.89643" lon="5.11809">
        <ele>535.11</ele>
        <time>2017-08-22T16:47:57Z</time>
      </trkpt>
      <trkpt lat="44.89652" lon="5.11802">
        <ele>534.15</ele>
        <time>2017-08-22T16:47:58Z</time>
      </trkpt>
      <trkpt lat="44.89663" lon="5.11796">
        <ele>533.67</ele>
        <time>2017-08-22T16:47:59Z</time>
      </trkpt>
      <trkpt lat="44.89673" lon="5.11792">
        <ele>532.71</ele>
        <time>2017-08-22T16:48:00Z</time>
      </trkpt>
      <trkpt lat="44.89683" lon="5.11789">
        <ele>532.71</ele>
        <time>2017-08-22T16:48:01Z</time>
      </trkpt>
      <trkpt lat="44.89693" lon="5.11786">
        <ele>531.75</ele>
        <time>2017-08-22T16:48:02Z</time>
      </trkpt>
      <trkpt lat="44.89746" lon="5.11766">
        <ele>528.86</ele>
        <time>2017-08-22T16:48:07Z</time>
      </trkpt>
      <trkpt lat="44.89764" lon="5.11753">
        <ele>527.9</ele>
        <time>2017-08-22T16:48:09Z</time>
      </trkpt>
      <trkpt lat="44.89771" lon="5.11745">
        <ele>527.42</ele>
        <time>2017-08-22T16:48:10Z</time>
      </trkpt>
      <trkpt lat="44.89778" lon="5.11735">
        <ele>526.94</ele>
        <time>2017-08-22T16:48:11Z</time>
      </trkpt>
      <trkpt lat="44.89782" lon="5.11723">
        <ele>525.98</ele>
        <time>2017-08-22T16:48:12Z</time>
      </trkpt>
      <trkpt lat="44.89783" lon="5.11709">
        <ele>524.06</ele>
        <time>2017-08-22T16:48:13Z</time>
      </trkpt>
      <trkpt lat="44.89783" lon="5.11696">
        <ele>523.58</ele>
        <time>2017-08-22T16:48:14Z</time>
      </trkpt>
      <trkpt lat="44.89782" lon="5.11685">
        <ele>523.58</ele>
        <time>2017-08-22T16:48:15Z</time>
      </trkpt>
      <trkpt lat="44.89782" lon="5.11676">
        <ele>523.58</ele>
        <time>2017-08-22T16:48:16Z</time>
      </trkpt>
      <trkpt lat="44.89782" lon="5.11668">
        <ele>523.09</ele>
        <time>2017-08-22T16:48:17Z</time>
      </trkpt>
      <trkpt lat="44.89782" lon="5.11652">
        <ele>522.61</ele>
        <time>2017-08-22T16:48:19Z</time>
      </trkpt>
      <trkpt lat="44.89785" lon="5.11615">
        <ele>521.17</ele>
        <time>2017-08-22T16:48:23Z</time>
      </trkpt>
      <trkpt lat="44.89784" lon="5.11604">
        <ele>521.17</ele>
        <time>2017-08-22T16:48:24Z</time>
      </trkpt>
      <trkpt lat="44.89782" lon="5.11581">
        <ele>519.73</ele>
        <time>2017-08-22T16:48:26Z</time>
      </trkpt>
      <trkpt lat="44.89774" lon="5.11537">
        <ele>517.81</ele>
        <time>2017-08-22T16:48:30Z</time>
      </trkpt>
      <trkpt lat="44.89773" lon="5.11525">
        <ele>517.81</ele>
        <time>2017-08-22T16:48:31Z</time>
      </trkpt>
      <trkpt lat="44.89775" lon="5.11515">
        <ele>517.81</ele>
        <time>2017-08-22T16:48:32Z</time>
      </trkpt>
      <trkpt lat="44.89778" lon="5.11505">
        <ele>517.33</ele>
        <time>2017-08-22T16:48:33Z</time>
      </trkpt>
      <trkpt lat="44.89784" lon="5.11497">
        <ele>517.33</ele>
        <time>2017-08-22T16:48:34Z</time>
      </trkpt>
      <trkpt lat="44.89791" lon="5.11493">
        <ele>516.85</ele>
        <time>2017-08-22T16:48:35Z</time>
      </trkpt>
      <trkpt lat="44.89799" lon="5.11491">
        <ele>516.85</ele>
        <time>2017-08-22T16:48:36Z</time>
      </trkpt>
      <trkpt lat="44.89807" lon="5.11488">
        <ele>515.88</ele>
        <time>2017-08-22T16:48:37Z</time>
      </trkpt>
      <trkpt lat="44.89815" lon="5.11483">
        <ele>514.92</ele>
        <time>2017-08-22T16:48:38Z</time>
      </trkpt>
      <trkpt lat="44.89822" lon="5.11476">
        <ele>514.44</ele>
        <time>2017-08-22T16:48:39Z</time>
      </trkpt>
      <trkpt lat="44.89829" lon="5.11468">
        <ele>513.48</ele>
        <time>2017-08-22T16:48:40Z</time>
      </trkpt>
      <trkpt lat="44.89837" lon="5.11458">
        <ele>512.52</ele>
        <time>2017-08-22T16:48:41Z</time>
      </trkpt>
      <trkpt lat="44.89844" lon="5.1145">
        <ele>511.56</ele>
        <time>2017-08-22T16:48:42Z</time>
      </trkpt>
      <trkpt lat="44.89853" lon="5.11443">
        <ele>511.08</ele>
        <time>2017-08-22T16:48:43Z</time>
      </trkpt>
      <trkpt lat="44.89862" lon="5.11438">
        <ele>511.08</ele>
        <time>2017-08-22T16:48:44Z</time>
      </trkpt>
      <trkpt lat="44.89908" lon="5.11407">
        <ele>507.71</ele>
        <time>2017-08-22T16:48:49Z</time>
      </trkpt>
      <trkpt lat="44.89949" lon="5.1136">
        <ele>504.83</ele>
        <time>2017-08-22T16:48:54Z</time>
      </trkpt>
      <trkpt lat="44.89958" lon="5.11352">
        <ele>503.87</ele>
        <time>2017-08-22T16:48:55Z</time>
      </trkpt>
      <trkpt lat="44.89967" lon="5.11345">
        <ele>503.39</ele>
        <time>2017-08-22T16:48:56Z</time>
      </trkpt>
      <trkpt lat="44.90008" lon="5.11321">
        <ele>500.02</ele>
        <time>2017-08-22T16:49:00Z</time>
      </trkpt>
      <trkpt lat="44.90051" lon="5.11302">
        <ele>497.14</ele>
        <time>2017-08-22T16:49:04Z</time>
      </trkpt>
      <trkpt lat="44.90061" lon="5.11295">
        <ele>496.66</ele>
        <time>2017-08-22T16:49:05Z</time>
      </trkpt>
      <trkpt lat="44.9007" lon="5.11288">
        <ele>496.18</ele>
        <time>2017-08-22T16:49:06Z</time>
      </trkpt>
      <trkpt lat="44.90125" lon="5.11241">
        <ele>493.29</ele>
        <time>2017-08-22T16:49:12Z</time>
      </trkpt>
      <trkpt lat="44.90189" lon="5.11196">
        <ele>489.93</ele>
        <time>2017-08-22T16:49:19Z</time>
      </trkpt>
      <trkpt lat="44.90219" lon="5.11185">
        <ele>488.01</ele>
        <time>2017-08-22T16:49:22Z</time>
      </trkpt>
      <trkpt lat="44.90251" lon="5.1118">
        <ele>484.64</ele>
        <time>2017-08-22T16:49:25Z</time>
      </trkpt>
      <trkpt lat="44.90305" lon="5.11177">
        <ele>481.76</ele>
        <time>2017-08-22T16:49:30Z</time>
      </trkpt>
      <trkpt lat="44.90378" lon="5.11189">
        <ele>478.39</ele>
        <time>2017-08-22T16:49:37Z</time>
      </trkpt>
      <trkpt lat="44.90465" lon="5.11224">
        <ele>475.03</ele>
        <time>2017-08-22T16:49:46Z</time>
      </trkpt>
      <trkpt lat="44.90526" lon="5.11244">
        <ele>471.66</ele>
        <time>2017-08-22T16:49:52Z</time>
      </trkpt>
      <trkpt lat="44.90558" lon="5.11254">
        <ele>468.3</ele>
        <time>2017-08-22T16:49:55Z</time>
      </trkpt>
      <trkpt lat="44.90604" lon="5.1126">
        <ele>464.93</ele>
        <time>2017-08-22T16:49:59Z</time>
      </trkpt>
      <trkpt lat="44.90652" lon="5.1126">
        <ele>461.09</ele>
        <time>2017-08-22T16:50:03Z</time>
      </trkpt>
      <trkpt lat="44.9069" lon="5.11265">
        <ele>457.72</ele>
        <time>2017-08-22T16:50:06Z</time>
      </trkpt>
      <trkpt lat="44.90741" lon="5.11276">
        <ele>454.36</ele>
        <time>2017-08-22T16:50:10Z</time>
      </trkpt>
      <trkpt lat="44.9078" lon="5.11289">
        <ele>450.03</ele>
        <time>2017-08-22T16:50:13Z</time>
      </trkpt>
      <trkpt lat="44.90818" lon="5.11303">
        <ele>446.67</ele>
        <time>2017-08-22T16:50:16Z</time>
      </trkpt>
      <trkpt lat="44.90845" lon="5.11313">
        <ele>443.31</ele>
        <time>2017-08-22T16:50:18Z</time>
      </trkpt>
      <trkpt lat="44.90897" lon="5.11333">
        <ele>439.94</ele>
        <time>2017-08-22T16:50:22Z</time>
      </trkpt>
      <trkpt lat="44.90992" lon="5.11332">
        <ele>437.54</ele>
        <time>2017-08-22T16:50:30Z</time>
      </trkpt>
      <trkpt lat="44.91077" lon="5.11283">
        <ele>434.17</ele>
        <time>2017-08-22T16:50:39Z</time>
      </trkpt>
      <trkpt lat="44.91207" lon="5.11199">
        <ele>433.21</ele>
        <time>2017-08-22T16:50:56Z</time>
      </trkpt>
      <trkpt lat="44.9133" lon="5.11102">
        <ele>431.29</ele>
        <time>2017-08-22T16:51:14Z</time>
      </trkpt>
      <trkpt lat="44.91365" lon="5.11044">
        <ele>430.33</ele>
        <time>2017-08-22T16:51:21Z</time>
      </trkpt>
      <trkpt lat="44.91393" lon="5.1094">
        <ele>426.96</ele>
        <time>2017-08-22T16:51:31Z</time>
      </trkpt>
      <trkpt lat="44.91397" lon="5.10893">
        <ele>424.56</ele>
        <time>2017-08-22T16:51:35Z</time>
      </trkpt>
      <trkpt lat="44.91397" lon="5.10883">
        <ele>424.08</ele>
        <time>2017-08-22T16:51:36Z</time>
      </trkpt>
      <trkpt lat="44.91395" lon="5.10875">
        <ele>423.6</ele>
        <time>2017-08-22T16:51:37Z</time>
      </trkpt>
      <trkpt lat="44.9139" lon="5.10871">
        <ele>423.6</ele>
        <time>2017-08-22T16:51:38Z</time>
      </trkpt>
      <trkpt lat="44.91385" lon="5.1087">
        <ele>423.12</ele>
        <time>2017-08-22T16:51:39Z</time>
      </trkpt>
      <trkpt lat="44.9138" lon="5.10873">
        <ele>423.12</ele>
        <time>2017-08-22T16:51:40Z</time>
      </trkpt>
      <trkpt lat="44.91376" lon="5.10877">
        <ele>423.12</ele>
        <time>2017-08-22T16:51:41Z</time>
      </trkpt>
      <trkpt lat="44.91373" lon="5.10882">
        <ele>423.6</ele>
        <time>2017-08-22T16:51:42Z</time>
      </trkpt>
      <trkpt lat="44.9137" lon="5.10887">
        <ele>423.6</ele>
        <time>2017-08-22T16:51:43Z</time>
      </trkpt>
      <trkpt lat="44.91366" lon="5.10891">
        <ele>424.08</ele>
        <time>2017-08-22T16:51:44Z</time>
      </trkpt>
      <trkpt lat="44.91363" lon="5.10894">
        <ele>424.08</ele>
        <time>2017-08-22T16:51:45Z</time>
      </trkpt>
      <trkpt lat="44.91359" lon="5.10897">
        <ele>424.56</ele>
        <time>2017-08-22T16:51:46Z</time>
      </trkpt>
      <trkpt lat="44.91356" lon="5.109">
        <ele>424.56</ele>
        <time>2017-08-22T16:51:47Z</time>
      </trkpt>
      <trkpt lat="44.91354" lon="5.10903">
        <ele>425.04</ele>
        <time>2017-08-22T16:51:48Z</time>
      </trkpt>
      <trkpt lat="44.91352" lon="5.10906">
        <ele>425.52</ele>
        <time>2017-08-22T16:51:49Z</time>
      </trkpt>
      <trkpt lat="44.91349" lon="5.10908">
        <ele>425.52</ele>
        <time>2017-08-22T16:51:50Z</time>
      </trkpt>
      <trkpt lat="44.91347" lon="5.10911">
        <ele>425.52</ele>
        <time>2017-08-22T16:51:51Z</time>
      </trkpt>
      <trkpt lat="44.91341" lon="5.10916">
        <ele>425.52</ele>
        <time>2017-08-22T16:51:54Z</time>
      </trkpt>
      <trkpt lat="44.91339" lon="5.10916">
        <ele>426</ele>
        <time>2017-08-22T16:51:55Z</time>
      </trkpt>
      <trkpt lat="44.91336" lon="5.10914">
        <ele>426</ele>
        <time>2017-08-22T16:52:01Z</time>
      </trkpt>
    </trkseg>
  </trk>
</gpx>